GFSSE_con_3kmhel_000.txt.gz
Helicity
161 127 115 100 131 134 100 61 42 32 23 23 23 31 29 33 28 27 35 27 27 25 24 59 54 70 68 66 69 76 71 66 57 53 51 41 28 36 46 73 84 41 49
244 145 134 127 144 132 104 63 40 30 37 29 14 38 21 34 22 25 29 34 34 24 40 53 56 58 70 58 84 75 72 58 42 15 22 32 26 48 62 59 47 61 74
196 142 150 160 128 112 89 57 51 24 24 32 20 24 24 25 21 23 24 25 36 44 53 54 78 80 70 90 94 85 61 50 18 5 1 15 26 41 39 40 59 88 96
214 150 179 170 136 104 67 57 43 25 24 25 14 20 30 28 23 31 33 33 34 43 46 59 95 78 80 88 78 62 49 36 10 17 37 35 47 46 48 49 50 65 87
194 109 163 157 147 128 80 59 45 35 24 24 25 27 29 29 25 37 28 29 45 56 57 63 75 70 68 78 71 57 39 25 18 12 15 26 26 41 54 59 56 56 72
90 248 234 187 159 108 98 60 50 42 32 35 34 43 25 32 40 36 27 28 49 46 55 56 59 65 58 60 51 47 40 23 32 46 47 53 49 41 55 56 60 69 76
85 204 163 167 157 125 90 64 43 46 36 39 43 36 45 42 39 45 32 33 43 48 55 55 56 55 57 66 55 50 41 29 55 49 58 74 42 45 52 49 49 48 47
69 212 145 162 151 124 82 68 50 47 51 47 51 43 42 40 28 41 28 34 53 50 54 57 58 55 57 61 52 55 50 31 48 64 79 62 51 43 41 42 49 48 43
99 171 141 125 113 94 74 89 57 51 55 42 54 43 54 68 52 54 34 49 66 55 56 60 62 68 67 63 58 64 59 28 45 64 69 71 49 38 38 37 49 46 31
70 83 147 117 117 85 79 88 72 48 58 86 79 48 78 60 69 64 64 71 70 63 57 59 62 72 74 69 68 67 69 48 31 55 100 84 69 44 37 37 42 35 19
47 53 77 145 111 91 106 107 78 61 82 100 79 84 70 50 63 49 76 99 75 66 60 64 72 82 81 68 68 68 80 63 57 60 91 104 75 52 48 46 47 35 14
54 46 45 103 112 95 99 179 125 118 116 103 83 89 60 28 48 89 128 107 86 79 69 69 78 80 78 66 86 83 87 66 70 78 107 105 79 54 49 46 49 43 25
44 57 58 76 115 129 90 156 115 92 101 68 56 93 74 12 96 132 151 113 88 81 79 77 82 89 98 91 112 121 110 89 84 84 108 114 88 62 48 43 43 47 40
87 61 74 77 118 118 131 117 123 89 123 84 74 91 102 69 98 118 103 110 98 85 68 107 98 112 111 126 104 106 123 125 119 118 129 138 109 84 67 51 47 47 44
169 129 107 109 130 114 140 156 102 125 120 104 97 102 130 114 109 96 82 83 118 101 89 86 97 77 133 143 139 137 137 138 139 145 143 134 120 111 90 75 67 60 57
164 186 176 196 122 134 125 141 142 134 152 130 125 135 123 137 123 108 113 97 119 119 80 105 125 113 123 165 178 187 189 186 167 160 163 159 153 140 115 94 83 78 70
166 184 215 240 207 133 146 157 151 152 161 172 137 137 137 142 142 138 133 125 137 143 132 133 128 131 145 156 184 205 222 218 214 207 204 197 185 160 148 116 103 98 93
163 166 211 251 274 227 155 175 205 180 180 172 171 168 160 177 186 162 173 180 183 191 171 178 189 196 192 195 199 210 229 223 221 229 237 245 244 249 198 154 139 121 108
149 154 153 206 242 279 230 193 204 206 197 208 190 196 195 216 223 241 240 238 235 226 238 227 226 252 247 238 229 225 231 252 240 238 269 266 274 268 278 224 174 159 143
134 162 180 180 220 245 281 252 242 250 245 267 252 246 254 255 267 296 305 291 303 287 264 287 281 270 277 288 256 253 248 239 261 278 291 272 278 296 308 286 270 237 174
145 164 111 211 251 317 379 360 338 329 287 277 294 279 286 289 282 317 343 325 324 320 292 297 305 299 282 311 288 272 230 238 295 323 320 287 296 313 305 311 302 283 261
70 64 128 145 146 231 335 341 322 291 241 250 256 260 275 282 280 310 340 355 344 329 308 323 333 330 294 321 304 305 258 240 283 275 268 286 270 280 273 261 278 303 293
95 75 60 95 188 128 205 278 210 201 217 203 202 205 182 181 187 209 224 275 291 301 285 313 338 332 317 305 330 301 312 303 241 215 206 218 238 336 313 274 238 230 227
70 38 37 45 73 171 165 156 135 158 166 157 153 166 161 175 206 215 228 240 274 312 289 300 343 364 320 298 330 315 304 333 328 282 295 308 312 312 298 241 197 191 179
33 31 38 32 58 53 65 87 90 90 129 124 127 129 131 158 192 224 237 222 213 256 264 290 290 311 319 313 320 346 320 309 297 342 318 341 409 443 362 267 237 242 212
37 45 53 62 71 73 76 75 78 70 67 76 82 95 104 111 142 198 224 229 211 208 223 230 248 276 336 351 351 366 403 418 383 380 368 323 360 369 423 435 332 281 243

GFSSE_con_3kmhel_003.txt.gz
Helicity
106 142 164 139 146 150 115 79 60 25 32 20 19 14 16 29 23 26 31 27 27 25 22 32 45 64 64 75 79 79 88 81 74 68 46 39 36 39 47 51 61 32 45
167 148 178 149 169 169 110 81 38 17 33 25 14 23 23 39 26 29 30 41 35 34 40 44 45 59 58 58 88 77 73 54 43 45 45 9 28 44 44 51 63 86 93
212 169 166 177 181 151 119 71 41 15 22 27 30 15 46 37 31 20 27 35 54 57 56 54 57 79 66 89 94 86 65 42 45 29 16 22 43 47 52 59 81 99 115
191 167 155 181 169 136 108 68 49 31 26 25 6 23 42 36 36 30 43 37 48 63 65 77 84 75 78 89 74 62 58 59 77 75 44 46 44 48 47 54 65 92 113
199 159 161 186 168 131 93 72 35 28 13 16 15 33 43 38 35 33 44 48 62 64 66 80 86 69 74 84 69 68 57 65 66 56 15 66 47 41 59 64 63 68 82
168 166 161 167 157 139 95 55 32 24 18 27 55 56 39 46 54 39 48 52 64 63 65 66 83 78 74 58 43 71 62 58 78 63 46 66 53 66 64 64 59 67 69
154 188 216 199 173 142 100 70 43 31 28 43 62 58 57 64 59 49 50 58 61 62 66 69 76 81 64 59 47 61 49 54 77 72 51 73 72 66 63 60 50 48 59
168 185 209 217 211 182 129 96 62 44 41 43 60 38 51 61 63 59 41 36 63 55 56 60 64 64 59 54 48 56 42 34 65 86 59 77 77 64 64 64 50 39 42
180 195 192 201 188 175 139 129 82 66 51 60 69 49 53 82 73 74 43 45 61 59 53 51 54 64 71 68 62 56 44 31 47 80 37 72 77 62 61 57 47 42 43
163 188 166 154 181 166 139 144 99 78 83 58 107 60 53 75 71 61 63 65 67 61 48 46 54 64 73 67 70 68 58 39 36 54 57 75 80 69 66 62 48 42 48
85 158 171 164 144 142 128 126 117 82 56 72 101 94 88 75 66 64 67 63 71 65 59 58 61 65 70 72 71 78 92 76 52 49 79 79 81 74 71 65 53 43 40
62 67 182 196 151 117 107 113 114 95 79 103 111 111 94 68 59 57 69 81 76 74 69 56 58 74 87 85 76 82 96 104 95 86 85 99 91 82 77 70 62 52 43
81 101 109 199 162 169 146 132 120 123 122 104 108 98 68 52 47 71 123 122 115 86 95 74 78 99 102 93 87 94 119 128 117 121 134 139 116 99 88 78 73 64 57
107 112 117 139 184 174 212 189 158 131 118 103 78 84 98 65 77 110 146 132 124 94 88 86 95 96 109 105 114 117 141 161 162 148 145 175 152 127 111 94 87 80 74
126 129 142 165 183 172 182 182 149 124 140 129 105 94 138 120 103 117 149 146 130 122 111 108 102 99 107 113 121 159 148 150 174 197 203 188 182 151 131 122 115 102 94
130 149 154 201 206 200 190 172 167 149 129 139 122 113 146 163 169 167 161 156 145 164 164 145 142 137 133 143 129 145 149 164 185 205 235 233 205 191 158 133 123 119 114
118 174 205 226 229 224 206 200 187 169 160 154 152 133 147 187 214 222 198 187 188 193 191 172 156 171 161 145 170 174 180 176 189 210 234 248 252 218 213 157 141 132 128
163 198 228 245 227 216 241 249 251 207 195 193 187 182 169 189 223 223 223 220 255 245 247 238 210 193 207 203 194 189 200 215 224 233 241 261 275 280 248 217 193 168 153
114 180 218 267 307 279 250 274 276 262 253 240 236 225 205 226 257 280 262 229 278 297 298 296 269 260 229 212 206 192 201 219 234 252 276 286 295 299 303 255 244 215 184
209 169 119 232 354 346 295 260 252 270 282 303 275 268 266 268 285 316 293 254 270 279 279 308 269 277 254 248 230 217 231 213 232 256 253 278 283 316 319 293 280 255 212
144 188 235 214 184 380 447 369 302 284 287 270 269 247 247 248 275 301 290 297 331 324 314 336 307 289 262 337 273 230 205 206 229 264 271 294 304 342 337 330 334 312 270
108 119 123 168 215 194 278 385 380 338 238 244 235 242 246 251 275 295 286 302 344 334 314 343 348 305 291 356 322 317 224 167 230 240 249 269 271 307 343 349 328 327 310
156 147 113 82 115 163 161 212 278 291 216 159 173 185 175 193 216 245 237 270 280 343 315 316 323 309 287 288 341 339 312 275 183 151 148 179 196 233 270 273 289 277 274
103 74 67 60 79 107 123 154 146 120 113 94 100 115 110 144 176 194 214 244 260 293 273 286 305 305 297 275 335 369 326 338 287 207 169 195 203 230 301 332 323 336 320
69 56 46 67 102 99 91 73 69 81 70 59 78 83 82 83 96 122 180 244 267 257 257 240 207 225 261 277 291 316 346 304 282 333 274 154 228 254 283 313 343 379 369
69 52 52 82 123 149 156 166 160 154 136 126 123 113 107 96 93 103 114 172 209 222 243 237 208 162 221 232 257 266 308 345 284 293 320 276 250 196 246 254 279 323 370

GFSSE_con_3kmhel_006.txt.gz
Helicity
35 110 133 153 171 170 125 92 57 29 20 10 17 11 16 28 30 42 35 17 28 30 32 36 48 73 79 74 94 87 82 90 94 77 64 50 45 42 42 31 33 12 34
131 118 144 153 166 173 145 96 62 32 19 18 4 14 15 35 18 34 30 36 25 45 46 44 45 68 75 59 91 87 79 81 72 66 50 17 25 43 46 50 57 64 78
169 138 143 148 175 181 140 92 56 31 24 30 9 4 44 38 45 38 41 35 50 56 50 42 59 68 76 95 96 89 67 61 61 36 13 21 38 56 66 78 84 101 111
175 153 140 159 206 179 123 86 54 34 23 21 3 14 38 46 46 47 47 40 42 55 58 62 60 81 67 76 78 70 48 50 59 39 33 37 29 69 56 64 86 90 105
138 143 140 185 189 158 114 78 44 30 29 25 6 16 39 56 57 54 50 55 58 69 61 69 56 71 80 82 48 61 38 45 64 61 38 67 65 46 50 55 60 67 71
115 127 165 195 180 159 119 85 49 39 33 6 19 33 52 64 72 47 48 53 53 59 56 56 73 74 69 66 56 49 38 44 55 62 43 63 52 53 60 65 72 76 75
101 115 148 182 189 166 134 98 70 45 49 48 47 42 36 59 60 54 38 49 56 55 56 54 60 74 64 62 40 55 43 60 66 69 43 61 52 58 56 57 61 62 67
119 108 138 168 202 190 162 120 96 73 61 67 56 45 39 56 62 61 47 39 51 55 57 57 54 59 66 57 47 45 36 48 77 70 61 43 65 57 60 59 57 61 60
151 163 160 160 196 203 177 150 120 85 55 43 44 42 36 50 63 60 40 38 48 52 47 47 48 51 58 61 53 48 36 34 73 78 65 53 72 61 62 68 72 69 66
156 179 172 171 184 184 178 183 149 102 70 84 57 69 43 42 50 57 46 31 47 55 47 42 44 48 56 62 61 54 42 39 44 87 62 52 67 72 70 65 69 72 67
133 164 164 161 158 158 146 151 140 117 92 70 42 89 62 58 49 52 58 44 58 67 59 49 44 48 57 70 70 63 61 51 49 72 82 58 73 79 83 84 80 77 75
144 129 156 148 139 130 113 110 108 96 78 51 73 80 81 66 58 58 43 46 46 66 68 60 46 42 57 88 82 72 72 66 79 72 100 83 77 81 81 90 90 87 81
143 166 154 158 146 138 96 111 96 74 64 52 61 81 78 69 58 49 51 58 85 80 103 80 77 75 88 93 77 77 74 87 95 90 101 96 84 81 87 97 98 94 88
126 107 168 172 186 150 136 135 117 93 68 62 73 85 85 63 53 50 78 93 131 130 126 103 94 72 76 86 90 78 85 101 119 114 109 111 110 110 99 105 111 107 99
126 128 134 217 210 195 182 182 161 124 93 83 85 83 93 74 68 84 101 130 153 168 159 127 110 97 96 90 98 111 95 102 125 140 145 135 135 129 108 111 114 116 115
118 127 136 174 232 244 251 241 198 178 139 125 97 85 98 100 88 99 130 157 162 180 169 161 148 145 137 130 105 123 123 118 143 150 169 161 158 176 158 129 122 119 114
130 138 158 183 208 252 260 265 252 208 178 160 133 120 121 136 137 134 163 185 167 167 158 170 163 161 164 152 152 147 155 160 164 164 177 194 193 179 184 150 130 125 123
104 132 156 202 251 253 253 259 257 225 213 191 191 174 156 167 189 179 184 176 178 194 206 231 238 219 228 229 184 194 176 175 163 169 180 204 219 230 208 189 167 146 143
96 83 132 196 269 270 258 275 281 248 229 222 216 216 210 213 224 238 241 239 248 251 247 247 231 269 212 230 221 193 195 192 185 186 195 212 235 255 254 204 198 190 170
106 95 93 102 172 189 215 260 258 244 211 234 227 230 232 236 227 244 231 238 281 261 236 260 236 258 257 216 186 168 168 184 194 206 207 211 221 252 278 263 250 221 176
108 120 114 130 115 234 277 242 220 227 240 231 227 203 212 224 219 227 219 221 280 273 243 249 260 232 236 279 237 172 175 183 190 224 221 227 232 237 248 260 265 259 252
116 110 101 109 119 64 159 215 222 185 185 197 184 153 145 163 188 195 210 218 247 267 245 243 272 253 252 279 275 230 206 123 169 179 195 188 189 213 235 253 240 234 268
163 135 109 76 80 74 44 95 137 157 139 114 94 82 82 96 123 153 171 215 227 285 258 252 279 299 241 203 266 264 246 251 200 126 105 85 102 157 188 168 205 234 228
127 106 79 57 62 82 106 115 133 123 110 103 83 79 70 64 74 94 123 156 182 232 261 258 255 281 246 242 205 275 257 274 266 195 149 120 127 155 187 208 221 225 245
96 86 80 90 126 127 144 154 160 176 150 126 136 156 166 167 159 158 155 144 156 191 205 203 210 223 242 254 257 236 265 271 276 311 258 158 127 182 208 207 196 194 190
84 87 80 81 118 174 210 237 242 239 221 211 199 188 173 165 159 175 188 172 158 152 156 167 185 197 225 205 195 203 236 279 260 260 282 257 219 133 128 180 197 191 187

GFSSE_con_3kmhel_009.txt.gz
Helicity
12 72 112 139 135 128 144 97 70 40 25 12 10 25 30 40 33 17 27 16 24 28 26 30 71 74 68 73 76 81 79 70 74 61 49 45 40 42 57 49 42 17 33
118 100 131 124 136 148 124 96 71 40 27 10 4 20 11 24 12 13 16 26 32 41 31 36 63 65 80 55 79 73 67 65 61 55 39 15 7 23 35 43 49 36 53
127 127 134 127 137 146 138 102 71 36 26 20 7 7 34 23 20 21 20 24 42 48 32 27 31 35 47 39 87 83 75 65 48 36 15 17 10 37 43 57 71 89 107
145 127 120 121 142 164 161 109 76 34 35 24 13 17 34 22 15 24 3 21 24 40 43 28 31 44 43 60 88 91 76 74 51 31 23 29 8 31 40 57 76 90 94
127 113 100 107 151 186 158 115 84 53 46 23 32 25 35 36 45 38 21 29 48 52 43 32 31 52 42 28 53 69 55 63 54 34 55 48 35 35 48 60 67 66 75
94 87 82 114 169 155 140 106 68 43 35 30 4 24 26 39 50 33 26 27 41 45 46 40 39 41 42 56 49 50 33 47 53 47 45 49 56 42 63 70 75 65 61
79 68 73 119 149 153 145 120 82 44 31 19 37 47 38 30 28 60 38 27 42 40 43 43 41 39 40 40 32 28 31 32 36 29 51 43 46 59 65 65 72 66 60
115 84 76 111 141 161 153 128 96 69 46 32 26 39 29 30 39 69 62 41 35 38 38 40 37 35 46 44 37 37 23 20 23 17 24 39 37 53 63 68 68 66 71
97 121 93 95 123 153 157 142 113 97 74 56 25 39 14 21 39 38 51 41 33 35 37 36 36 39 41 41 39 39 28 27 44 28 19 37 28 45 61 67 64 64 69
88 115 124 122 132 139 133 126 121 108 95 61 18 87 45 28 38 39 57 41 24 41 37 30 27 25 23 25 26 30 36 34 53 43 32 41 42 39 55 64 63 62 65
87 99 120 132 131 134 119 96 107 107 76 59 56 71 74 52 39 31 39 27 17 28 40 37 29 21 21 23 26 22 31 57 54 63 48 33 41 50 53 66 67 65 67
94 108 114 133 125 120 92 75 78 63 60 60 47 56 77 66 52 41 33 14 9 15 22 32 35 29 34 68 64 42 60 60 67 64 77 34 32 49 52 66 79 73 70
97 128 130 138 135 135 107 91 75 64 48 35 18 29 57 64 54 54 46 37 47 41 65 63 72 83 83 84 79 78 63 52 68 70 70 54 53 59 66 67 73 80 74
154 130 143 163 163 158 140 124 102 87 65 42 47 41 57 58 43 41 49 45 67 81 86 95 100 84 75 72 80 77 75 73 77 81 72 44 48 62 62 59 66 86 79
103 121 148 175 183 178 192 153 137 109 106 94 82 74 75 67 47 25 12 20 32 64 101 115 118 121 113 101 99 113 90 85 85 89 94 62 58 70 69 60 66 75 82
104 112 150 183 211 219 216 204 172 145 120 129 117 101 97 106 92 68 66 80 92 115 119 130 130 129 125 125 104 115 118 111 113 112 119 101 70 80 92 75 71 69 77
105 109 135 166 212 234 227 239 216 184 152 147 140 135 143 153 158 147 153 155 172 193 170 174 180 182 166 159 150 145 150 139 138 134 141 144 123 93 90 86 88 86 88
51 51 79 139 200 221 228 247 231 227 199 170 181 182 167 170 191 187 165 169 197 225 230 221 198 185 186 185 175 188 191 168 165 174 172 179 172 171 121 91 119 122 111
63 49 26 77 131 165 208 245 233 227 222 205 216 213 198 199 207 208 208 190 224 225 242 248 215 240 183 187 198 181 204 214 177 174 171 189 214 221 220 170 167 156 150
52 35 35 24 55 113 167 190 193 171 152 162 174 187 184 184 187 204 195 204 233 229 217 252 237 241 240 196 194 193 194 201 207 219 192 179 189 216 238 226 231 214 153
124 106 93 102 77 61 130 157 155 164 148 129 133 135 136 133 130 158 173 185 211 222 210 216 254 220 220 231 205 172 166 164 184 197 184 182 182 212 201 221 250 235 211
127 126 120 105 98 45 11 8 32 26 50 49 42 43 70 84 90 107 135 146 161 189 185 194 226 217 247 256 251 214 180 127 147 146 157 158 147 164 157 145 162 183 199
136 122 107 96 81 66 28 21 45 63 84 102 96 102 104 96 96 97 110 128 134 163 157 150 195 226 211 194 225 245 231 196 181 169 178 186 179 196 197 191 168 168 183
96 67 60 76 93 101 101 110 129 117 113 99 84 92 145 157 156 158 143 134 122 116 124 146 149 163 194 210 191 207 209 211 223 181 188 188 186 207 230 269 242 213 205
61 61 68 91 110 95 122 124 131 146 135 125 140 156 158 154 137 131 140 132 131 125 133 132 136 135 142 151 162 173 187 231 237 254 195 162 157 214 209 213 213 210 219
81 98 84 80 103 125 138 150 141 142 138 140 139 130 117 108 106 123 136 133 129 141 152 152 162 168 164 161 160 157 162 172 181 183 205 190 180 205 174 188 223 151 185

GFSSE_con_3kmhel_012.txt.gz
Helicity
19 58 122 115 126 117 103 99 70 55 33 23 5 23 22 47 45 29 30 11 -0 2 -9 14 25 43 70 64 59 64 58 59 61 55 46 42 18 39 42 22 37 24 33
58 90 118 123 115 88 126 105 78 47 26 16 10 19 11 31 23 16 2 -2 10 12 3 17 55 59 49 48 45 56 55 62 52 48 41 25 5 8 23 5 43 15 26
70 99 85 113 120 119 102 89 74 52 25 11 -3 7 -7 29 22 21 11 14 18 18 13 13 41 22 27 8 53 77 49 47 39 28 22 22 11 18 30 17 47 71 98
77 97 76 92 117 110 108 96 82 57 22 4 -7 -18 18 14 18 9 -5 6 2 3 8 2 12 14 28 18 54 76 56 42 34 15 11 20 13 8 28 31 49 72 88
84 90 70 61 85 94 122 95 79 48 26 -13 -26 -7 13 26 45 33 28 9 7 14 24 -1 8 4 27 11 21 69 50 36 27 8 6 32 15 -2 28 35 54 75 85
81 80 64 56 50 127 108 97 71 42 13 -15 -28 -4 14 40 44 26 28 13 19 15 16 2 7 17 16 22 23 45 37 32 30 12 10 10 21 9 22 36 47 62 64
71 71 50 53 92 106 109 99 75 51 19 -6 -24 -20 3 36 26 47 35 31 27 14 11 4 3 7 19 17 26 25 21 32 34 12 8 12 5 8 21 36 45 57 60
81 71 49 43 103 102 100 102 78 60 45 2 -27 16 28 25 18 74 61 35 27 19 13 7 1 5 7 16 22 22 22 28 38 21 15 25 17 15 19 35 39 44 51
71 78 55 40 71 112 104 90 73 61 54 43 11 4 20 12 21 36 33 40 17 14 16 21 16 12 7 5 5 9 18 10 39 28 24 29 21 17 9 28 38 43 47
74 73 64 59 60 81 94 86 77 55 47 48 32 -0 35 21 22 32 12 34 12 -3 -10 7 12 12 13 10 7 9 14 21 38 34 29 24 17 19 11 18 36 36 40
70 75 77 79 73 92 95 76 56 44 33 33 11 17 53 45 15 12 10 8 -1 -8 -7 -3 11 12 21 29 18 15 19 52 50 55 43 12 8 16 20 5 14 31 35
77 80 89 93 90 91 92 86 61 42 24 3 17 21 47 50 37 30 20 3 -9 -7 4 5 1 13 39 72 62 34 56 55 53 56 64 5 -5 3 11 12 10 25 35
76 86 98 109 99 109 108 96 81 64 51 27 13 20 33 45 39 37 35 32 34 27 44 45 56 73 78 89 88 81 70 65 73 65 50 11 1 3 13 15 20 28 39
71 78 94 116 119 121 123 119 98 93 77 60 34 37 57 61 55 52 53 41 44 53 53 68 87 89 91 92 105 117 104 110 105 102 89 32 20 15 13 23 26 31 40
66 80 113 152 158 151 160 139 117 99 98 92 78 67 89 89 92 89 78 74 73 76 90 87 91 97 114 112 112 133 130 135 136 139 131 73 35 24 20 17 27 37 39
49 72 97 130 164 187 172 179 159 135 101 101 94 93 103 118 116 113 101 99 109 137 139 136 139 133 137 145 123 146 142 146 144 152 155 139 74 50 50 45 46 51 52
30 23 63 90 149 173 165 178 175 173 140 129 125 117 123 131 130 124 129 136 149 163 151 160 161 167 157 164 153 151 155 157 166 171 185 180 165 117 88 71 71 74 75
57 62 47 78 125 135 141 168 175 180 163 145 150 141 133 138 149 155 161 173 181 189 185 187 169 161 172 179 173 168 178 160 153 164 175 182 178 181 142 86 85 85 93
66 63 68 37 38 69 89 114 133 128 132 133 136 141 135 133 144 157 167 151 155 165 178 180 160 187 146 147 168 153 156 176 180 182 186 205 211 209 216 157 153 140 134
77 58 51 57 55 44 69 83 77 63 54 66 69 72 75 98 105 132 147 141 130 130 130 151 151 138 175 157 154 144 154 177 180 205 198 203 206 199 212 192 189 183 133
112 95 114 124 111 49 48 48 36 16 20 19 18 20 33 52 66 83 96 86 88 103 98 99 108 123 125 154 152 137 130 142 161 174 182 182 172 191 184 201 216 219 215
109 119 130 120 98 44 5 7 19 33 60 73 95 124 125 112 112 102 92 89 90 89 91 105 126 122 126 119 161 136 111 94 121 115 160 187 174 178 169 192 204 211 219
144 118 91 74 77 72 50 26 50 81 123 145 152 147 143 114 115 108 99 85 84 74 70 80 88 82 95 115 123 156 162 158 136 139 178 188 171 177 213 190 204 218 222
74 52 56 67 61 60 50 62 84 69 66 47 43 47 73 82 84 92 91 92 83 80 99 95 98 99 114 116 123 127 148 164 174 132 132 185 184 206 188 211 192 208 223
52 50 46 60 77 67 86 67 49 59 29 37 60 77 81 80 73 71 88 81 90 90 103 109 123 129 120 138 145 156 166 169 174 201 168 144 167 193 172 171 151 155 198
63 69 53 64 77 93 98 92 80 82 75 77 79 64 51 39 35 50 63 59 58 68 82 85 91 101 117 130 143 159 168 171 163 172 173 155 137 117 122 147 143 130 136

GFSSE_con_3kmhel_015.txt.gz
Helicity
15 47 85 62 122 116 113 70 59 44 29 21 9 18 41 67 50 45 29 8 6 16 11 7 -13 8 42 42 42 38 18 24 36 35 27 26 21 35 43 34 29 23 18
32 65 85 90 111 88 103 73 59 41 20 8 6 -4 13 31 7 5 1 -5 5 8 17 8 10 22 31 19 25 31 18 25 27 29 26 16 7 30 13 -0 12 16 15
26 62 73 79 101 77 97 74 36 36 23 3 -6 -7 -12 17 11 21 12 19 10 14 25 10 54 5 6 6 -6 52 56 26 19 14 8 14 8 15 5 -9 -11 28 43
49 60 57 78 89 81 60 68 54 50 29 -1 -16 -36 -37 20 34 14 7 29 20 4 8 6 16 14 4 4 20 41 52 38 26 12 9 7 7 3 13 -0 -8 36 66
52 55 54 53 65 49 67 68 68 48 35 -5 -35 -53 -38 7 35 48 39 34 18 21 27 8 -4 5 3 -14 -6 28 41 31 33 16 8 12 19 7 2 8 9 22 44
45 42 40 28 30 35 82 71 68 42 23 -20 -45 -51 -45 7 33 35 33 29 23 12 6 3 2 -0 10 -0 -8 5 27 21 36 12 7 15 19 5 -3 4 8 13 28
43 27 29 19 -10 52 74 65 52 35 19 -20 -27 -37 -39 -16 22 37 62 33 26 24 7 5 4 4 2 -1 -0 -1 -7 -7 28 8 14 21 19 6 -2 -0 13 10 15
53 36 23 22 -11 67 54 40 33 17 16 9 -17 -22 -5 9 -5 19 82 47 28 17 12 6 11 8 8 4 -1 -0 5 -2 24 14 14 20 15 6 3 2 20 15 16
28 40 27 23 14 48 67 53 33 17 8 8 -4 -28 -22 8 8 11 29 33 27 16 4 11 13 19 16 16 10 10 6 18 10 20 22 28 25 4 -2 -7 4 17 14
28 35 32 32 26 18 36 64 53 21 8 2 -3 -16 -14 -16 -0 1 33 31 8 9 3 -3 -1 9 17 15 23 23 27 22 16 25 29 35 21 12 3 -1 -9 9 20
26 20 36 42 36 37 39 39 46 38 18 1 -9 -21 -28 13 21 19 23 16 10 10 6 -1 -1 7 15 25 45 42 43 42 29 37 41 31 20 11 12 5 6 -4 14
34 20 43 42 44 50 55 52 40 29 21 15 10 -6 5 23 27 30 31 29 24 23 26 18 15 15 23 52 63 54 57 49 52 50 51 28 17 13 12 12 11 10 3
42 33 58 59 50 61 67 60 60 52 46 39 22 15 14 20 31 36 39 37 36 32 36 31 35 48 43 54 64 66 61 61 74 77 65 44 26 14 11 13 17 18 14
46 33 53 70 76 78 77 76 67 67 59 54 42 28 34 36 36 37 46 39 44 44 43 42 50 42 38 38 47 51 53 62 80 88 83 64 45 35 30 29 30 31 27
34 37 52 72 86 87 89 84 81 81 71 57 46 46 54 56 57 50 56 56 57 58 60 58 57 55 51 47 52 57 58 59 62 90 94 83 63 48 35 37 47 50 48
39 26 20 53 71 87 82 88 85 83 76 71 60 55 57 64 67 71 66 68 71 75 73 74 74 76 75 69 65 60 63 67 67 73 85 77 70 67 58 51 45 49 52
70 55 37 36 77 88 71 70 70 72 74 79 85 72 66 72 76 79 92 98 101 100 90 89 83 81 79 79 64 57 60 55 75 76 90 94 81 74 78 69 64 63 62
71 73 65 56 65 75 68 68 61 60 56 59 65 68 71 77 88 98 106 104 98 92 87 81 67 58 61 73 73 71 72 70 74 80 90 102 104 117 116 82 82 85 84
80 87 95 81 55 53 49 61 61 60 57 61 62 65 64 65 68 72 72 71 73 68 64 60 59 65 70 74 78 68 71 80 80 92 90 97 107 136 149 112 125 115 103
116 114 89 84 78 51 46 58 55 63 77 76 69 62 60 59 60 63 66 64 66 55 48 50 51 62 68 69 80 89 86 90 83 88 79 81 79 87 101 103 132 138 118
175 155 148 125 84 33 41 58 93 117 110 132 130 142 134 121 113 106 92 96 88 71 68 67 57 55 61 53 67 49 49 63 40 72 104 98 88 111 112 119 146 146 146
131 118 133 120 79 49 29 15 31 59 106 111 130 153 148 143 134 113 105 94 96 83 94 87 76 50 47 53 44 46 19 41 4 70 69 81 61 79 86 96 98 104 127
138 129 101 88 79 59 14 14 39 67 102 127 136 116 119 107 101 93 82 68 66 59 54 50 55 57 46 52 84 80 77 131 108 117 125 119 83 103 83 75 87 68 78
83 67 73 82 76 81 79 109 141 116 111 84 80 77 80 87 80 79 69 63 60 54 77 77 90 96 110 126 118 132 147 155 150 79 121 177 109 129 142 118 68 54 57
59 67 59 71 80 84 108 91 74 75 47 49 61 81 84 75 70 74 59 50 51 42 61 77 89 94 83 87 90 99 109 128 121 188 128 154 137 118 113 107 97 92 71
80 82 63 75 78 93 104 94 86 75 71 76 85 78 65 42 19 25 19 18 23 39 57 64 69 72 84 92 100 110 127 148 152 180 180 144 118 97 100 121 118 115 106

GFSSE_con_3kmhel_018.txt.gz
Helicity
24 63 82 81 79 110 93 76 45 33 20 8 -0 2 15 58 64 66 49 19 16 17 19 25 21 36 54 52 49 41 34 29 39 37 37 26 22 44 35 38 27 22 42
50 54 69 41 96 116 95 72 44 22 17 6 -2 -10 6 12 -4 8 22 3 11 14 37 42 35 34 42 32 22 27 34 30 25 24 28 18 10 25 12 16 36 25 28
28 40 43 37 93 100 95 68 38 22 15 3 -9 -6 -9 -10 -3 7 16 26 21 29 44 52 87 67 53 44 37 17 36 29 10 3 4 8 20 26 4 -8 20 17 12
34 40 37 73 69 80 70 50 54 49 28 7 -11 -12 -16 -14 11 17 28 25 39 56 47 50 52 79 68 61 50 51 28 24 3 -7 -1 5 5 26 4 10 -3 27 34
35 34 49 67 59 54 63 52 57 54 32 3 -9 -18 -10 -19 10 33 47 45 39 49 50 45 40 43 53 55 34 35 12 15 23 2 -16 -16 -9 7 2 -1 -6 -10 12
29 33 73 34 33 9 43 66 66 42 21 -0 -26 -26 -24 -15 19 45 42 31 39 38 38 48 55 27 26 43 38 23 17 16 25 6 -0 -10 1 9 19 11 10 -1 -1
17 19 32 7 -9 -9 39 72 44 27 13 -0 -20 -21 -20 -7 4 25 48 52 41 43 47 44 38 36 33 26 17 13 13 25 27 6 20 15 15 13 9 10 5 18 10
17 17 15 14 -20 -15 59 50 34 18 7 -6 -14 -25 16 27 40 33 60 47 34 36 40 37 35 34 33 28 27 23 19 27 26 19 21 27 28 19 11 16 15 30 25
24 17 18 27 22 26 26 32 29 17 2 -6 -19 -35 -21 -4 16 27 27 25 25 26 35 28 22 22 24 29 27 32 37 32 24 31 29 39 48 33 25 17 25 27 36
28 22 20 21 26 31 35 32 33 29 16 -3 -9 -17 -25 -15 -0 7 24 34 29 25 29 18 9 8 15 20 23 38 54 51 25 28 40 48 51 35 27 27 19 29 30
24 36 27 26 28 25 21 47 43 34 22 10 1 8 -11 -9 4 14 37 32 28 24 19 15 5 -0 8 13 27 47 60 34 24 43 50 62 62 33 31 30 32 28 33
39 46 37 34 37 39 39 30 33 28 24 18 10 2 6 5 9 24 29 40 26 24 20 17 12 12 23 22 38 69 44 30 43 43 47 65 45 33 32 35 37 40 37
44 48 47 42 55 52 53 48 43 40 37 31 15 11 13 16 19 26 30 29 28 42 27 29 28 31 23 28 32 37 40 41 53 59 56 79 46 25 26 33 38 41 43
28 38 47 53 77 67 68 64 54 54 58 51 40 29 30 37 35 28 38 32 37 36 37 43 46 40 37 36 35 40 44 56 68 73 68 103 82 43 36 36 35 38 42
38 38 44 55 59 61 61 51 52 55 62 55 51 46 44 51 53 51 49 54 57 57 62 67 63 62 61 59 63 64 69 74 78 102 106 116 134 94 63 58 53 46 43
54 44 44 31 41 51 51 46 53 59 48 53 62 70 68 73 87 92 85 79 74 75 81 78 74 71 68 61 60 64 70 82 83 88 109 102 132 122 96 75 79 82 77
68 68 63 51 46 59 59 63 67 75 59 58 76 79 85 90 95 90 86 83 81 79 72 74 71 69 61 61 56 62 71 70 76 70 80 91 91 108 118 71 54 65 77
87 93 79 65 65 79 101 118 109 98 78 80 94 90 87 87 86 81 75 73 84 83 80 73 72 68 68 73 68 64 70 71 62 66 73 76 79 83 96 67 64 60 49
96 100 108 109 89 81 95 109 114 120 115 116 112 104 105 101 90 76 80 85 83 78 78 74 63 65 64 70 84 77 75 74 62 65 63 61 68 84 95 85 108 115 126
113 128 128 109 91 78 82 95 127 132 133 150 156 155 158 147 135 111 104 103 88 79 84 84 80 70 62 61 68 74 77 75 81 96 95 104 95 91 98 82 84 92 87
186 205 157 120 84 55 64 93 108 117 131 146 152 166 164 152 146 139 117 115 104 91 89 80 73 68 62 61 63 60 57 -35 6 27 94 73 56 59 62 65 93 95 99
206 178 151 121 99 75 63 85 102 125 156 156 153 162 154 145 133 110 103 90 84 67 68 63 58 51 54 66 54 58 38 56 70 231 133 71 70 93 80 83 92 94 111
176 136 113 93 76 61 49 46 60 84 105 118 119 107 112 108 102 86 73 58 56 48 52 53 62 62 68 75 104 107 84 116 102 71 106 52 101 155 148 111 121 141 110
139 107 94 83 75 70 61 71 97 99 107 100 93 83 74 84 85 80 68 59 49 39 58 60 77 91 111 122 113 107 119 122 112 76 107 133 61 169 135 120 125 131 124
101 89 77 81 90 88 107 115 109 109 84 73 69 80 81 76 78 74 48 24 28 44 67 72 83 84 72 84 83 88 96 98 99 144 135 143 118 117 123 121 107 109 127
94 92 83 86 89 105 125 134 119 98 88 78 82 74 65 55 44 50 32 31 61 93 88 78 78 83 87 89 83 81 89 101 101 104 125 117 93 67 90 119 118 112 199

GFSSE_con_3kmhel_021.txt.gz
Helicity
47 131 88 99 109 91 88 88 70 48 32 15 9 -0 6 36 43 48 37 15 10 14 29 54 58 64 58 56 45 32 46 53 46 35 40 36 26 38 52 45 39 24 59
82 101 88 92 86 91 87 71 65 41 24 13 9 -2 15 18 19 10 14 18 16 26 43 72 73 80 66 43 49 24 30 61 47 36 21 13 28 29 30 26 32 33 33
38 74 67 42 69 99 72 60 52 45 32 18 3 -4 9 11 23 13 24 33 40 38 46 48 83 150 120 104 77 59 64 62 53 44 18 21 11 55 23 14 21 41 18
31 49 48 50 97 80 58 46 42 39 38 19 6 -1 3 19 18 23 32 29 33 38 45 55 68 111 124 117 73 75 64 62 45 42 29 30 24 39 20 7 20 32 65
23 21 77 115 63 43 56 55 40 45 34 18 12 -9 1 28 10 25 46 45 41 39 42 44 60 75 79 82 91 63 44 51 56 47 38 36 33 29 31 -6 -4 4 27
21 21 99 87 33 36 30 46 57 48 32 22 8 -3 6 26 17 48 38 39 30 30 38 51 68 73 72 63 63 78 52 55 61 50 50 37 37 38 43 34 24 10 10
26 28 51 56 28 9 12 59 50 35 23 21 19 16 20 19 25 36 46 48 39 27 35 48 61 67 63 67 60 58 43 46 44 42 42 47 50 47 41 37 30 31 34
32 27 61 45 16 -1 40 58 34 17 17 12 12 8 44 67 69 60 61 50 34 29 34 38 33 38 44 48 43 41 32 39 28 26 40 41 55 50 40 31 26 40 39
31 27 40 44 34 10 55 42 39 26 17 7 5 -7 9 19 32 38 34 32 36 38 39 44 20 23 14 17 27 40 43 46 36 35 24 44 55 52 42 39 33 44 35
29 23 36 41 59 61 59 47 46 34 27 14 10 3 6 11 21 30 34 33 42 37 25 21 -1 -6 3 17 23 33 52 62 30 27 52 53 58 65 49 41 42 38 36
33 20 39 53 50 46 54 118 89 48 36 31 25 27 25 12 24 42 71 60 43 31 20 8 4 -2 4 13 11 30 74 46 16 33 50 41 61 48 35 35 38 43 42
31 25 52 48 59 57 78 114 67 69 63 59 42 53 44 32 36 50 60 59 44 30 26 9 7 5 18 19 20 55 54 24 41 57 70 59 67 34 24 30 32 42 48
14 38 48 63 64 67 86 85 79 71 62 58 42 44 49 57 50 54 54 56 52 56 49 42 40 55 28 37 42 42 52 58 80 94 87 107 121 75 52 48 43 44 50
30 51 58 47 65 56 82 86 79 84 78 81 82 64 69 74 73 68 67 70 62 64 58 62 59 56 53 50 51 51 53 77 108 124 121 124 148 110 88 77 78 77 69
45 58 47 50 48 63 56 67 72 81 87 84 91 88 76 88 92 99 95 85 79 77 71 66 63 64 62 59 65 64 74 80 94 125 136 110 145 132 103 81 68 66 75
85 81 65 48 37 34 62 71 79 94 97 92 98 104 93 92 100 103 85 74 74 73 66 72 73 75 78 66 74 74 73 86 90 99 128 128 127 142 121 95 69 57 51
136 116 77 67 50 63 88 107 110 115 113 111 104 114 95 81 81 80 78 82 82 84 79 71 72 90 93 93 91 90 80 69 81 77 87 96 101 112 124 74 66 69 60
140 122 100 70 63 80 117 142 145 148 136 123 124 115 104 93 94 85 86 93 114 96 105 107 92 78 80 87 89 101 87 80 68 70 73 78 107 105 114 90 71 51 70
132 109 100 100 109 123 141 166 184 173 154 141 135 165 147 151 137 121 149 147 111 106 102 112 104 92 81 69 73 73 73 86 83 75 83 85 88 113 108 94 82 102 94
115 119 131 135 127 102 96 108 124 158 208 214 202 202 203 180 185 167 154 148 136 122 117 106 96 93 86 83 87 100 90 94 63 63 34 107 122 154 156 123 109 107 70
158 167 159 126 81 64 74 108 127 132 136 154 168 184 176 175 184 176 146 133 123 111 107 101 86 83 72 77 78 82 82 45 77 134 285 135 115 139 150 124 113 140 110
194 198 187 156 108 96 93 111 119 131 152 159 163 167 157 153 149 134 134 120 114 91 90 76 67 53 60 80 76 75 56 50 127 142 122 128 105 126 127 123 152 157 161
240 223 176 138 118 101 85 85 101 112 114 134 135 124 129 131 132 117 101 82 67 49 49 56 70 85 77 74 99 86 60 95 83 69 89 52 137 117 128 134 109 112 111
222 176 138 120 108 95 89 106 115 106 117 111 103 99 87 90 86 77 64 63 59 48 60 54 90 87 90 80 89 94 108 113 111 99 111 156 67 148 109 107 113 95 87
193 155 125 119 114 101 90 82 89 106 96 79 62 60 61 61 71 78 47 40 47 60 86 88 91 89 90 108 108 94 87 95 102 145 146 139 138 113 112 99 128 140 93
160 127 114 115 117 103 101 114 124 120 95 76 79 76 62 61 56 63 35 52 77 94 90 92 96 101 101 99 101 96 106 123 135 137 139 137 130 126 144 178 180 155 161

GFSSE_con_3kmhel_024.txt.gz
Helicity
128 132 112 107 96 77 86 76 59 46 42 32 26 15 19 45 56 48 45 14 6 16 36 61 62 57 72 82 59 54 56 68 68 61 72 60 30 29 61 54 63 66 48
179 111 83 97 93 65 63 67 61 39 29 15 20 10 18 26 33 22 33 30 34 30 47 69 96 117 92 77 71 52 40 73 76 67 62 40 15 29 35 40 32 46 38
91 78 72 86 84 68 47 67 58 39 26 21 12 14 5 25 37 22 38 42 56 49 52 65 66 116 134 122 113 77 69 76 83 59 60 68 52 71 55 47 27 28 46
75 90 52 55 83 66 63 68 67 41 34 28 19 13 8 23 20 31 42 41 46 44 43 48 56 65 79 103 98 79 68 56 53 58 77 108 94 50 48 39 49 52 50
42 55 80 74 83 55 57 62 67 42 39 31 25 10 -6 25 15 32 52 43 39 45 42 42 49 68 66 81 83 76 72 61 68 69 87 78 74 75 55 45 52 58 75
23 144 122 125 74 50 54 80 67 56 42 30 21 14 13 26 14 67 63 48 38 34 34 39 45 56 55 58 51 49 49 52 65 47 39 36 70 63 54 56 53 65 71
70 98 88 96 70 54 64 78 77 61 42 31 21 31 20 19 50 59 64 53 44 33 30 29 32 32 30 29 26 25 27 42 39 50 44 33 58 46 44 45 51 50 57
82 83 68 72 53 44 67 90 79 60 48 35 24 29 38 59 67 64 58 56 44 32 30 27 22 15 16 15 16 18 24 35 38 40 37 48 31 29 41 39 42 44 50
74 81 58 48 46 50 62 78 73 64 54 39 34 21 31 27 31 46 53 43 33 27 18 19 7 0 -1 7 3 17 29 40 57 58 35 20 12 3 31 36 35 38 36
60 54 79 62 57 60 65 73 80 82 68 59 49 33 25 22 17 39 47 29 25 28 20 14 5 -5 -16 -11 -2 -4 19 37 80 62 50 64 -5 -16 19 27 28 33 41
51 47 53 85 72 75 82 85 94 109 92 76 58 43 54 36 21 65 53 84 56 27 15 3 -10 -17 -10 -2 -15 -18 24 90 69 46 63 59 35 13 12 16 16 16 21
57 65 50 66 85 64 68 175 101 95 106 85 55 80 79 40 68 104 87 53 30 19 13 5 -5 -2 12 46 45 23 96 105 75 73 104 77 68 52 47 45 40 35 28
77 90 65 66 83 91 103 121 77 97 72 75 74 92 83 86 80 78 71 76 65 42 63 46 55 69 71 70 64 59 97 115 125 115 117 96 95 81 71 67 69 59 56
96 99 115 57 95 71 115 117 64 111 96 86 92 104 108 94 99 85 76 77 79 76 72 60 69 55 61 64 69 81 86 110 120 134 126 103 115 90 84 78 66 64 54
87 146 137 103 77 103 94 119 62 113 129 98 124 112 106 103 94 103 96 81 71 71 71 68 67 64 68 67 63 62 68 80 99 132 159 120 110 121 85 70 66 51 46
110 162 133 107 92 87 115 98 114 119 134 127 135 103 106 96 103 104 86 70 74 71 67 83 87 84 77 81 86 87 77 66 65 72 76 76 63 69 72 63 53 46 45
238 231 179 167 141 89 109 145 139 183 187 160 121 148 131 97 87 92 81 79 107 120 112 106 99 109 115 103 83 73 80 70 58 56 69 84 90 77 96 68 50 62 57
177 160 181 126 104 119 127 204 202 212 171 187 197 160 161 166 158 126 152 151 132 127 143 151 134 104 93 84 76 79 88 87 80 74 79 88 106 115 118 96 99 68 48
167 181 145 109 94 144 234 358 367 306 303 292 286 271 265 226 201 220 209 188 196 176 160 133 119 109 79 81 86 86 68 61 73 66 80 133 132 132 125 125 136 132 82
150 132 125 145 192 261 294 288 347 357 336 291 267 239 212 200 243 244 216 183 176 163 137 112 102 83 76 73 80 81 69 81 84 146 133 116 79 66 73 104 85 111 182
155 117 106 116 115 129 137 227 242 222 208 218 202 205 204 210 186 195 175 147 126 123 102 98 69 66 59 64 46 41 67 66 81 108 98 63 58 97 112 129 138 100 73
188 224 256 258 225 223 213 195 167 152 162 165 175 173 160 168 159 125 110 96 88 86 96 86 74 33 35 53 29 30 3 11 73 55 73 86 85 76 69 72 75 76 72
246 243 241 232 216 207 198 175 131 111 117 121 118 117 105 92 93 80 69 65 70 72 59 54 60 70 48 57 80 62 45 42 47 23 71 30 58 70 96 78 62 95 87
258 254 231 183 134 98 74 61 93 102 111 92 82 58 55 59 66 61 41 38 35 41 65 60 77 76 93 87 80 107 113 121 92 60 49 122 67 115 88 94 92 67 103
269 260 234 220 206 174 159 137 120 114 110 101 90 89 70 52 42 40 33 22 27 41 66 82 90 96 89 98 98 101 103 117 112 138 121 131 138 109 116 106 97 106 118
259 236 202 200 197 189 182 167 152 147 141 130 106 78 65 54 50 55 43 42 55 70 72 75 83 94 90 98 106 117 121 143 128 139 138 135 125 132 135 168 148 177 141

GFSSE_con_3kmhel_027.txt.gz
Helicity
58 114 135 108 78 94 97 89 70 65 55 47 39 37 47 59 65 54 45 19 3 43 62 83 91 93 93 67 53 56 50 70 65 77 78 68 62 40 46 49 80 80 61
126 113 112 105 74 82 73 90 63 58 44 38 35 35 35 47 43 29 31 36 44 47 58 68 110 143 123 90 85 66 62 52 75 69 65 54 61 60 40 71 58 62 66
87 84 72 90 66 65 97 97 81 61 43 38 32 36 27 35 39 30 38 48 41 43 41 47 64 100 113 100 79 80 58 59 65 36 48 68 72 70 55 72 74 65 45
62 63 61 60 46 64 94 115 101 71 50 45 37 36 17 20 41 30 42 39 40 38 35 35 47 58 81 73 69 69 65 51 55 26 31 55 54 87 67 65 59 70 71
54 61 45 42 28 48 86 115 104 87 67 52 43 20 -6 12 45 29 49 42 40 35 30 33 39 51 54 57 53 50 60 59 61 38 7 17 28 58 57 56 58 61 66
38 29 52 48 49 49 69 107 112 87 64 48 41 25 1 3 20 73 57 39 32 29 27 20 19 26 26 28 27 24 18 16 42 33 16 -5 19 10 44 58 48 50 62
95 91 78 80 64 60 81 86 95 76 55 38 45 36 7 15 47 65 69 45 33 22 13 6 -3 2 2 3 -0 1 2 3 12 15 13 2 8 16 12 26 34 36 34
110 85 78 75 68 85 79 84 89 73 59 41 48 57 41 46 36 45 48 43 28 14 4 -10 -11 -18 -19 -20 -23 -20 -13 -2 20 23 21 16 -23 -17 -10 2 13 18 21
98 77 72 68 68 73 76 83 81 75 73 54 46 45 45 39 32 32 39 25 16 -1 -7 -12 -20 -20 -21 -21 -15 -13 -2 15 52 71 45 38 -17 -36 -21 -13 12 10 9
95 89 59 75 69 62 58 77 82 85 83 71 56 53 57 45 21 20 37 17 -2 -2 -6 -15 -20 -26 -27 -21 -18 -12 -13 -0 50 74 65 44 -15 -24 -9 -9 11 11 5
77 96 75 67 61 52 66 63 77 86 89 86 73 53 48 45 18 22 32 22 24 17 -3 -15 -19 -22 -17 -7 -7 -11 -0 65 83 80 74 28 -7 -7 -6 18 32 19 15
70 86 118 94 62 43 57 79 74 81 68 69 60 38 54 43 39 44 59 67 59 30 14 7 -5 1 18 53 49 31 66 79 105 114 114 48 11 18 16 36 60 63 33
85 105 113 135 76 70 83 112 76 61 60 50 44 36 31 34 26 52 60 50 50 40 50 46 45 60 66 80 84 95 105 106 141 139 107 58 43 30 19 37 60 84 83
107 100 101 104 115 113 157 124 87 86 57 53 31 30 51 54 65 62 55 48 55 56 52 54 63 61 61 64 60 49 38 49 72 92 88 53 57 33 15 18 36 44 71
75 88 115 116 123 122 170 114 103 93 82 84 90 111 127 112 101 93 85 75 65 71 73 64 65 67 64 59 54 55 54 46 31 21 22 18 28 33 35 29 18 16 23
135 146 140 141 138 143 157 129 104 130 145 150 131 124 128 116 101 99 92 96 100 108 110 103 107 112 120 119 92 69 44 40 33 31 45 49 45 52 61 70 70 39 38
216 242 256 240 191 165 133 157 138 171 173 184 165 163 137 109 112 111 135 155 145 151 173 177 176 128 96 80 65 63 64 60 56 65 75 96 95 116 140 165 166 175 111
182 207 231 229 226 206 192 178 204 281 336 332 318 289 241 196 180 200 185 187 187 184 162 138 115 93 86 79 66 73 64 44 51 68 93 109 117 126 127 152 181 177 192
148 164 149 144 159 231 325 452 462 477 407 360 291 264 268 259 232 194 171 170 171 154 138 113 112 92 75 80 74 78 67 73 93 125 146 133 116 89 71 77 92 110 139
124 128 139 148 197 363 469 549 550 464 382 315 273 264 250 212 201 179 167 158 144 128 122 104 99 86 71 60 58 61 72 90 109 122 91 75 86 53 76 95 84 68 86
119 110 130 172 226 362 423 434 433 339 322 292 238 225 217 188 184 155 123 116 112 99 85 86 58 55 49 66 33 40 31 46 84 82 68 84 64 99 100 92 57 49 53
145 136 164 218 276 294 284 260 243 236 229 211 181 180 159 154 131 112 92 73 67 62 80 76 55 35 28 44 6 -12 -29 2 84 50 68 74 83 79 66 75 42 61 70
221 217 219 228 268 254 218 220 216 220 188 163 143 131 119 114 100 76 60 47 53 50 47 43 55 60 37 41 67 41 40 63 46 43 45 49 60 66 87 59 71 82 87
239 236 248 266 261 211 170 162 125 99 107 97 101 92 98 90 79 67 57 46 43 29 51 50 68 63 66 71 53 97 96 116 79 70 146 83 63 94 80 85 81 75 84
286 300 299 290 246 185 159 139 136 132 114 119 130 123 98 88 79 55 40 35 40 40 48 67 78 90 76 75 83 85 92 97 107 140 110 139 113 117 107 103 94 100 100
331 335 321 316 273 238 204 165 150 146 150 171 155 137 98 63 47 47 48 53 54 59 66 71 73 82 79 80 93 101 118 122 120 117 114 111 127 144 141 149 131 128 115

GFSSE_con_3kmhel_030.txt.gz
Helicity
20 72 111 95 119 114 127 101 82 83 81 71 64 67 76 86 88 69 41 28 23 50 61 79 85 128 102 74 58 63 65 52 64 77 67 70 55 44 71 74 82 71 61
111 85 95 96 93 116 112 91 83 71 65 64 66 63 65 72 56 41 28 29 41 43 35 51 95 131 109 90 63 40 55 80 59 49 44 41 44 31 30 40 69 83 62
122 81 67 79 73 86 106 99 90 75 59 56 58 67 70 68 58 38 29 32 29 38 30 24 40 79 90 67 55 42 53 64 71 46 26 51 43 18 10 33 49 57 57
86 53 36 52 49 73 75 103 97 80 63 55 53 52 46 41 48 31 15 8 12 18 19 11 21 24 50 64 44 38 40 43 37 23 27 34 36 42 33 27 21 30 51
55 47 27 38 36 48 69 81 81 77 62 51 47 29 -12 11 53 24 18 19 22 21 16 13 15 20 22 22 16 10 12 23 22 19 16 16 13 30 7 13 21 24 35
46 39 24 26 27 30 73 87 79 74 53 40 24 -1 -41 -16 36 62 45 32 28 20 13 11 7 7 4 4 1 -1 -5 -10 13 20 15 7 6 -4 10 22 21 19 27
45 23 26 28 37 59 83 81 70 63 45 29 15 2 -32 -35 -21 51 54 46 26 14 8 5 -5 -9 -8 -12 -14 -13 -15 -9 6 19 19 16 13 -1 -1 -2 3 12 21
77 43 37 39 55 72 93 78 75 61 52 37 36 27 16 14 5 36 37 34 17 6 -1 -8 -12 -17 -14 -15 -8 -14 -3 7 27 40 42 47 19 -5 -10 -18 -8 7 15
99 98 78 66 59 75 86 80 73 62 58 53 54 48 39 33 33 22 18 11 2 -5 -10 -10 -15 -17 -15 -17 -12 -15 -0 5 35 62 57 59 2 -16 -10 -10 -10 7 14
92 90 87 85 81 77 78 77 71 66 64 65 62 64 56 38 22 13 22 3 -11 -13 -9 -10 -16 -19 -22 -19 -15 -11 -9 -2 37 61 68 61 -1 -10 -5 1 -2 9 17
80 76 83 87 81 83 80 61 61 59 65 65 62 51 49 36 12 1 15 17 5 1 1 -9 -11 -16 -12 -6 -3 2 9 60 66 90 107 57 25 20 20 5 22 36 19
79 68 95 83 71 73 67 64 57 51 54 48 47 29 29 37 26 31 40 37 12 24 12 4 6 12 26 58 65 45 72 66 78 89 98 55 42 32 24 23 30 36 59
112 116 101 88 69 83 68 86 60 48 39 34 29 21 32 34 14 14 23 23 37 26 39 40 43 55 57 68 69 66 62 60 72 69 66 38 19 3 3 16 18 14 18
116 131 131 97 103 100 108 107 69 55 31 37 37 29 45 35 32 27 34 41 41 43 39 51 56 48 55 54 45 47 47 46 44 40 27 23 37 58 73 61 40 30 24
87 89 156 130 107 123 135 104 98 64 54 49 54 34 48 57 58 76 79 77 57 53 54 67 80 91 99 98 97 97 71 62 60 50 54 68 104 122 118 113 120 118 114
106 87 117 162 131 160 143 124 100 85 81 68 63 71 66 85 98 102 113 119 129 122 136 130 119 122 122 94 80 68 56 51 60 76 85 91 143 169 174 183 189 180 175
194 149 139 149 135 167 148 129 122 93 158 180 223 248 178 130 129 144 153 176 162 135 129 128 118 99 99 89 80 76 69 68 84 99 107 112 117 160 195 202 216 211 227
200 205 212 234 171 145 167 185 239 282 344 364 345 294 240 193 173 156 150 150 130 120 107 95 86 94 100 93 83 93 90 96 103 132 152 151 144 133 137 190 194 203 207
183 208 243 251 248 285 356 422 419 419 432 380 325 261 213 203 166 148 138 130 109 105 111 97 103 95 91 97 90 82 77 88 121 146 133 121 129 96 97 146 182 196 205
157 194 216 235 289 368 471 533 538 498 434 339 262 229 235 191 172 147 142 127 110 113 115 103 112 110 95 69 62 64 79 96 120 126 106 105 107 78 97 110 112 84 131
164 166 167 235 319 420 486 526 514 462 319 293 263 227 217 189 169 146 131 122 99 90 86 93 74 84 78 73 55 62 70 94 100 153 98 167 75 113 115 113 65 41 78
150 170 206 253 271 334 412 420 397 387 321 259 243 254 214 184 160 136 110 90 86 75 88 85 78 62 53 54 19 1 3 37 81 52 96 60 96 73 67 74 76 77 82
176 175 191 198 232 286 331 381 369 331 278 269 250 224 185 159 134 109 91 71 63 61 72 68 66 67 56 48 49 46 32 66 54 36 47 73 57 76 66 76 78 88 98
216 214 211 219 235 243 234 237 232 226 218 161 156 144 162 142 120 97 74 62 63 55 71 61 70 67 69 72 51 90 60 84 68 60 90 59 53 68 61 79 88 87 107
268 289 271 276 246 207 201 207 206 202 172 155 151 160 151 130 111 92 74 63 64 65 70 85 91 100 80 71 69 64 59 83 87 127 114 104 79 81 95 104 108 118 113
335 357 304 292 258 225 209 191 190 181 162 161 136 141 126 115 104 88 73 68 72 86 91 92 91 94 83 76 77 89 96 94 106 109 120 122 140 148 162 158 149 142 138

GFSSE_con_3kmhel_033.txt.gz
Helicity
-46 -6 59 93 99 101 102 90 77 72 77 78 79 80 92 89 87 60 66 32 25 27 53 47 63 78 64 52 51 60 58 64 36 52 51 45 49 39 35 40 33 37 33
56 28 57 72 92 100 82 67 64 55 51 52 57 75 82 103 99 73 24 19 29 28 26 44 66 79 68 68 53 45 53 69 59 36 28 45 54 42 19 7 21 23 39
88 53 38 61 79 72 79 62 64 65 57 53 51 52 71 70 47 27 25 19 19 26 21 14 34 58 81 65 56 45 50 62 46 35 39 40 39 40 14 5 13 19 20
76 52 28 46 53 65 77 62 60 64 61 52 46 48 36 33 24 10 0 2 11 14 6 4 8 12 35 50 42 33 25 28 29 24 34 35 31 38 50 18 12 12 10
56 40 23 40 36 42 78 62 55 51 50 46 36 17 -9 -19 31 11 9 11 12 12 8 7 8 8 8 18 16 12 14 21 32 37 30 25 21 27 37 9 12 28 26
45 35 22 32 31 31 60 60 52 45 43 38 21 -7 -49 -57 3 42 23 27 23 17 13 14 16 16 15 13 16 13 16 14 31 37 36 23 28 14 21 16 22 18 20
32 28 25 31 31 25 69 62 54 47 38 37 15 -12 -42 -52 -11 27 26 32 28 16 8 9 3 4 3 -1 2 3 0 7 29 36 40 34 31 13 5 5 3 8 13
58 31 27 32 33 31 76 67 58 50 33 29 27 1 -24 -30 -29 46 33 22 18 11 8 4 1 -3 -7 -17 -8 -9 0 8 25 38 40 44 14 -6 -1 -1 -4 -8 5
62 59 45 42 49 67 79 73 63 46 37 36 43 35 20 7 2 36 24 11 2 -5 -10 -9 -12 -14 -15 -18 -20 -15 -7 -5 21 47 51 65 23 5 1 4 1 -11 3
76 65 65 68 84 93 88 79 63 47 51 44 41 46 36 19 22 13 13 7 -7 -9 -13 -12 -14 -13 -15 -16 -9 1 3 9 38 57 79 88 35 30 26 19 12 3 6
66 68 76 83 98 109 103 75 61 49 46 47 36 37 32 18 9 -1 1 10 1 -2 -3 0 -2 -2 8 15 17 21 28 56 51 71 87 62 49 46 35 30 26 20 13
53 61 73 81 98 111 87 79 73 57 48 48 28 23 25 14 17 18 11 9 11 9 14 11 10 18 30 47 53 48 57 55 60 74 88 49 42 48 46 49 33 32 33
83 95 87 80 92 116 94 92 79 65 56 38 18 22 19 28 27 21 17 15 26 28 36 43 43 45 43 53 51 58 64 65 61 59 58 77 76 67 69 65 65 67 68
128 120 114 110 108 109 102 92 74 72 59 35 18 31 45 43 34 41 43 47 45 41 36 42 50 49 56 75 78 74 84 76 70 65 68 89 90 90 94 88 94 88 91
84 140 156 152 128 121 117 95 88 70 62 47 47 56 67 62 57 64 66 70 61 49 56 74 85 94 97 93 86 80 79 81 79 71 71 106 143 147 142 147 141 142 122
81 84 194 189 153 155 113 101 74 76 57 62 68 70 75 90 89 75 105 114 113 103 103 103 96 91 85 68 65 68 70 75 85 93 103 126 181 208 195 207 202 216 228
154 122 174 206 192 166 116 89 87 86 113 143 139 144 131 109 100 96 99 114 111 115 110 104 91 78 81 73 66 72 85 107 105 128 159 148 160 198 213 210 217 225 231
104 101 137 195 188 169 147 163 166 207 260 293 265 238 202 170 117 123 126 125 112 106 88 79 79 72 73 68 64 84 97 89 119 182 187 171 171 146 165 192 205 221 220
117 143 174 215 221 255 277 309 333 341 374 372 313 292 259 198 167 149 121 120 107 106 103 89 96 87 77 79 79 80 90 102 146 186 167 172 162 139 112 154 197 192 192
122 169 208 263 340 384 430 456 473 461 458 384 324 278 225 179 178 156 138 130 111 100 105 96 103 99 83 57 59 67 87 106 153 175 159 167 135 97 111 111 92 90 151
141 177 254 302 326 415 449 499 517 441 421 382 307 240 203 188 188 163 138 124 104 96 85 88 77 102 86 73 47 71 98 122 121 129 81 106 118 78 107 89 81 80 87
140 156 230 289 341 383 450 491 502 431 418 371 275 245 220 211 181 157 122 108 102 82 94 92 91 73 76 66 39 27 40 62 104 67 101 117 109 70 84 75 95 105 109
161 170 223 264 306 358 438 509 559 482 420 338 282 275 242 201 171 141 124 99 87 70 70 70 77 80 69 59 62 59 45 70 70 55 108 118 83 71 65 73 77 88 97
161 187 225 237 247 278 315 376 349 329 314 254 241 224 216 186 159 136 116 96 77 64 84 75 81 70 67 71 72 101 78 92 96 101 103 102 59 61 60 70 74 77 96
207 221 243 231 227 225 256 280 308 333 312 269 235 228 200 176 154 133 107 93 90 80 80 97 100 108 93 91 86 82 79 96 89 146 125 101 66 56 72 66 87 99 89
281 279 278 254 256 237 240 245 267 291 249 237 196 189 161 148 138 128 121 109 105 103 102 104 110 120 112 105 93 86 86 96 110 109 131 118 107 93 133 127 106 113 118

GFSSE_con_3kmhel_036.txt.gz
Helicity
-44 -43 -10 72 55 61 56 44 39 37 42 40 34 41 42 56 65 76 60 37 32 31 48 38 48 17 22 36 37 55 42 53 39 51 56 42 44 38 35 37 28 31 27
20 -15 6 35 55 60 57 39 35 34 32 31 27 39 39 69 51 29 3 7 20 34 39 53 70 67 68 67 62 57 58 55 51 51 56 48 55 46 31 14 15 29 28
48 9 4 27 63 64 44 38 27 25 27 21 27 37 36 38 16 -6 5 13 14 14 14 11 41 81 87 77 63 58 60 62 51 46 56 48 46 49 49 25 17 21 22
64 25 12 48 65 60 44 39 26 24 25 20 19 30 26 11 5 3 -3 -1 8 9 4 5 2 25 41 50 42 46 43 49 52 46 49 45 44 38 43 41 14 11 15
30 32 34 48 47 50 56 48 36 36 34 25 24 11 -9 4 19 15 11 14 18 20 15 14 15 16 20 22 29 33 36 47 50 62 43 39 37 31 26 33 26 23 40
22 26 38 41 29 44 61 49 39 34 32 27 25 0 -25 -34 11 25 3 17 22 19 16 13 17 19 20 23 26 28 26 27 40 34 32 24 32 18 15 15 17 23 17
31 25 34 39 35 45 56 49 43 33 29 26 14 -4 -41 -59 -10 30 20 19 18 16 13 10 8 9 5 0 2 7 6 14 29 29 30 31 30 9 3 0 1 -8 10
51 39 34 32 38 37 68 50 41 33 28 26 11 1 -33 -63 -35 10 40 23 13 8 6 7 11 8 7 2 -2 4 15 24 26 39 44 54 32 13 9 4 -1 -5 -1
40 49 39 40 38 33 82 64 46 32 28 27 14 7 -12 -29 -24 40 31 15 5 1 -2 1 5 3 -3 1 3 7 18 19 31 49 62 77 44 26 19 19 18 18 1
48 43 44 53 66 73 86 81 58 41 35 29 18 20 10 -3 13 23 21 6 -5 -8 -6 -2 6 9 5 10 12 20 27 35 47 55 66 77 42 36 24 20 14 6 4
44 36 53 64 82 97 103 91 71 46 38 25 21 28 17 15 10 11 5 6 3 2 5 11 20 18 16 26 30 36 40 44 42 50 65 62 65 60 51 23 26 25 18
54 54 58 50 62 106 102 100 84 69 56 43 39 29 28 20 19 10 9 -2 1 13 17 26 27 31 39 42 47 50 53 56 62 63 70 88 76 70 66 62 72 63 79
83 83 73 63 68 89 89 103 96 86 70 53 44 33 34 35 31 38 34 24 27 36 37 37 39 47 46 50 60 67 73 87 76 72 74 88 79 78 81 80 95 92 94
107 103 105 103 97 94 117 92 89 90 72 60 53 41 47 50 52 53 51 47 47 44 39 44 58 72 91 83 75 76 88 85 76 70 78 110 114 106 101 111 119 123 122
56 126 140 162 150 125 119 94 91 77 72 69 67 59 67 74 77 66 64 72 71 62 69 84 87 91 93 89 75 71 74 79 82 73 86 139 167 158 144 168 148 181 179
44 49 141 175 194 197 136 103 80 78 80 86 84 86 84 74 77 95 107 108 112 106 102 98 94 88 83 72 75 75 78 85 86 107 119 131 178 192 193 195 207 211 192
32 42 129 179 225 222 166 116 113 104 105 117 96 91 82 90 123 115 88 107 102 101 99 97 94 89 87 85 85 84 94 100 99 141 149 164 169 201 194 179 179 181 180
37 50 89 147 185 213 188 187 177 152 158 186 192 206 187 180 146 121 106 113 101 100 84 76 76 75 72 62 62 76 84 84 120 171 173 167 159 148 156 176 176 165 164
57 79 83 133 183 237 275 268 280 263 269 279 288 287 254 223 168 115 135 116 109 100 92 69 67 56 38 56 64 79 81 96 149 188 186 160 159 141 109 137 138 128 138
110 103 112 155 221 306 381 431 425 384 355 356 352 302 253 228 177 159 165 144 117 97 97 75 87 83 58 41 46 61 74 96 134 164 146 128 140 123 85 86 40 49 111
128 128 137 172 253 388 450 459 417 415 409 429 385 318 300 200 178 176 167 138 106 88 71 81 50 73 63 56 34 66 86 109 119 135 112 89 127 82 63 57 38 65 75
119 130 155 186 270 354 412 449 463 481 453 426 386 337 241 190 182 189 152 125 102 79 84 73 67 35 30 26 12 -3 38 64 132 111 73 114 102 59 58 76 76 84 94
119 142 171 204 274 354 445 531 601 558 500 447 377 284 232 221 208 174 144 114 99 69 55 49 43 52 50 43 48 35 22 39 60 57 117 81 111 61 59 63 57 54 67
133 147 178 224 284 317 371 434 474 470 383 319 296 236 270 226 200 164 138 116 100 74 70 52 55 41 31 47 51 82 77 88 66 70 75 103 71 69 49 61 40 61 64
175 167 183 230 261 287 312 363 445 470 367 348 297 287 268 235 193 155 130 118 105 85 80 84 84 80 58 59 63 73 90 105 108 142 138 102 65 58 41 39 88 30 41
223 208 197 222 237 264 281 313 331 375 321 293 257 258 233 201 169 148 135 120 109 103 105 102 97 98 89 93 91 90 82 91 102 100 121 103 83 47 103 74 62 80 84

GFSSE_con_3kmhel_039.txt.gz
Helicity
-32 -12 -30 8 45 47 54 42 41 44 50 57 67 81 93 87 73 58 26 8 11 19 3 13 19 -5 16 34 55 45 45 51 53 56 65 59 61 70 56 45 43 31 31
20 -2 -15 17 28 32 48 38 36 34 36 39 40 44 38 53 62 22 -4 -7 7 29 39 47 64 49 46 65 60 59 62 44 44 56 57 57 69 70 53 32 29 38 31
38 16 9 20 48 52 44 34 27 19 9 7 14 20 28 42 17 -6 -6 5 7 13 24 31 79 114 112 84 65 63 55 54 43 50 56 51 57 60 58 58 37 30 32
38 21 6 32 57 47 34 28 21 15 10 4 1 7 3 -0 -4 3 8 12 19 21 18 9 29 45 59 62 45 41 41 41 45 54 43 46 45 39 42 45 38 26 28
43 11 9 45 50 43 38 31 20 16 15 16 20 4 5 26 19 10 18 23 27 29 21 15 11 17 20 33 30 32 39 49 58 51 45 43 38 31 25 16 23 22 30
61 21 27 41 38 43 42 34 28 17 11 16 16 -7 -15 -13 10 24 18 23 25 29 30 24 28 24 28 32 34 43 44 48 47 46 43 38 36 26 19 8 6 11 15
38 35 19 27 30 51 47 43 34 22 14 11 11 1 -40 -20 -16 30 29 25 22 25 33 27 25 19 20 22 20 25 26 36 35 36 37 39 38 26 19 13 4 -1 1
40 41 19 24 37 55 52 49 38 25 17 13 6 -3 -36 -43 -17 17 47 26 18 23 29 27 27 20 18 17 14 21 26 26 28 28 34 34 32 21 16 17 11 1 -9
44 44 26 22 29 46 55 56 46 33 21 15 8 5 -8 -19 -25 9 36 19 13 14 12 11 9 9 3 8 13 18 26 30 29 38 41 42 38 25 20 10 5 1 3
44 32 28 30 32 32 46 68 61 52 39 27 17 23 37 18 27 33 31 13 7 9 10 8 8 6 12 20 25 32 40 35 41 43 43 45 35 31 23 27 17 -1 -0
49 33 34 36 37 45 53 56 64 60 47 33 29 41 42 26 27 20 22 16 19 22 21 15 20 25 33 44 47 47 43 45 46 52 56 63 63 59 58 67 60 57 54
33 40 42 37 41 54 65 63 57 58 46 38 41 42 36 29 33 24 25 27 30 23 24 28 31 43 45 49 53 57 61 62 70 67 64 73 67 59 60 67 75 78 83
57 44 41 46 53 58 64 85 76 66 63 51 47 48 44 49 59 47 38 38 40 40 37 38 42 51 61 72 76 75 69 83 80 69 71 89 89 84 82 93 99 102 106
54 45 60 60 66 66 67 82 73 70 68 64 48 52 59 65 67 62 65 62 62 58 55 63 81 91 91 88 74 73 74 77 71 68 80 110 113 106 105 118 123 167 151
46 51 65 82 89 88 94 87 78 63 70 73 66 61 73 73 74 77 84 88 95 84 85 91 91 91 88 79 73 72 75 81 81 84 96 136 144 145 146 164 171 169 147
56 53 49 69 112 117 116 97 82 73 80 94 83 72 64 60 69 94 110 118 113 99 99 89 84 82 71 71 75 81 89 90 85 107 114 127 175 184 189 182 169 160 154
69 61 53 47 90 136 132 115 106 95 102 102 97 74 57 71 85 111 122 103 98 87 95 90 85 80 78 79 80 87 96 96 98 124 134 137 145 193 188 181 169 158 153
68 51 44 70 104 123 157 156 149 136 124 130 135 126 127 135 150 160 138 114 114 96 90 86 73 68 68 65 65 76 78 73 110 135 138 143 149 143 157 193 174 149 130
67 53 52 84 106 143 166 183 183 191 180 177 222 223 227 219 189 195 141 109 117 102 97 73 71 62 59 55 56 73 71 91 134 152 162 145 153 136 125 131 135 99 97
82 69 72 98 123 155 224 259 314 312 306 271 291 293 286 265 213 189 141 117 115 114 97 78 74 67 57 48 40 52 76 91 116 152 158 118 125 133 121 102 68 56 69
109 100 95 124 137 201 262 351 366 375 356 351 359 328 311 283 183 172 129 146 135 120 101 82 62 76 67 49 34 51 68 88 100 118 98 112 126 119 97 88 75 58 67
124 129 126 115 127 176 252 358 412 450 423 436 401 400 281 239 223 176 153 146 121 101 104 105 70 31 28 32 10 -14 38 55 108 71 83 139 98 118 102 109 78 84 82
137 130 145 130 147 220 331 482 505 514 478 445 408 408 279 224 205 180 156 133 121 97 93 78 61 46 38 30 49 27 19 47 80 90 112 113 134 93 80 67 51 52 50
133 161 137 139 183 216 274 355 412 438 396 351 397 387 329 236 217 179 153 134 120 97 82 64 58 52 33 55 34 58 64 73 45 32 59 99 83 71 40 32 31 25 24
174 170 157 165 169 195 238 294 393 439 406 435 425 400 315 244 213 182 149 133 118 98 89 81 69 63 58 45 47 58 78 88 100 99 93 90 65 37 24 10 3 -7 -1
191 192 177 171 179 200 247 302 373 466 435 440 363 305 268 235 206 179 153 133 114 98 90 85 76 78 77 68 60 66 70 75 90 96 109 88 75 35 53 16 30 33 38

GFSSE_con_3kmhel_042.txt.gz
Helicity
25 41 15 7 25 32 50 50 44 45 51 54 54 55 52 49 41 32 14 9 -0 27 -16 -2 -1 -5 6 43 51 51 47 47 47 50 51 55 59 68 62 56 42 36 58
47 38 2 24 26 23 39 43 46 55 54 49 55 56 37 43 41 25 4 1 18 53 53 56 54 -3 -1 55 50 47 49 40 40 45 41 33 50 64 57 41 31 45 43
43 32 12 15 30 24 36 31 38 43 47 44 56 59 68 78 50 9 4 9 16 24 33 47 108 127 112 93 58 59 55 44 34 44 37 40 48 51 42 48 35 27 27
39 31 23 33 43 43 25 19 23 28 35 39 49 52 61 51 23 23 21 20 22 19 22 28 43 62 80 71 57 49 41 42 38 42 32 50 45 58 39 41 39 27 21
34 31 54 54 54 40 27 23 20 21 24 27 35 41 43 47 32 28 30 36 36 39 39 38 47 52 59 60 48 42 43 48 45 21 44 46 44 60 41 33 19 32 17
49 56 104 54 50 37 27 27 25 24 22 24 19 8 36 44 50 45 37 41 45 50 54 56 51 52 45 43 47 40 38 39 21 34 28 40 33 51 29 22 11 12 10
50 61 70 54 51 41 32 33 30 23 17 16 4 -10 18 32 28 50 47 40 36 39 46 45 38 42 33 35 38 37 31 44 22 28 22 25 29 25 14 14 6 -2 -10
53 44 55 44 47 46 39 38 34 27 18 12 3 -13 -20 1 -4 38 47 37 31 30 32 31 26 29 23 26 31 26 27 27 13 23 27 24 40 21 12 10 8 3 -2
44 51 41 33 39 51 47 44 39 31 23 17 4 -4 -3 14 6 54 36 26 20 22 21 21 17 19 21 24 31 30 32 31 22 41 33 32 57 25 16 14 16 1 -1
70 61 55 47 33 27 37 48 44 42 38 32 26 27 39 34 61 75 40 25 18 17 16 20 22 27 29 36 43 45 35 15 34 41 45 67 51 54 65 69 46 51 54
63 56 56 46 35 29 39 58 51 51 48 45 39 48 32 34 42 34 69 47 27 21 25 33 39 44 36 38 48 44 19 50 49 55 58 81 62 63 65 69 64 65 62
55 55 49 37 35 34 45 53 36 52 37 33 32 42 27 42 47 46 49 42 33 27 33 40 47 42 23 45 52 33 50 46 53 59 77 72 71 78 79 81 85 87 76
48 48 37 47 46 32 40 45 57 63 57 52 45 49 53 55 47 44 46 39 40 40 39 39 43 56 70 72 67 60 53 56 53 54 89 81 87 89 101 109 110 152 135
47 38 41 37 49 44 54 43 54 67 67 67 58 61 72 77 74 64 59 62 61 57 59 62 84 79 65 61 55 59 58 59 60 61 93 106 105 107 137 162 181 179 153
74 49 42 35 48 53 54 70 53 51 64 76 82 77 76 79 82 78 78 76 86 95 89 75 76 63 57 57 53 57 60 64 68 78 97 140 141 142 180 192 178 161 154
70 59 52 42 48 57 70 78 82 61 69 89 94 92 86 88 85 78 104 101 103 95 88 70 78 62 66 64 58 58 66 73 78 93 105 124 183 203 205 183 168 158 154
96 87 68 53 44 46 70 87 82 85 97 100 109 95 82 72 72 84 93 87 69 70 68 69 66 65 64 63 56 64 72 80 85 92 105 127 122 190 190 186 172 159 149
124 94 79 60 40 45 69 82 110 140 138 124 127 104 82 94 102 126 120 103 77 90 80 75 69 64 61 49 43 58 59 58 83 97 108 124 138 127 126 162 154 142 128
113 107 96 58 31 38 75 92 117 160 166 167 148 134 129 128 134 152 116 110 82 89 90 71 65 58 52 41 33 44 59 69 90 110 127 131 136 126 117 110 105 87 92
120 109 94 81 58 64 108 123 151 205 233 250 209 172 184 183 183 206 136 124 93 93 78 60 58 59 53 39 29 47 75 82 94 106 122 113 113 113 109 108 98 85 61
148 152 113 107 82 103 141 147 207 324 341 327 291 266 226 248 259 209 136 123 110 100 79 64 61 61 52 45 32 54 65 78 80 89 90 109 127 105 98 108 95 80 83
196 172 160 122 101 109 139 141 166 338 405 437 384 336 277 287 273 227 136 132 119 94 89 84 64 45 47 56 43 29 55 64 88 89 103 108 122 127 129 107 99 97 95
214 223 183 145 121 139 138 220 318 392 460 473 402 387 316 271 245 191 139 128 117 96 89 85 73 57 54 56 66 50 44 85 97 90 101 109 115 127 113 92 83 79 77
173 208 195 163 150 164 195 174 194 310 436 438 393 388 351 259 197 180 147 141 119 99 91 81 72 70 58 66 52 79 89 99 84 71 80 60 121 80 69 68 65 62 63
148 181 179 164 163 162 127 146 162 242 378 487 404 388 372 295 249 195 162 140 119 102 94 78 70 76 79 75 85 81 79 75 80 92 82 100 87 68 50 42 32 23 30
153 155 159 163 156 150 143 142 171 273 374 432 358 391 362 321 220 187 164 138 119 103 86 77 82 86 90 94 89 89 83 82 92 102 100 93 87 59 73 61 45 43 52

GFSSE_con_3kmhel_045.txt.gz
Helicity
58 86 54 40 34 40 32 33 38 44 40 48 59 63 66 67 64 44 32 33 18 34 -7 17 6 4 13 52 51 51 56 54 50 43 40 37 51 56 50 44 36 36 65
73 65 57 40 29 27 26 29 31 37 45 47 48 53 58 62 52 28 23 21 27 55 49 91 57 1 15 62 49 43 48 43 38 39 36 24 34 53 55 49 36 36 55
72 66 43 59 49 34 26 27 26 28 30 32 42 43 66 69 49 33 29 19 35 45 57 75 109 109 57 103 64 59 46 37 37 36 12 3 39 56 47 53 66 48 45
70 61 54 68 76 52 39 29 23 20 22 28 36 68 93 55 34 39 37 37 35 38 36 49 67 102 106 87 60 50 41 39 32 19 27 53 40 70 43 41 45 43 23
48 41 118 80 65 54 39 24 19 21 19 23 33 32 48 50 40 38 41 38 41 42 46 52 55 49 55 63 57 43 40 36 22 3 45 48 22 59 34 30 18 19 27
42 66 136 97 84 74 42 29 21 22 20 15 11 23 32 43 44 43 42 37 38 41 51 59 60 56 52 51 50 38 29 26 8 3 27 41 23 46 22 24 10 2 1
70 153 124 113 94 81 49 38 29 23 21 18 2 16 30 34 49 47 44 45 47 44 51 51 49 44 41 39 38 42 47 25 8 19 28 36 60 36 21 26 19 12 8
88 114 111 96 90 74 56 48 40 31 23 18 1 9 24 33 25 50 49 42 44 42 43 43 36 30 29 23 19 19 20 15 1 17 39 27 59 38 32 33 36 34 13
75 90 88 66 72 83 70 58 48 37 28 16 7 2 13 21 18 50 49 36 34 30 27 23 20 19 18 18 18 18 18 12 1 48 29 61 68 52 56 66 70 69 66
73 73 75 75 70 64 64 63 52 48 43 31 20 34 25 26 26 71 51 40 36 31 27 22 25 25 24 26 27 25 5 -14 8 41 59 80 67 62 68 70 70 70 69
61 63 68 79 73 60 61 67 58 57 50 47 41 44 23 12 41 35 72 60 44 37 38 36 36 24 9 10 27 21 3 31 49 66 98 110 76 71 76 74 75 75 72
52 52 61 65 76 76 88 115 51 57 48 39 40 50 18 47 66 91 74 54 40 41 36 34 25 6 6 28 4 9 35 53 62 61 94 99 73 73 81 89 95 116 121
55 58 57 65 64 91 88 94 73 74 61 40 50 55 40 68 67 47 52 40 36 27 23 18 23 32 75 70 59 46 44 53 55 68 116 104 92 87 102 124 166 165 145
82 70 55 52 65 63 62 73 53 79 99 72 67 62 75 69 67 65 60 79 57 45 68 67 94 60 40 47 51 58 56 58 70 73 125 129 117 134 145 193 173 166 150
98 95 68 45 61 55 47 44 58 82 89 92 84 64 70 74 80 93 98 79 91 114 117 73 59 47 48 54 48 50 55 61 70 73 132 135 135 176 203 195 168 147 136
105 100 75 59 54 55 66 65 44 73 78 148 87 76 78 78 92 102 113 139 120 93 89 65 73 69 58 56 52 51 52 57 68 99 118 156 172 198 180 167 148 136 130
87 94 101 95 73 70 74 79 83 61 97 160 94 96 84 117 107 115 115 90 83 76 76 73 61 59 57 57 48 57 63 71 65 76 102 141 104 140 146 146 135 133 129
114 119 102 124 97 81 71 98 101 57 144 161 110 140 111 96 115 86 124 103 74 79 86 86 77 63 59 48 43 49 59 57 63 80 83 107 128 102 96 120 113 106 107
82 111 136 127 112 83 66 85 53 41 140 184 130 179 124 136 135 120 126 114 82 98 96 85 84 71 48 34 26 44 70 61 83 91 109 110 119 114 117 105 72 72 85
113 109 107 120 118 86 95 98 59 90 194 211 222 214 201 157 173 166 146 135 111 96 91 91 75 58 50 36 24 41 78 81 94 96 101 91 107 101 111 102 102 102 89
205 181 138 166 143 133 131 130 112 190 254 362 274 333 219 234 203 188 189 153 132 105 105 87 68 55 53 44 21 46 56 75 77 93 89 99 110 90 107 114 117 105 103
201 261 245 186 167 166 159 143 137 306 510 509 503 418 360 294 270 237 215 185 155 118 115 96 70 49 49 49 33 9 42 80 74 80 115 121 110 128 119 128 115 109 116
149 203 236 240 202 189 181 176 238 534 540 487 440 471 415 344 302 275 231 198 174 135 122 102 82 78 51 39 64 52 41 79 117 117 122 110 109 137 123 116 101 105 109
112 175 234 230 225 217 210 216 302 421 412 402 439 454 441 370 328 271 223 209 158 140 119 94 85 75 58 66 37 82 102 129 117 116 148 92 132 123 109 111 103 90 82
124 135 190 247 266 271 219 267 323 279 259 401 491 476 465 434 361 291 277 231 179 144 119 96 85 84 77 76 81 83 89 93 96 126 108 114 137 132 122 100 70 75 52
147 205 191 232 262 294 337 235 196 243 361 420 522 522 482 389 351 260 234 198 156 138 114 100 90 85 88 90 90 102 111 119 136 144 135 116 114 98 109 99 101 68 69

GFSSE_con_3kmhel_048.txt.gz
Helicity
99 96 60 48 44 49 45 42 45 45 53 55 57 58 55 52 46 46 54 52 49 33 52 32 17 22 31 59 37 34 66 63 53 48 41 29 33 53 53 52 59 75 61
145 78 53 55 59 53 33 33 40 36 30 41 44 52 61 60 53 39 39 48 56 79 71 84 32 42 65 76 39 51 41 36 38 30 12 14 10 41 44 54 60 48 55
105 89 53 72 86 62 48 36 35 30 25 30 36 45 52 50 42 34 33 44 56 61 71 88 120 125 113 81 54 53 37 29 28 12 21 40 11 45 40 41 47 40 36
106 68 76 89 86 66 54 46 36 20 18 26 28 35 64 38 42 46 41 42 43 47 57 78 114 123 105 74 43 38 30 25 13 12 35 43 51 48 40 31 27 29 30
99 40 85 96 97 73 54 46 37 26 13 19 29 51 42 33 36 37 40 43 49 50 57 63 57 57 51 45 44 36 34 23 -3 -18 1 31 19 46 42 37 28 23 21
50 188 114 98 94 87 67 50 37 27 22 17 13 10 26 33 36 41 40 41 43 44 48 57 47 41 48 45 42 40 26 8 2 9 9 15 48 43 37 40 34 25 14
206 162 127 111 111 91 69 57 46 33 25 12 9 15 24 28 29 31 30 29 32 37 40 43 41 37 39 40 41 38 24 -3 -1 12 39 44 40 38 31 32 36 36 20
187 173 153 149 123 102 76 66 53 40 30 20 16 12 19 12 29 27 26 25 26 28 30 32 32 28 28 25 22 13 3 -9 -16 25 47 48 61 39 46 51 64 74 82
119 139 139 138 114 95 80 73 60 47 33 19 11 11 27 12 -1 42 30 26 30 28 23 22 17 17 20 18 12 6 -2 -5 0 17 89 53 65 64 67 69 75 72 77
171 122 92 126 115 99 87 79 67 57 44 30 32 44 34 16 27 70 46 38 37 37 31 28 25 20 15 12 12 3 -1 -5 16 55 80 66 82 74 75 71 75 79 75
110 106 75 99 103 91 97 90 87 76 61 47 44 46 26 19 54 66 30 50 48 40 37 32 23 11 0 -9 -12 1 19 29 45 92 64 96 89 72 75 82 81 99 118
91 87 116 130 105 86 112 129 98 90 75 57 51 39 -6 4 80 74 75 57 45 39 34 25 13 4 25 26 -8 1 40 60 83 92 73 97 85 83 92 103 133 128 121
91 86 81 145 107 84 149 137 101 102 68 47 54 52 -13 98 128 117 65 55 42 30 29 10 26 30 51 67 48 53 62 72 84 73 92 104 95 95 120 174 150 147 134
105 91 101 111 132 184 172 146 120 117 72 54 65 52 46 123 86 84 88 52 49 58 54 66 79 71 47 39 63 65 72 71 80 85 100 114 107 109 175 167 145 130 121
119 127 144 102 118 188 173 121 111 112 106 93 66 91 117 100 72 56 99 90 107 142 140 130 95 64 67 80 64 57 52 65 80 112 89 135 141 171 175 151 126 107 103
112 146 173 115 133 162 138 122 82 126 126 75 91 102 101 68 47 91 137 166 160 148 146 118 104 99 82 73 66 58 66 78 88 113 98 113 138 146 146 123 111 107 106
121 115 174 159 122 182 133 119 93 124 132 130 147 118 81 88 104 172 191 151 108 131 119 133 117 103 105 78 64 61 70 78 78 95 121 105 95 108 107 103 104 99 94
130 127 144 176 150 181 204 217 92 128 157 168 148 134 90 162 197 223 182 159 134 116 184 147 131 114 96 77 57 44 56 66 68 108 118 127 91 84 85 91 89 85 83
196 156 161 199 216 194 246 248 190 53 161 211 168 150 162 197 215 229 202 186 146 156 146 145 147 111 97 76 47 33 63 60 73 106 133 135 116 122 87 75 72 84 78
133 173 169 245 281 226 220 271 206 93 142 226 221 205 260 292 245 236 206 192 201 190 148 124 134 117 89 64 37 31 64 59 78 94 109 100 105 111 93 97 91 92 109
130 162 187 225 256 240 226 285 264 153 194 280 269 289 345 333 326 284 256 264 211 162 131 130 133 112 100 68 48 46 40 54 59 60 81 76 108 90 89 100 105 87 83
196 227 221 235 293 305 249 262 281 323 431 452 419 441 493 492 371 308 327 301 271 237 197 155 108 102 71 73 48 29 44 44 44 48 96 133 120 135 143 120 105 88 97
149 158 260 281 283 292 324 325 501 509 566 575 625 650 661 623 489 403 372 322 278 242 225 214 155 127 71 53 61 34 51 40 52 102 120 139 119 137 118 96 95 97 106
160 166 138 239 298 319 332 394 437 464 535 553 641 736 706 545 423 386 359 343 322 278 251 188 145 108 80 62 53 63 77 85 81 96 145 161 179 171 135 123 105 111 102
161 156 167 166 208 269 345 391 542 574 582 628 626 689 572 454 410 368 359 353 335 281 229 187 155 123 99 80 74 71 86 88 99 133 112 126 114 99 113 120 113 103 89
126 158 218 167 235 265 333 436 548 604 580 549 553 600 554 503 472 441 374 386 351 271 239 200 138 133 111 102 93 93 94 105 128 157 166 148 123 105 130 108 97 91 90

GFSSE_con_3kmhel_051.txt.gz
Helicity
59 53 62 53 67 64 57 69 70 65 70 70 75 81 82 84 86 80 69 62 41 63 38 23 39 50 57 67 51 41 59 63 56 57 63 56 49 49 48 59 51 41 49
83 44 56 59 79 76 67 66 61 58 56 60 60 52 59 47 41 49 45 52 73 58 49 42 55 49 75 62 33 45 40 38 40 39 35 26 14 37 44 45 52 40 45
104 58 52 69 78 86 65 74 70 61 50 45 51 54 55 47 39 32 44 47 49 52 69 64 83 82 79 75 34 47 29 22 30 29 15 13 20 45 48 42 50 41 35
129 81 70 71 83 85 76 69 58 52 53 48 54 61 52 38 38 35 25 24 32 46 54 70 90 101 81 53 33 36 20 23 22 20 29 16 22 56 50 36 29 27 31
131 73 72 80 79 78 76 68 62 50 43 43 53 89 42 33 26 22 22 25 27 45 56 64 77 67 56 40 29 27 25 22 9 13 17 41 35 43 43 37 27 17 15
112 101 85 83 91 96 73 67 56 49 42 40 60 42 28 26 24 20 22 25 32 35 53 48 44 47 37 32 29 24 20 6 3 34 20 47 26 38 34 28 31 27 19
119 103 86 88 105 100 73 77 60 51 41 28 14 25 23 23 22 20 21 26 31 34 40 40 29 24 30 33 29 22 15 4 28 36 18 35 23 36 25 24 62 71 70
128 97 91 107 108 97 79 72 64 62 43 36 25 24 32 32 27 20 17 21 28 27 28 28 26 27 26 23 19 18 11 9 32 66 35 30 50 55 64 66 66 66 71
184 149 136 116 112 106 94 69 55 51 42 36 32 35 27 33 37 24 18 15 17 17 14 15 15 17 19 18 13 13 16 19 49 38 51 39 52 58 69 67 76 79 73
175 172 180 164 134 118 93 76 59 53 41 37 34 44 40 28 28 44 25 17 16 13 12 15 20 21 18 18 19 26 32 38 51 71 54 64 84 69 62 70 75 86 113
157 136 150 171 163 134 115 87 84 80 63 55 49 45 35 27 56 62 37 32 27 22 19 17 23 23 24 5 23 52 67 68 86 72 52 77 75 73 77 74 104 108 107
145 124 125 139 139 129 117 114 109 98 81 69 65 38 24 30 53 55 42 43 39 30 23 23 34 37 27 17 34 49 66 86 71 71 69 90 82 81 96 134 127 117 115
153 139 142 117 86 116 139 149 140 123 107 79 61 36 45 32 60 60 55 40 34 34 31 36 47 50 55 51 52 65 77 84 70 77 81 95 99 100 149 132 121 118 113
115 136 156 144 106 117 166 167 136 120 117 94 61 32 84 83 98 87 56 37 36 41 55 46 50 73 80 89 73 73 74 87 70 75 91 96 89 118 163 129 109 102 96
120 116 179 159 154 193 205 146 148 126 126 82 77 41 91 88 85 94 63 52 42 65 55 90 94 112 111 106 99 76 74 87 88 80 78 119 131 144 130 113 99 101 93
135 186 156 192 186 228 217 171 160 128 107 81 111 46 73 78 82 79 78 85 82 93 119 127 148 148 127 103 104 89 87 92 89 82 79 98 120 122 111 104 99 95 93
123 149 221 198 277 254 241 196 169 140 127 101 120 110 104 105 76 103 119 156 148 157 197 182 156 158 169 120 101 86 81 81 96 96 93 98 104 109 99 95 92 91 85
167 117 159 190 253 285 260 224 195 178 165 146 159 138 130 104 115 172 202 181 164 182 184 178 162 146 145 141 91 73 70 71 81 110 93 99 87 85 90 92 91 94 86
173 172 131 182 237 248 253 285 246 229 196 164 195 190 170 174 222 265 245 214 220 222 196 156 153 139 141 120 88 78 62 63 71 98 104 89 76 78 68 70 89 102 98
106 179 200 152 192 302 293 248 240 277 201 172 182 235 221 281 304 303 257 253 259 265 212 171 162 173 141 110 84 85 61 55 54 68 77 79 82 100 91 92 95 77 87
120 88 132 199 189 403 420 412 327 271 249 233 190 271 288 366 356 314 283 292 270 267 209 174 161 154 159 122 97 90 78 60 42 39 52 82 84 87 101 101 71 66 66
120 119 148 171 221 299 405 376 376 336 283 282 233 326 396 449 463 349 311 311 298 304 246 195 185 182 182 149 98 75 91 74 46 36 59 76 97 116 107 94 81 74 65
123 113 131 169 158 306 453 588 629 589 475 401 394 487 510 504 530 424 348 363 343 315 262 212 192 197 172 146 116 87 90 61 67 72 82 99 139 147 147 127 97 75 74
103 114 96 121 145 195 335 483 525 518 493 422 544 566 590 566 598 460 417 394 372 330 296 253 220 200 166 124 123 116 106 96 78 84 107 142 173 177 138 102 98 109 97
120 129 130 102 148 151 229 312 436 555 562 576 648 653 646 659 644 533 448 408 399 349 287 268 259 225 183 132 106 93 100 104 118 123 102 126 149 129 120 141 108 117 126
134 110 119 134 132 171 181 332 455 591 617 616 624 656 675 650 625 534 488 438 409 373 283 265 281 248 205 157 112 100 96 99 108 132 120 118 107 91 124 117 117 127 132

GFSSE_con_3kmhel_054.txt.gz
Helicity
40 1 34 48 61 65 69 83 94 103 107 112 120 127 126 122 118 113 105 104 99 70 49 54 50 58 56 48 31 39 61 68 71 77 78 67 63 61 58 51 52 49 51
55 37 37 46 61 63 70 75 84 98 87 80 86 95 93 97 95 79 60 69 60 29 18 62 58 68 58 40 49 55 45 43 53 43 38 39 43 55 59 58 44 45 48
88 53 43 47 50 76 90 88 92 81 68 66 59 60 60 55 48 46 49 49 39 31 52 49 46 56 51 41 29 28 25 30 40 42 30 37 37 58 55 47 39 38 34
99 64 52 63 51 62 85 77 85 74 67 61 60 63 47 41 35 28 25 31 30 39 44 49 55 74 72 42 31 20 28 40 51 53 49 33 36 69 55 33 23 29 31
115 84 65 53 58 60 72 66 71 72 70 71 82 66 40 34 31 24 22 22 27 34 47 49 71 64 46 30 21 25 37 41 48 40 44 26 40 41 46 41 27 21 8
136 113 92 63 57 69 73 70 60 62 56 42 71 59 35 30 27 24 22 23 25 34 35 42 42 36 32 28 26 31 37 44 46 28 37 30 27 32 20 25 32 16 6
164 129 93 65 61 69 70 72 66 68 65 80 71 44 31 32 30 25 19 15 19 26 27 28 29 29 27 31 35 42 45 57 39 24 35 20 13 30 13 54 53 53 69
146 132 81 65 69 66 63 70 71 70 66 64 51 50 47 37 28 26 22 16 14 14 19 24 25 24 24 29 30 27 38 57 47 37 20 19 43 40 52 60 65 71 69
128 122 77 78 81 73 70 74 71 65 69 61 63 58 54 43 30 24 17 16 13 16 16 19 17 17 22 21 27 36 58 68 48 37 36 30 53 56 54 60 60 47 72
121 107 108 104 99 99 84 75 70 61 60 60 55 59 59 56 40 33 19 9 13 12 12 13 19 25 27 33 50 69 76 59 57 58 54 58 79 59 63 64 68 101 104
147 136 138 154 145 132 111 85 79 70 60 65 72 70 61 40 32 41 22 18 20 17 16 21 25 29 28 39 65 100 80 65 83 73 58 70 69 67 70 96 118 113 107
148 140 155 161 157 148 126 113 98 82 71 69 68 57 54 36 51 48 35 30 28 23 24 33 35 30 30 37 67 89 81 85 90 81 62 81 75 81 122 132 116 119 115
160 155 138 143 150 165 153 135 119 115 103 86 71 65 66 53 55 49 38 29 28 26 33 37 47 48 52 52 81 98 91 86 79 78 85 98 97 109 133 122 121 119 111
175 172 158 139 152 153 168 171 140 132 117 104 73 76 88 77 68 55 42 41 39 35 38 42 54 74 95 108 102 102 81 71 73 79 84 95 91 164 156 106 110 108 98
171 160 175 156 145 167 176 160 161 140 131 105 99 93 93 85 84 67 40 52 46 54 44 45 59 90 107 123 116 110 92 80 77 75 81 120 154 158 139 119 112 102 90
158 183 197 184 164 192 177 169 167 129 105 99 110 110 90 87 94 88 64 47 56 59 58 82 106 117 130 113 122 116 116 95 83 82 84 102 127 132 126 117 106 97 94
141 226 266 222 213 216 205 185 173 159 124 126 92 97 98 86 96 88 80 73 78 95 132 159 159 162 159 138 133 110 104 93 84 88 91 99 111 115 108 106 102 97 98
165 172 204 257 249 253 248 220 210 166 145 144 113 95 105 98 111 114 126 121 153 176 183 186 183 176 154 133 121 113 99 84 86 88 88 85 79 83 90 95 92 97 107
149 178 193 257 276 263 265 264 232 207 194 173 168 156 132 129 147 191 179 194 195 213 191 202 184 151 136 125 107 106 98 88 80 81 74 68 57 63 63 81 95 103 102
60 134 172 209 244 235 299 314 277 270 225 224 186 205 183 189 233 227 238 262 252 256 239 218 192 176 139 117 120 125 105 93 78 66 61 62 62 65 71 76 87 84 95
55 65 166 186 242 296 350 351 351 271 251 232 243 235 239 276 271 269 302 329 291 276 246 230 222 177 156 133 153 147 117 105 89 70 58 65 71 82 87 86 83 87 80
115 123 105 175 205 316 324 372 447 346 316 266 284 258 243 319 349 322 352 349 315 312 284 244 217 190 166 169 171 175 149 118 113 99 90 88 98 120 128 118 95 80 80
103 110 112 125 173 195 271 374 561 581 461 434 322 290 276 336 465 396 377 414 389 356 290 247 220 189 191 199 205 169 152 104 97 111 126 141 145 159 154 144 118 115 102
78 95 111 126 127 149 230 357 379 395 458 388 364 393 401 358 469 418 433 450 406 374 317 277 237 208 204 197 205 197 175 139 112 111 118 140 173 172 157 124 129 127 145
137 145 156 129 132 149 196 260 332 380 433 544 526 471 470 469 430 474 462 504 456 420 382 326 279 241 209 205 204 192 173 165 153 149 129 135 154 157 137 151 141 177 186
87 113 153 183 162 124 177 227 266 407 495 526 531 532 532 536 498 467 498 515 491 454 424 326 285 265 231 252 194 214 178 141 125 133 137 137 138 138 166 161 176 183 173

GFSSE_con_3kmhel_057.txt.gz
Helicity
-2 -19 19 27 51 51 58 79 95 110 116 107 117 137 146 151 145 139 124 114 97 74 66 61 56 47 48 39 33 46 64 79 86 86 83 76 71 66 53 47 59 41 48
28 -3 39 23 32 41 57 66 98 93 113 98 95 100 103 100 95 93 85 84 65 39 37 42 56 56 55 53 49 53 55 58 67 58 57 55 53 55 53 51 45 42 44
62 35 43 31 21 36 57 66 74 102 95 85 83 86 80 70 61 58 65 54 28 16 41 26 34 42 50 31 29 34 40 50 50 48 48 41 36 54 46 48 44 38 29
72 48 39 49 23 57 54 62 61 82 70 68 67 58 52 50 42 34 33 32 34 28 34 14 -7 18 59 28 25 23 43 48 47 51 37 29 21 59 52 42 31 26 26
92 76 57 69 53 51 54 54 55 50 63 63 65 49 41 37 36 36 33 27 30 41 51 38 63 85 49 40 24 28 47 39 35 32 26 27 21 39 49 45 32 15 3
101 95 79 78 55 43 44 51 55 51 55 75 76 61 44 34 31 32 32 33 33 48 36 54 57 40 34 28 23 34 41 28 20 12 14 12 31 29 30 44 76 58 14
122 111 90 75 61 49 43 46 53 42 50 71 91 61 50 47 36 33 28 26 29 25 25 31 32 30 25 18 24 39 39 34 24 18 17 29 31 44 70 62 58 69 59
135 122 108 90 60 54 33 42 42 58 49 78 82 61 55 50 44 38 30 21 14 12 10 10 11 18 21 20 28 50 46 45 38 20 15 18 27 57 60 63 66 67 86
122 128 113 89 61 60 54 50 48 58 52 82 68 63 62 58 52 44 37 26 17 10 7 7 8 11 20 33 57 69 64 59 41 33 26 28 63 62 63 60 58 85 101
108 112 104 89 82 81 69 58 59 60 57 61 67 79 78 67 53 48 35 25 23 19 15 14 16 20 35 56 74 70 57 62 62 54 52 48 69 69 62 70 104 118 112
102 93 107 106 97 106 95 72 75 75 71 72 74 81 77 56 49 47 36 28 26 21 16 17 22 32 49 65 75 75 65 57 72 69 57 56 60 71 74 107 112 121 118
97 87 103 112 104 128 108 100 95 88 84 74 81 80 71 57 50 49 41 32 33 27 23 30 35 43 62 66 62 78 73 83 82 70 54 57 62 79 119 112 123 118 109
139 116 101 112 103 140 134 134 120 104 95 91 89 89 79 66 47 49 43 29 29 29 29 36 50 54 53 71 75 89 91 90 77 72 64 66 62 114 105 98 109 107 96
163 151 131 130 130 141 153 157 137 124 106 98 90 96 101 82 71 69 53 39 37 37 45 52 56 66 87 112 96 93 90 85 78 71 66 77 82 143 135 77 87 98 93
159 159 151 155 172 160 168 167 159 146 134 95 97 105 118 100 88 84 57 55 49 55 54 64 68 84 109 130 120 100 88 78 72 70 76 112 155 141 114 101 96 91 89
181 156 177 166 178 188 185 178 169 158 142 117 111 115 120 114 106 94 69 58 61 55 64 74 83 106 126 130 145 121 100 88 82 79 88 110 138 124 112 102 93 88 90
221 187 186 192 198 198 198 197 182 162 148 137 118 117 127 126 111 100 84 77 64 68 90 103 133 143 149 141 139 119 112 98 88 92 93 106 120 120 106 98 96 93 93
255 240 209 213 212 229 241 235 195 156 144 142 115 116 112 119 118 115 113 93 92 94 114 151 170 176 153 127 118 113 109 97 84 89 93 90 87 95 92 92 96 99 99
216 224 240 236 220 228 265 280 230 187 167 169 125 126 120 125 142 145 124 119 145 155 177 200 191 159 136 129 125 120 109 100 85 86 82 80 76 80 76 84 93 101 102
155 185 185 220 223 263 301 295 241 224 181 199 169 135 159 150 171 171 163 174 216 233 226 214 201 176 136 131 137 126 124 124 112 94 77 86 81 89 101 100 100 93 99
173 170 200 216 192 276 356 310 255 226 255 226 188 171 197 195 202 205 214 222 265 275 224 237 221 178 165 146 151 138 137 135 130 113 100 98 106 107 119 124 114 103 101
127 188 163 158 141 240 292 307 354 295 258 253 230 217 225 236 246 253 264 257 281 321 299 282 251 234 197 164 148 157 139 143 160 147 129 117 117 128 151 156 145 130 114
98 143 195 156 137 160 209 298 430 461 434 361 303 211 222 299 291 295 265 320 323 325 342 301 286 257 246 206 166 173 174 139 148 158 160 154 150 171 181 174 162 150 136
74 102 116 145 163 175 176 312 329 368 369 367 309 239 268 341 372 363 330 340 382 416 406 338 300 304 287 243 225 205 214 191 170 155 162 161 176 184 191 170 159 163 189
100 121 112 123 137 128 129 201 281 319 329 405 439 358 409 415 371 392 401 394 409 439 408 376 333 299 301 268 250 219 225 233 201 222 163 158 158 147 160 169 164 202 239
99 94 127 164 163 151 152 179 207 234 363 407 425 423 429 448 447 425 429 412 381 396 412 400 331 282 309 283 263 242 216 212 206 228 212 177 159 164 171 175 209 229 241

GFSSE_con_3kmhel_060.txt.gz
Helicity
-6 -6 3 26 19 13 28 49 76 94 109 111 124 134 134 128 115 108 109 115 104 82 63 55 43 40 49 51 52 60 73 86 93 80 74 74 61 60 50 55 47 38 52
49 25 32 27 24 21 27 43 70 90 99 92 96 109 113 108 100 84 81 72 61 46 37 41 39 35 45 48 60 61 58 65 60 56 54 47 46 46 50 41 38 38 45
68 38 32 51 26 9 18 46 67 61 80 77 66 75 84 84 73 62 61 45 19 8 20 8 21 42 47 39 29 28 37 35 35 34 41 29 25 44 41 39 33 30 23
87 48 45 42 30 12 31 51 51 44 66 61 48 55 65 61 57 58 54 38 44 30 25 -1 -5 27 60 34 21 28 36 39 40 38 31 25 7 55 41 33 26 19 17
102 58 43 32 45 29 34 45 45 69 55 56 57 50 45 46 40 42 43 37 28 33 20 -30 -1 56 47 48 39 36 35 30 31 28 23 15 6 29 47 41 26 17 18
103 83 66 57 67 45 44 46 45 55 57 49 59 43 37 41 42 44 42 28 39 69 65 49 71 60 47 44 44 37 24 19 14 11 9 8 9 18 41 57 70 71 39
88 97 92 76 73 41 29 35 27 38 42 68 63 51 40 40 40 43 39 31 36 39 25 34 42 40 35 33 39 26 19 12 3 -2 2 18 24 71 59 64 68 82 91
68 100 84 65 61 45 34 41 34 36 43 75 74 51 42 42 44 45 42 35 33 26 20 22 21 19 22 23 22 17 17 18 17 11 5 15 26 54 51 52 59 77 94
66 108 92 73 63 50 37 37 37 47 31 42 61 47 50 44 42 44 42 36 28 25 19 17 14 19 24 30 31 33 35 44 42 26 27 26 46 57 51 62 86 100 89
78 95 97 82 82 64 61 53 49 62 44 71 59 59 78 59 47 47 38 32 32 25 21 21 24 32 43 46 44 45 53 64 58 53 43 27 53 56 56 82 100 96 94
79 85 93 97 79 72 78 61 64 67 62 69 62 84 89 57 47 51 40 29 29 28 24 26 33 44 60 61 59 60 65 62 63 58 48 45 55 52 89 82 104 106 98
63 46 58 72 79 77 92 91 85 77 81 83 84 89 87 69 57 54 47 39 33 26 25 30 41 57 61 54 61 75 71 76 75 63 48 51 57 103 103 99 103 102 97
53 43 57 84 95 101 101 104 103 94 99 95 96 91 88 83 73 66 56 46 46 38 37 47 64 62 51 60 70 80 86 84 74 63 56 54 64 114 119 86 97 96 91
81 72 77 86 114 117 124 120 119 115 107 104 104 104 111 95 80 70 64 62 62 61 58 61 65 69 62 82 87 95 92 82 73 64 57 60 83 140 113 83 93 96 87
90 83 81 85 131 137 150 141 145 122 118 104 114 114 122 107 85 82 76 77 73 76 70 74 77 83 88 96 96 94 93 86 76 69 68 107 162 139 104 96 87 83 81
116 90 105 114 155 164 161 167 158 139 128 122 120 126 127 123 105 93 92 80 79 76 83 88 86 95 108 103 106 100 98 93 83 82 87 113 143 119 100 93 91 87 82
129 160 162 179 189 187 177 172 161 157 151 136 124 127 143 140 123 109 106 98 80 82 92 112 115 126 139 135 127 118 108 94 87 89 99 122 134 127 101 94 92 95 93
158 182 197 204 198 214 205 213 194 194 178 156 143 130 133 144 137 122 116 100 101 107 110 129 144 158 155 134 123 114 110 100 93 94 100 105 105 114 107 99 97 95 99
138 151 175 218 233 235 233 241 222 197 193 173 155 142 131 146 136 142 122 101 136 133 138 171 177 175 161 144 126 120 115 107 90 101 107 109 108 108 112 118 124 118 108
143 155 172 225 218 238 263 243 210 196 183 190 153 146 146 150 149 153 136 137 168 179 181 200 217 205 160 152 157 137 115 98 104 105 107 103 110 112 113 145 145 121 129
150 201 205 243 229 279 283 244 210 187 192 187 192 169 193 167 185 143 150 160 200 216 200 217 248 217 200 185 192 154 133 123 121 120 127 132 126 128 133 131 126 115 114
148 155 194 208 224 274 288 272 271 206 193 196 214 216 227 225 226 202 187 189 217 242 248 276 291 267 223 183 178 179 136 135 153 165 161 143 140 150 145 156 145 142 131
124 131 137 115 157 244 273 312 404 352 312 234 212 221 230 253 271 231 260 256 231 259 267 293 309 294 278 214 188 180 162 133 153 166 171 166 170 176 180 174 171 158 148
130 124 142 135 118 156 215 297 302 292 279 275 265 242 266 328 293 288 284 277 287 293 299 355 366 339 270 232 205 193 240 204 177 167 184 186 182 191 199 191 177 169 163
167 145 146 142 151 136 174 196 222 230 258 298 261 244 273 336 328 325 300 336 345 344 353 369 383 345 294 276 279 232 249 258 251 257 218 179 181 171 175 179 173 169 180
169 170 164 157 145 155 163 174 190 182 257 311 312 309 334 366 392 362 338 332 369 384 389 381 369 334 313 280 291 277 267 272 261 273 296 259 234 200 205 175 174 172 186

GFSSE_con_3kmhel_063.txt.gz
Helicity
19 24 5 4 -15 -20 8 28 47 56 66 68 77 90 102 104 105 103 100 86 72 60 39 39 36 43 45 49 51 58 76 92 86 80 77 65 46 38 46 46 38 39 48
65 37 18 13 -7 -20 14 28 43 61 85 73 75 89 89 88 89 95 91 81 65 38 30 38 33 41 46 45 44 49 55 63 67 62 51 39 32 45 42 36 23 34 36
63 42 28 23 3 -9 10 41 43 68 79 73 68 76 80 75 69 72 70 49 31 21 -1 21 35 49 37 32 23 26 31 33 29 34 29 25 31 36 35 24 24 27 28
71 51 32 39 21 -1 14 45 42 48 58 66 57 55 62 56 55 60 44 26 18 7 -4 -18 35 52 21 16 20 23 32 37 31 26 21 28 40 46 27 23 22 22 16
60 49 36 43 27 13 26 22 22 56 59 46 36 36 31 27 32 34 30 23 21 32 -8 3 31 69 41 26 37 28 24 22 18 14 19 12 11 26 29 25 13 16 15
69 55 52 41 35 37 34 23 31 35 37 44 39 31 22 16 23 31 20 22 77 40 18 38 77 70 45 38 34 20 11 10 10 15 21 17 7 10 44 69 53 49 60
75 58 50 56 45 49 44 18 16 26 33 42 44 37 18 22 26 30 10 17 53 70 68 60 59 53 44 36 30 12 13 11 9 16 28 42 39 62 61 57 70 91 103
57 63 61 70 57 47 39 17 -4 21 20 54 47 30 24 23 27 29 21 26 21 43 39 38 37 35 30 28 24 18 16 19 14 12 16 29 42 47 48 58 84 89 93
59 59 59 51 49 36 28 25 31 25 36 56 52 41 40 33 23 26 25 23 22 26 21 28 31 31 30 30 30 31 31 36 25 18 23 28 50 48 64 84 97 91 83
62 52 54 51 47 41 42 47 36 37 31 43 49 55 73 54 33 29 23 17 14 20 21 20 26 32 34 34 31 33 40 43 35 35 35 38 51 46 76 83 99 89 89
52 38 59 62 50 54 51 45 57 60 37 61 71 83 75 46 44 44 35 34 36 27 28 33 38 49 52 49 40 38 39 36 43 46 42 40 43 71 75 87 90 84 87
40 25 47 48 52 59 57 48 53 61 50 56 63 72 63 63 58 55 54 54 53 50 42 45 51 61 43 36 40 48 44 54 56 52 47 38 47 90 77 75 80 79 81
40 49 33 27 33 52 54 63 69 73 68 69 71 83 78 84 78 69 68 61 60 58 55 58 60 47 44 41 48 58 68 67 61 57 58 51 84 120 81 70 74 72 73
41 36 43 46 46 51 65 71 70 76 73 74 77 86 94 93 84 76 76 74 73 68 69 69 67 60 50 57 65 72 73 73 71 65 61 57 97 140 77 70 76 70 61
57 46 50 61 47 57 71 75 76 74 72 72 83 82 88 88 81 82 79 80 84 85 80 82 78 76 72 76 79 79 82 83 85 76 68 86 177 139 94 86 73 65 59
76 65 84 77 73 66 82 84 72 81 74 88 88 88 85 88 86 85 81 84 87 86 91 88 83 85 89 87 94 93 95 93 86 84 87 100 150 117 98 85 70 63 60
80 80 71 82 100 88 99 103 102 91 83 93 93 89 97 92 88 89 86 88 85 91 99 106 108 106 108 98 102 102 102 106 104 101 100 110 115 124 103 96 87 83 72
89 77 78 114 134 142 131 144 132 110 99 96 96 101 103 101 94 92 95 86 87 104 108 115 125 121 126 117 118 117 111 103 96 98 101 110 123 123 126 110 97 88 89
118 99 91 97 119 158 131 160 149 128 126 123 128 116 106 103 101 102 99 82 93 114 115 128 146 143 139 127 127 121 110 103 96 90 90 112 126 133 128 127 128 124 122
131 127 135 147 130 136 168 169 180 182 153 158 157 135 130 115 117 110 95 81 111 130 141 149 158 165 148 155 145 129 121 111 100 84 94 117 129 129 131 129 130 133 127
154 173 161 193 162 204 238 219 174 200 185 161 156 128 138 147 142 119 115 91 121 148 160 146 192 176 199 194 188 143 124 122 110 107 119 126 137 140 136 139 134 124 117
164 167 183 194 211 241 268 233 239 174 174 164 155 134 133 146 174 168 150 152 141 169 167 194 238 260 234 208 202 185 125 111 120 130 147 151 154 159 155 154 152 141 140
142 143 169 187 182 211 255 275 291 274 244 188 171 163 162 188 224 218 202 209 193 202 223 234 254 271 304 237 233 218 179 133 131 137 142 154 164 176 185 181 179 175 162
178 181 172 156 186 181 188 249 276 275 225 224 214 194 173 186 216 237 237 249 251 261 254 274 288 304 349 324 277 203 218 211 189 180 146 157 179 177 198 198 203 199 186
216 198 178 173 150 154 147 133 177 197 241 252 243 184 196 217 212 228 237 277 291 322 280 313 325 314 333 329 360 315 235 238 250 255 177 210 203 221 239 221 223 206 206
168 173 186 202 196 183 171 143 129 129 145 181 202 188 180 211 248 259 276 273 280 302 313 339 346 318 336 326 304 297 302 285 269 289 295 249 256 235 253 228 204 189 203

GFSSE_con_3kmhel_066.txt.gz
Helicity
35 56 43 13 2 -1 13 29 35 54 60 59 65 73 80 84 83 76 58 47 46 34 29 30 31 38 35 34 41 56 71 76 73 64 59 49 42 47 43 38 22 48 62
59 54 36 7 2 -8 8 18 35 49 63 60 57 68 73 77 75 70 55 49 40 26 30 24 26 32 32 25 26 36 46 55 58 47 28 29 43 38 35 34 44 47 40
67 52 33 17 1 -16 3 16 36 53 62 68 51 50 67 64 63 60 46 35 27 15 11 36 48 30 28 29 20 28 31 29 29 17 -18 28 36 29 30 28 29 25 22
72 46 37 18 6 -2 -5 8 46 57 60 55 48 42 42 41 36 44 31 11 2 2 -6 36 60 32 12 15 13 25 28 23 20 0 24 39 39 27 25 20 16 15 2
60 33 46 26 18 23 14 7 26 45 50 48 45 35 30 27 33 32 24 14 10 19 1 18 64 44 21 23 21 27 29 26 15 13 30 27 22 29 17 9 16 14 0
49 31 66 36 25 31 19 -1 7 26 44 41 37 26 6 9 14 16 18 18 36 27 17 38 70 47 25 24 25 21 19 15 -12 22 21 27 23 28 42 53 53 62 82
46 52 41 47 33 28 30 21 17 25 38 29 30 17 -1 -2 10 12 -6 34 34 43 56 68 48 39 24 26 22 13 3 -13 0 15 29 33 47 57 54 63 80 90 79
48 55 56 47 38 22 30 11 -3 15 38 36 36 29 8 2 9 4 -7 31 41 44 58 48 32 25 21 25 18 14 10 -8 1 18 22 43 43 37 46 73 71 72 76
43 42 47 43 43 43 37 15 21 5 47 60 44 27 26 24 15 7 6 1 11 35 38 32 26 23 24 25 23 23 20 -3 15 25 23 38 35 47 70 80 77 80 77
40 39 42 42 40 33 31 33 43 37 43 64 49 55 64 55 30 17 2 18 25 21 27 27 23 26 31 34 34 34 30 3 21 23 25 48 30 53 70 72 80 67 69
37 32 45 44 41 42 41 51 56 55 60 39 66 88 61 24 32 45 33 39 32 42 37 31 34 47 49 48 41 39 18 19 24 26 30 50 39 75 73 73 74 63 62
38 41 39 46 53 47 51 45 23 39 20 28 53 50 26 43 49 48 63 57 57 54 51 50 55 53 15 36 42 36 18 32 35 39 55 39 58 78 72 68 67 63 63
29 37 37 39 44 53 56 48 43 41 39 36 32 38 44 61 69 58 69 62 57 49 49 45 56 32 35 36 39 39 39 46 48 55 80 66 84 93 73 63 65 66 63
33 35 29 33 30 27 43 40 41 45 50 48 45 41 56 63 68 67 66 71 69 68 68 55 55 54 50 47 45 52 52 56 55 58 78 83 98 107 74 62 65 63 64
68 45 35 34 36 29 36 41 41 43 52 43 47 44 60 64 62 69 71 77 76 80 77 73 68 67 57 60 64 70 73 72 79 73 69 74 142 122 85 73 64 57 54
75 62 44 42 52 43 38 37 45 45 46 49 50 49 49 60 61 69 72 76 85 85 86 81 79 79 78 74 80 80 75 83 87 87 87 102 159 122 92 76 65 61 55
73 68 66 54 59 59 38 44 42 50 52 55 56 49 50 54 58 69 73 84 83 90 87 91 96 91 94 96 89 86 83 88 90 86 83 93 97 131 102 87 79 79 71
96 95 76 67 62 58 62 60 69 77 66 61 60 65 56 53 60 75 90 94 83 94 98 95 96 102 100 102 109 107 107 97 88 84 81 83 83 87 113 102 92 84 81
105 88 80 66 61 66 74 104 101 93 83 76 74 69 65 59 66 81 91 95 92 103 105 95 97 100 116 113 121 122 116 105 99 103 88 88 88 96 98 140 130 119 102
109 108 96 90 74 67 101 136 166 160 123 93 90 92 91 92 85 95 89 80 100 119 107 109 107 116 111 122 134 131 123 114 110 105 102 92 97 109 107 118 125 127 132
152 161 142 125 91 107 150 185 186 185 166 173 155 93 93 101 95 98 99 87 95 115 120 120 119 135 155 163 169 159 132 113 108 112 113 104 114 120 123 127 125 131 132
147 155 172 175 155 150 172 166 161 153 175 153 147 123 106 91 92 125 113 120 112 117 124 139 159 191 167 188 190 177 169 138 123 121 127 122 119 136 142 143 138 138 143
167 190 211 210 202 199 184 197 217 224 221 197 206 168 136 118 106 117 124 151 154 159 183 177 196 201 239 203 208 224 237 187 184 156 138 139 141 155 151 158 165 161 163
199 199 199 218 222 227 223 243 242 253 263 253 209 167 149 118 141 122 123 144 177 235 235 254 275 249 253 266 276 235 282 295 201 181 165 139 154 153 169 192 183 190 191
217 225 198 177 176 171 173 176 174 159 162 157 156 159 137 131 139 155 153 152 177 220 208 257 320 297 314 282 323 356 259 247 249 274 219 212 203 207 185 221 213 212 201
151 145 147 156 168 196 193 180 149 121 116 135 131 131 133 145 166 158 187 196 215 239 206 248 266 291 335 323 298 314 346 336 314 292 272 296 211 202 240 283 267 280 224

GFSSE_con_3kmhel_069.txt.gz
Helicity
52 73 66 51 26 18 24 30 36 48 46 41 51 55 58 52 44 39 34 28 29 24 30 28 34 35 34 29 34 41 52 58 56 44 38 41 40 41 47 50 18 58 74
86 64 61 46 19 11 13 26 43 45 55 50 50 52 58 52 44 37 34 25 28 22 23 21 28 33 33 29 30 34 41 46 40 23 13 27 28 38 42 47 89 48 49
82 73 49 41 9 9 -2 14 34 38 45 50 52 33 38 35 30 26 22 19 12 5 22 30 27 26 28 23 25 30 31 30 12 -20 -29 24 30 28 31 30 31 29 25
83 65 42 38 9 13 1 21 40 38 43 54 51 38 34 26 22 25 12 5 4 -5 11 44 35 19 15 8 15 24 23 15 -4 -9 2 32 37 21 22 26 26 16 6
77 45 72 40 2 21 11 17 30 30 40 44 39 39 32 25 37 21 4 9 -3 8 17 44 44 29 20 10 21 27 18 -0 -9 -2 28 45 32 22 17 4 17 4 -3
78 53 77 55 24 34 16 12 17 28 37 42 37 31 18 14 15 9 -1 16 44 43 29 54 53 38 24 15 22 19 6 -17 -27 27 29 33 51 24 36 54 58 78 80
53 102 68 68 50 38 31 21 15 26 35 32 36 20 -1 -0 10 22 22 37 25 34 51 61 46 35 24 20 23 13 -7 -20 -26 31 47 48 45 49 55 67 72 62 69
76 73 76 73 62 36 36 24 8 18 25 26 25 29 2 3 6 16 17 40 46 60 64 48 36 25 17 21 19 15 -2 -25 12 27 42 31 22 35 60 57 64 63 64
89 68 65 54 57 37 36 25 16 8 38 40 49 35 33 26 14 15 21 42 54 53 55 44 32 26 22 27 23 20 1 -19 -10 30 78 37 48 70 77 71 70 72 70
48 62 37 57 55 52 44 38 28 27 37 47 60 64 60 51 32 23 17 25 37 44 34 22 20 21 26 28 26 20 4 -28 7 25 69 48 43 69 72 71 68 73 68
40 38 55 32 57 34 38 52 64 47 53 63 69 89 52 19 27 47 31 66 40 46 30 29 30 35 40 35 26 17 -5 -2 30 40 72 58 55 71 69 66 65 60 63
42 17 37 37 50 59 66 61 39 44 35 28 37 48 26 33 33 36 76 74 62 65 49 41 48 45 19 37 34 18 4 24 37 40 87 59 64 72 69 68 64 61 56
42 50 38 49 65 68 72 57 37 40 41 36 48 38 20 55 77 61 66 66 60 61 53 55 58 39 33 38 55 32 22 44 49 60 109 74 75 88 70 64 64 65 59
52 42 51 37 46 53 65 51 51 50 46 44 48 42 47 56 63 50 58 59 60 77 53 54 57 46 56 54 53 53 53 64 61 73 113 100 103 96 75 66 66 67 64
69 51 54 31 50 41 45 54 53 50 56 52 64 55 59 67 57 49 58 61 66 75 70 71 64 79 66 72 67 73 79 77 86 87 130 109 117 107 81 68 62 59 60
94 82 68 64 78 50 52 57 60 55 51 52 65 64 56 64 74 67 76 77 74 77 78 84 89 97 84 82 82 88 89 94 86 100 119 119 161 123 88 71 66 60 59
80 77 67 62 56 55 54 81 65 69 63 55 57 62 61 62 78 79 79 107 87 79 76 100 109 112 101 103 100 99 101 93 99 109 120 143 118 129 104 81 75 66 62
109 64 75 88 85 70 62 67 85 69 67 59 63 60 58 58 72 83 94 99 107 80 100 124 124 125 117 121 112 120 117 117 102 104 116 140 130 90 104 99 91 84 83
127 138 126 94 90 86 77 91 78 67 72 74 94 88 69 57 64 88 102 102 107 149 130 134 134 133 132 138 132 134 129 129 118 119 114 124 139 132 90 133 137 121 105
105 116 109 116 106 86 108 143 128 129 92 98 105 116 95 93 78 110 111 105 120 159 174 145 143 148 139 140 145 163 154 148 143 141 129 136 133 135 131 171 172 153 136
126 134 131 133 122 125 129 146 171 172 154 135 139 113 115 118 104 104 120 114 132 138 196 150 152 149 153 165 192 204 193 155 150 153 145 153 151 147 138 163 134 139 155
91 104 141 144 118 118 134 158 127 133 168 171 187 173 156 138 148 151 133 138 135 159 165 182 143 196 181 213 276 222 203 179 161 171 178 177 169 176 152 167 170 165 158
129 130 140 129 147 142 156 174 152 97 128 153 203 184 153 151 179 182 184 184 161 161 176 204 192 210 239 247 250 322 263 238 208 173 198 203 187 208 190 180 187 189 221
174 205 212 239 233 217 221 239 251 232 221 240 207 185 165 157 144 179 179 182 181 189 188 197 232 267 281 286 279 229 333 344 239 218 189 181 200 221 225 222 223 250 236
162 166 163 155 156 164 197 222 251 262 266 217 191 148 152 121 108 140 162 176 173 207 190 212 222 271 312 307 346 385 306 303 316 338 291 239 233 232 262 258 249 251 255
172 174 170 157 140 134 144 152 168 188 181 178 156 147 134 146 157 121 127 131 169 216 228 242 261 280 315 300 337 346 385 398 376 397 356 342 294 258 257 299 318 339 301

GFSSE_con_3kmhel_072.txt.gz
Helicity
79 79 70 67 50 37 37 39 35 33 40 41 35 30 27 32 24 23 19 22 15 22 19 24 30 32 39 41 40 43 46 47 42 34 39 44 44 42 49 77 45 56 64
122 72 73 65 43 32 31 37 35 30 34 37 37 33 30 30 31 30 22 17 20 24 30 24 25 27 26 23 27 34 35 25 17 9 10 32 29 38 42 56 45 33 42
92 83 68 67 33 18 17 28 29 30 34 34 36 39 30 27 28 28 24 22 14 17 18 27 18 24 22 21 25 27 23 7 5 -13 -8 12 11 29 32 32 25 22 19
93 70 67 61 30 18 17 27 34 30 31 50 44 28 15 17 17 20 17 9 8 11 41 38 21 16 8 8 15 15 6 14 24 9 -11 7 23 20 24 25 17 14 11
96 51 71 60 33 26 28 18 14 13 36 44 47 36 23 22 27 13 9 0 -2 5 48 45 30 22 15 15 23 13 -6 1 13 31 53 57 24 14 13 49 64 48 42
42 146 83 61 55 49 34 25 4 25 34 42 30 20 7 8 6 15 8 5 14 9 49 59 43 34 22 18 18 5 -18 -2 45 55 44 52 26 32 56 75 68 65 65
173 134 85 67 71 52 35 17 20 2 28 35 19 -4 -6 -5 11 11 26 12 29 39 72 63 46 34 20 18 12 -10 -23 9 12 43 31 27 19 47 59 60 56 54 61
136 111 94 87 70 63 49 38 21 6 13 31 11 19 9 4 12 5 23 35 54 73 64 55 43 33 19 16 11 -11 -23 16 27 32 29 9 21 50 52 56 52 57 72
129 58 119 97 72 62 56 42 31 11 15 31 50 48 54 24 23 37 32 60 57 62 60 47 37 27 23 21 15 -1 -14 6 37 27 38 27 52 65 64 53 56 55 65
71 55 84 94 78 68 58 52 42 25 20 38 62 68 52 39 38 37 42 72 62 64 57 40 34 27 24 22 16 3 -23 -29 -6 70 54 37 67 72 64 62 62 61 62
49 48 67 69 79 80 76 67 64 52 44 44 63 74 48 25 26 42 28 67 77 63 52 44 40 42 42 31 20 4 -26 -11 -5 102 57 71 82 84 73 69 61 56 56
66 33 60 41 48 15 33 92 100 86 76 60 51 44 31 25 29 37 77 67 75 80 54 53 56 52 41 36 26 6 -6 13 61 106 67 84 91 84 76 68 61 59 58
67 85 28 -19 -6 20 157 74 71 66 60 55 72 31 -9 66 100 110 89 81 89 83 62 67 66 40 17 22 53 36 29 24 78 123 88 93 96 103 82 72 67 62 61
64 103 111 123 110 113 135 83 44 60 32 53 96 51 3 103 102 84 89 78 77 71 59 71 70 50 36 56 74 59 46 99 112 134 106 120 113 105 89 81 76 73 70
102 72 70 130 126 90 123 79 61 75 94 58 80 78 42 126 119 63 98 78 58 97 43 79 70 58 64 76 79 83 98 126 138 126 128 126 150 121 95 86 74 71 66
75 89 82 79 154 123 121 95 64 95 93 76 89 97 106 131 115 72 83 96 76 113 58 105 72 111 139 99 99 121 139 150 138 135 147 133 167 142 102 89 76 72 68
141 115 82 86 82 54 76 74 93 107 102 91 93 96 91 112 108 96 118 128 124 102 101 114 110 142 170 132 137 144 154 141 131 132 178 181 177 150 116 94 85 74 72
81 89 101 95 99 72 52 131 132 118 113 115 96 94 97 89 108 115 114 142 145 134 127 125 147 167 190 185 173 168 162 159 136 131 163 185 173 158 134 114 101 86 84
139 135 59 113 111 116 99 93 129 111 119 123 116 112 100 93 113 138 126 114 152 127 117 141 160 193 229 220 208 178 192 175 153 143 145 177 171 171 148 136 140 130 108
144 164 161 146 140 117 138 121 125 152 156 137 118 130 125 150 147 163 153 145 140 193 156 197 186 186 228 205 211 192 209 195 168 164 176 165 209 219 182 197 196 190 153
129 123 138 172 167 184 162 221 203 151 118 123 157 133 141 167 194 185 189 164 170 188 234 215 215 203 220 238 256 264 253 187 177 192 190 196 218 222 268 257 240 220 203
188 183 167 173 168 171 199 221 231 201 161 137 137 161 188 206 210 245 231 213 188 207 271 242 238 254 233 262 294 307 246 232 190 192 210 217 227 258 247 267 226 224 219
170 183 168 148 152 179 162 190 237 197 167 171 160 152 118 167 216 225 241 243 227 230 229 286 266 259 248 273 309 319 223 228 222 203 200 227 257 306 276 263 265 241 220
163 186 189 210 233 256 245 226 257 234 227 200 164 135 139 142 155 165 243 237 248 245 235 246 290 295 351 316 336 253 272 268 233 227 216 207 233 280 295 294 304 278 319
117 146 161 154 162 195 245 282 271 291 272 209 200 139 115 114 109 117 147 198 223 231 223 209 242 277 312 396 409 408 254 274 313 323 288 294 291 290 300 312 313 360 350
150 167 184 162 162 162 159 161 163 161 193 250 262 235 161 122 140 157 123 108 150 201 226 188 194 231 278 347 432 424 427 387 333 391 379 376 335 362 406 417 407 382 386

GFSSE_con_3kmhel_075.txt.gz
Helicity
58 38 55 64 62 48 35 33 35 39 36 35 32 25 30 26 30 27 28 27 24 29 31 35 39 47 52 52 46 46 49 53 51 54 55 52 54 61 69 57 64 55 53
74 46 63 61 57 54 48 45 46 42 40 35 32 32 30 30 31 27 21 25 28 31 26 26 31 29 28 34 34 40 48 47 56 57 46 34 35 41 47 49 45 36 35
112 65 54 58 49 41 47 45 45 39 33 27 28 32 27 28 26 25 24 22 22 31 27 13 23 23 21 21 20 25 30 31 34 36 34 11 14 36 36 32 30 27 20
126 77 48 55 44 35 33 36 35 32 28 23 16 18 18 12 12 16 12 16 17 42 34 20 16 13 10 10 7 22 43 41 16 9 1 6 12 26 26 18 20 12 10
128 82 41 54 45 39 25 17 16 20 30 30 36 27 16 29 21 7 4 15 19 49 41 30 22 14 13 10 -0 20 44 63 39 37 43 19 -0 22 60 76 61 62 35
97 87 56 54 58 44 26 9 -6 15 44 36 30 21 21 12 10 15 5 2 19 45 47 44 30 17 14 5 -14 11 36 53 20 43 25 25 12 50 60 60 63 60 79
91 95 74 60 72 55 35 21 12 7 19 24 14 -1 -6 3 8 5 7 33 28 55 61 58 32 22 12 -2 -24 6 20 17 -0 33 25 26 23 54 53 61 56 58 68
106 100 87 84 77 67 39 33 17 7 23 26 31 18 6 11 7 11 6 13 50 71 60 54 36 29 14 -0 -19 -3 23 31 8 28 4 13 40 55 51 51 47 52 59
142 121 103 91 77 71 60 43 28 31 8 10 34 50 24 22 16 24 15 54 69 63 63 52 42 33 19 7 -11 -8 17 28 10 20 20 18 48 54 56 49 51 61 67
103 93 98 106 78 61 64 56 30 20 22 36 36 52 45 38 38 27 49 76 69 75 74 50 43 36 28 13 3 -5 4 41 35 38 41 33 64 65 62 57 60 64 65
65 60 85 98 85 95 91 76 61 55 46 50 60 64 46 27 31 40 48 74 74 81 74 58 56 53 45 28 16 3 -3 25 17 54 48 78 86 79 74 68 62 62 66
41 29 62 76 84 98 87 76 63 78 75 65 55 44 45 32 30 40 45 65 80 84 63 59 65 66 56 36 25 14 11 49 81 73 68 90 95 83 74 71 70 69 71
60 31 50 54 54 90 107 99 98 127 93 75 70 72 46 36 22 49 62 52 56 77 54 58 67 62 58 58 40 33 28 58 87 93 92 96 97 110 89 82 73 70 71
123 86 83 39 20 84 105 97 76 100 89 97 63 44 62 68 74 93 87 78 88 73 57 57 56 51 55 59 68 53 70 72 117 128 109 117 119 125 102 88 78 76 78
109 89 73 84 69 120 132 83 67 63 67 84 81 54 67 110 106 113 94 91 82 76 72 55 55 53 52 66 51 61 87 130 137 144 124 128 134 134 115 92 81 71 73
81 64 74 112 153 153 145 103 85 96 49 87 121 59 53 119 110 125 108 85 55 66 50 69 67 66 60 74 98 111 139 179 163 146 136 136 155 146 120 99 89 77 74
85 70 81 121 153 176 163 113 96 91 103 101 103 98 93 135 143 114 125 97 76 59 66 59 62 86 93 88 108 130 162 172 194 167 150 164 162 154 126 106 93 82 77
115 88 79 89 116 127 155 154 85 110 122 107 125 115 117 129 138 127 114 130 111 124 110 126 128 127 138 157 157 150 164 172 166 183 167 167 178 172 134 120 111 92 77
80 152 107 83 98 75 111 126 152 140 126 130 128 131 108 106 118 130 128 127 148 170 158 146 145 173 179 189 178 183 187 195 171 180 184 172 184 184 165 133 143 126 99
71 80 157 161 114 88 95 112 140 158 169 141 141 127 113 114 119 136 139 147 162 161 151 176 162 174 192 208 211 198 197 202 201 188 186 190 184 197 185 176 189 181 152
143 131 91 129 149 159 174 133 147 171 159 147 151 130 126 145 139 150 156 166 198 190 175 185 206 195 199 240 271 254 225 199 198 200 198 219 231 216 216 223 232 235 208
212 236 237 183 169 158 163 165 178 163 138 155 152 155 178 195 182 208 219 196 213 238 216 209 272 292 248 277 299 292 251 242 223 208 220 227 248 300 289 270 284 258 240
260 245 255 247 237 221 178 183 228 214 227 205 164 137 159 196 206 235 218 228 245 264 266 259 270 337 312 341 345 337 269 248 209 195 205 237 260 301 328 326 281 279 248
179 162 165 192 204 209 262 255 253 269 230 199 182 150 141 165 172 215 212 225 207 258 287 265 281 319 429 340 382 341 416 313 229 188 187 181 216 220 248 294 273 291 270
115 132 161 153 162 170 200 241 276 260 238 214 202 172 131 114 118 127 150 170 203 222 229 226 232 238 276 308 352 371 365 423 376 303 199 214 243 270 249 259 298 344 305
178 203 219 212 255 235 183 183 193 206 215 210 199 152 136 105 73 66 86 111 136 170 162 183 208 226 247 253 311 326 395 406 318 386 349 284 267 396 447 453 428 429 541

GFSSE_con_3kmhel_081.txt.gz
Helicity
-27 -19 24 36 61 56 61 62 65 67 72 72 67 64 63 58 50 41 35 37 42 42 44 52 65 79 88 95 101 95 77 80 73 68 53 51 41 52 62 61 54 26 36
13 -0 29 46 55 49 45 51 55 64 64 60 61 54 48 41 41 35 29 31 27 36 34 32 38 50 63 77 79 83 79 70 63 44 29 28 29 29 40 37 32 24 28
48 19 22 44 48 39 39 46 57 59 54 51 50 46 45 42 34 34 32 33 22 13 13 18 27 50 68 70 64 50 41 44 33 25 25 11 11 29 25 20 21 20 18
54 27 22 41 38 36 35 43 48 52 54 53 54 53 52 51 54 42 30 40 26 17 11 15 22 40 52 39 27 18 16 8 5 14 1 -1 -12 16 10 -1 12 14 11
82 57 26 38 37 31 17 25 37 38 41 45 43 44 43 41 29 25 24 44 29 23 13 14 24 34 35 20 11 6 13 14 17 9 10 5 11 26 51 54 34 42 28
106 86 37 41 42 33 16 -5 -2 22 28 28 33 37 39 29 17 14 15 46 43 28 15 10 21 25 26 13 3 6 23 26 17 4 17 16 15 36 32 35 45 56 77
112 91 63 51 47 33 10 -11 -16 -25 -5 26 40 33 12 5 6 4 11 37 39 34 15 7 18 21 15 5 7 9 19 15 11 22 27 22 21 31 32 38 40 41 55
95 114 74 62 46 29 13 -4 -5 4 2 -12 -30 -25 -34 -22 -11 -12 2 30 36 27 15 3 8 14 3 -0 -1 9 26 16 12 22 21 18 34 43 33 40 43 46 49
127 138 105 81 48 37 21 23 32 36 29 -22 -71 -81 -46 -42 -25 -19 2 9 28 19 14 -1 -1 -1 -2 1 7 15 20 26 19 14 15 21 36 44 38 44 48 45 51
127 120 115 102 80 54 28 36 33 37 28 4 -11 -17 -46 -64 -59 -20 3 10 28 25 25 6 -0 -4 -2 2 17 19 23 46 29 22 22 26 51 53 46 49 51 47 48
110 98 110 100 98 71 50 29 43 32 31 26 20 13 14 -10 -16 -31 -1 51 48 36 35 18 11 8 2 8 36 38 48 50 43 37 30 44 54 61 56 55 49 46 47
95 84 84 88 84 75 68 56 49 37 46 53 36 30 18 17 18 33 32 56 52 51 47 29 14 9 15 12 42 61 59 49 38 55 45 54 63 67 60 61 58 50 49
86 76 75 91 82 66 70 92 74 66 80 78 64 54 49 47 47 57 56 49 49 55 54 50 40 37 30 23 29 66 65 58 57 70 56 51 66 76 70 66 60 49 50
98 82 71 84 85 83 97 116 98 106 102 98 81 79 70 68 60 62 59 53 61 66 61 59 55 46 41 39 47 51 68 70 66 74 75 55 59 81 69 64 57 51 53
60 51 39 72 81 81 85 128 119 115 114 102 108 89 88 85 77 65 48 52 57 70 64 62 63 57 46 44 50 57 77 79 70 86 95 70 63 87 80 72 68 58 53
65 44 41 35 47 75 66 98 90 98 99 108 102 85 82 94 90 76 58 50 56 70 66 66 71 66 52 57 43 51 51 68 77 94 104 100 75 92 92 74 69 62 55
101 86 82 60 55 50 50 63 92 84 92 81 66 86 80 87 85 86 79 64 55 59 57 54 49 60 57 59 42 46 51 63 82 104 118 119 109 94 102 67 64 57 52
112 112 112 109 87 74 64 68 86 94 100 62 63 91 92 90 93 96 95 74 63 67 73 67 69 62 60 77 74 60 66 82 93 114 139 144 151 150 123 88 69 60 58
69 102 113 127 108 96 100 107 104 80 90 70 71 93 109 115 113 119 117 94 89 95 105 102 87 106 97 90 91 84 105 115 122 151 152 159 168 185 176 129 103 96 88
53 75 108 124 129 109 131 150 140 113 93 104 99 89 102 118 136 147 145 133 128 129 125 138 134 129 141 124 124 122 119 141 139 167 182 186 197 207 196 169 146 134 103
63 56 76 114 134 209 208 192 180 160 154 135 129 108 99 120 135 156 156 159 159 160 158 172 194 170 156 188 186 167 149 145 162 177 187 205 224 238 224 212 193 175 156
99 62 64 90 153 172 195 195 197 168 148 163 161 150 115 130 162 165 160 155 178 188 176 188 233 225 209 235 228 245 195 174 173 164 206 209 208 223 218 214 211 204 194
168 136 120 102 101 123 139 190 193 201 202 197 187 175 138 136 135 144 144 165 180 203 191 212 241 243 199 204 261 268 216 180 177 134 116 116 128 159 159 165 186 207 247
241 227 187 176 165 148 135 155 168 182 176 159 158 169 158 157 150 157 162 180 192 223 214 212 215 215 241 207 267 208 259 268 196 182 169 141 125 138 152 184 211 274 316
228 227 208 193 203 202 182 155 144 154 164 174 161 147 144 149 150 160 166 163 163 183 181 188 198 204 218 208 244 224 232 274 287 267 188 211 221 210 203 192 182 231 270
225 201 179 184 187 182 177 183 160 146 145 153 155 161 166 169 164 155 158 165 162 167 165 155 156 156 164 161 180 182 174 185 199 198 195 176 197 195 216 196 243 234 254

GFSSE_con_3kmhel_084.txt.gz
Helicity
-62 -38 -1 33 48 67 75 76 76 73 74 75 74 66 60 57 49 39 37 42 41 42 72 84 88 91 97 101 99 80 65 59 55 46 49 44 49 48 45 38 27 6 17
-8 -21 -4 22 39 55 64 65 68 67 68 68 69 57 56 45 33 26 24 29 31 29 34 39 49 55 65 66 63 55 49 40 29 24 24 22 17 20 19 21 15 7 12
41 -15 -18 23 34 43 53 59 60 56 52 52 54 52 41 33 25 24 19 13 12 10 12 15 24 34 41 42 37 34 32 25 22 20 22 -1 -4 4 9 5 4 5 7
31 -17 -20 21 18 30 46 48 54 45 42 39 44 45 43 38 30 20 14 9 6 7 11 17 18 25 22 14 8 6 4 8 9 1 -12 -22 -30 -6 2 -3 4 5 3
57 7 -8 8 6 23 29 48 33 30 33 36 41 42 43 37 24 9 21 6 4 5 7 11 10 9 1 -5 -13 -13 -9 -3 -4 -13 -7 -9 -7 26 44 36 22 29 9
87 45 4 11 15 13 9 3 -1 8 21 23 29 22 27 19 11 -3 20 18 9 4 1 9 5 -4 -15 -23 -16 2 10 7 -3 -5 -6 7 5 22 21 21 30 53 34
83 62 33 17 23 13 -3 -20 -39 -35 -35 8 13 15 6 -4 -7 -8 5 20 10 8 3 8 9 -4 -21 -28 -21 -7 1 3 -2 0 -3 -1 1 24 22 24 28 27 41
89 86 64 45 36 20 -2 -18 -13 -47 -38 -37 -33 -24 -30 -23 -24 -19 -8 12 3 3 2 3 9 2 -10 -16 -13 3 8 4 -2 2 -1 -3 26 27 28 30 36 38 33
99 113 98 93 63 38 17 -4 22 24 10 -26 -55 -85 -113 -92 -48 -32 -29 3 -7 -2 -3 -2 3 8 3 -2 0 9 4 13 6 0 4 5 27 30 32 35 33 34 40
123 106 99 112 96 79 48 45 34 15 2 -16 -26 -9 -57 -90 -84 -45 -25 -12 1 -4 -4 -3 2 9 16 15 14 13 17 25 19 16 8 3 35 42 38 39 34 34 34
98 107 98 115 108 99 69 48 32 14 0 -12 -13 5 -3 -20 -15 -13 -26 -7 26 26 19 3 2 11 19 30 28 29 34 31 30 27 24 5 38 50 48 46 43 39 36
88 107 105 106 105 106 88 76 45 42 23 8 7 5 4 9 8 4 3 46 47 38 36 26 25 32 44 47 35 39 38 41 29 42 41 26 42 60 57 48 49 45 38
96 103 109 109 124 113 115 99 69 60 55 43 39 31 35 41 51 57 63 56 48 48 41 40 37 37 40 53 65 59 60 49 36 49 45 36 33 54 63 56 51 47 40
70 89 88 101 121 132 132 106 81 76 75 71 60 57 57 54 57 63 59 54 52 50 49 44 40 38 41 45 69 67 62 58 53 51 43 41 34 38 59 60 53 48 48
41 80 65 93 127 139 126 112 104 90 88 100 89 71 73 65 61 67 56 55 49 53 53 50 45 42 42 43 50 65 59 56 56 57 57 47 48 37 55 50 52 45 40
76 68 91 97 107 113 108 101 102 117 109 116 104 86 80 76 69 66 59 50 44 52 56 53 49 47 42 42 38 51 59 54 56 62 66 71 61 62 60 50 49 48 42
83 70 66 75 83 80 75 79 95 104 108 107 99 91 82 74 68 67 59 51 47 57 54 52 45 48 42 44 35 45 51 55 58 68 75 88 81 71 72 52 46 49 46
84 80 71 52 57 66 60 59 63 74 93 94 100 83 78 78 78 73 62 49 59 62 65 66 63 54 53 63 63 55 61 68 62 70 84 91 100 104 97 83 66 61 57
97 101 97 98 85 65 52 66 71 73 84 77 92 88 75 78 89 98 91 70 86 83 78 78 71 86 85 81 83 70 66 67 70 87 90 99 112 132 143 116 89 83 80
58 67 95 112 100 96 102 101 88 85 85 87 82 91 88 83 98 116 112 91 105 106 94 101 97 108 123 107 99 91 91 80 97 109 109 121 129 136 142 140 123 116 90
60 55 63 91 99 130 140 127 112 87 114 88 79 59 84 103 115 134 135 123 125 130 127 145 158 140 136 165 161 138 125 127 121 137 144 146 138 143 141 149 147 135 120
56 46 45 47 95 134 161 155 145 147 123 137 124 106 102 101 124 132 124 132 146 151 146 165 199 185 173 204 212 199 156 129 136 113 118 121 115 139 146 155 149 135 139
84 73 71 63 75 116 139 176 168 160 160 156 143 130 137 141 140 143 139 157 169 177 172 190 211 218 195 188 204 225 192 155 160 128 107 102 113 110 86 73 88 101 133
125 140 147 133 123 119 108 125 136 155 150 139 136 147 150 146 135 132 140 162 168 191 182 187 208 221 237 204 238 195 249 277 183 159 162 139 121 112 112 117 124 129 166
174 204 224 220 209 191 159 131 120 112 122 124 119 118 120 116 122 136 151 157 161 178 166 178 201 203 221 226 225 231 182 196 183 185 152 167 186 143 147 134 136 147 179
198 199 233 239 234 214 188 173 144 116 113 122 125 125 130 134 134 131 138 153 161 170 168 165 165 167 163 161 148 166 191 170 153 164 173 159 178 187 150 154 155 158 155

GFSSE_con_3kmhel_090.txt.gz
Helicity
27 56 7 29 37 34 41 48 48 42 35 33 28 19 14 14 18 24 29 55 78 73 76 63 61 60 49 41 32 27 22 21 20 26 26 22 11 6 4 -15 -20 2 -1
51 45 6 33 41 33 32 34 37 33 28 21 18 10 7 3 10 14 18 18 30 32 35 33 30 28 25 18 14 15 12 12 9 -3 -8 2 -8 -7 -4 -9 -17 -9 -12
57 34 4 19 32 34 37 36 34 25 19 10 10 6 2 0 -1 -1 -2 -4 1 3 6 9 10 14 13 16 13 11 7 8 0 -20 -33 -13 -5 -7 -3 -1 -12 -9 -10
42 12 3 13 25 32 43 31 26 20 11 5 5 4 -4 -3 -1 -6 -4 -6 -2 1 5 4 3 4 2 3 2 -2 -7 -11 -28 -30 -23 -8 -8 -3 3 7 0 -8 -15
7 -10 5 8 27 29 34 23 9 7 -2 -3 -4 -2 -10 0 -3 -7 -7 -5 -4 -1 -1 -5 -9 -17 -16 -16 -15 -15 -14 -8 -21 -13 -17 -22 -23 -16 -3 11 5 5 28
-9 -18 21 -9 9 20 16 10 -7 5 0 8 9 4 -8 -11 -5 -4 -4 -5 -13 -14 -9 -12 -19 -23 -16 -17 -16 -17 -17 -31 -23 -16 -17 -12 -7 -1 6 7 3 17 35
-10 -23 -23 -18 -8 -13 -14 23 3 -4 2 -7 -13 -15 -31 -39 -4 -1 -8 -10 -14 -17 -18 -20 -22 -18 -19 -12 -9 -5 -14 -35 -21 -16 -8 -2 3 6 13 18 19 13 21
4 -12 -21 -21 -25 -16 -12 -17 -41 -43 -58 -49 -24 -33 -51 -60 -42 -5 -12 -18 -17 -15 -16 -18 -20 -18 -16 -9 -5 -8 -16 -40 -16 -5 -3 3 4 13 17 21 23 29 35
20 5 -8 -45 -39 -17 -16 -27 -34 -74 -78 -33 -39 -24 -52 -69 -67 -23 -25 -29 -26 -25 -24 -24 -25 -18 -10 0 0 -3 -9 -33 -6 0 3 12 11 19 21 23 26 26 27
34 12 17 -15 -38 -41 -36 -16 -18 -15 -21 -48 -17 -47 -68 -73 -73 -75 -41 -41 -33 -27 -21 -11 -5 1 10 16 17 20 11 -5 15 17 16 25 23 27 31 32 31 32 33
50 27 33 24 -13 -25 -20 -3 1 -9 0 -12 -35 -45 -66 -72 -63 -38 -36 -18 5 3 -2 0 6 11 14 19 18 18 5 11 18 19 22 28 29 35 34 32 35 35 37
69 68 58 61 29 6 8 8 -10 -10 -26 -37 -38 -40 -38 -29 -23 -19 1 10 26 26 21 23 28 25 8 17 29 23 17 28 28 23 30 31 24 43 42 40 38 40 40
70 96 76 98 62 43 31 24 29 19 17 9 1 0 4 6 12 17 28 28 34 27 25 27 33 21 25 21 28 28 28 34 32 29 46 40 23 44 52 47 41 45 43
88 59 80 87 85 66 58 44 44 51 46 40 31 32 29 32 36 39 42 40 34 32 37 31 31 38 36 30 30 33 32 34 35 35 55 48 26 22 55 51 46 42 48
78 67 61 86 81 85 72 62 60 64 64 66 58 61 62 62 62 63 62 55 49 45 41 43 40 43 37 38 41 38 42 38 42 38 38 77 39 26 27 52 52 49 49
90 88 58 61 73 89 81 73 72 72 75 80 77 75 78 88 82 76 74 63 57 54 55 45 46 45 44 42 42 44 41 46 43 40 42 54 64 39 35 36 54 57 54
72 64 65 58 82 72 70 75 78 82 83 84 87 79 74 84 91 88 76 69 62 58 48 47 48 45 47 52 44 46 48 43 48 43 48 50 66 71 53 46 45 60 59
95 80 58 76 75 77 69 78 84 94 93 96 98 93 77 82 90 89 79 66 60 58 51 51 55 56 56 57 63 64 59 57 49 49 60 57 64 64 90 71 50 49 63
88 79 71 58 55 62 69 81 81 88 93 96 94 88 76 71 64 59 63 61 55 56 56 58 58 57 79 82 79 70 74 68 66 64 60 60 64 74 77 116 87 67 67
90 95 66 51 44 71 90 96 98 93 94 90 87 78 60 54 46 50 50 50 58 64 60 59 62 73 83 94 97 93 81 76 81 77 70 69 61 65 76 88 88 80 80
133 115 85 69 49 70 89 101 122 116 84 68 49 36 39 44 46 47 53 55 57 56 60 72 81 92 98 99 115 101 100 85 92 86 81 84 87 72 99 87 71 80 87
122 134 104 82 78 64 67 86 104 87 75 71 59 48 46 46 46 42 42 49 61 73 72 84 104 111 109 119 132 143 136 139 106 102 105 116 107 106 86 65 69 85 87
183 153 131 107 110 107 120 105 92 75 63 51 49 63 64 58 64 59 56 71 82 87 94 96 107 114 112 137 123 177 190 166 192 172 149 136 107 123 114 90 94 111 103
271 108 136 120 96 91 55 135 113 107 83 60 43 41 63 72 79 86 92 96 99 120 120 125 123 116 136 131 169 160 164 244 219 205 181 140 126 132 133 121 133 134 143
242 296 136 113 105 56 69 87 65 56 57 79 95 67 89 99 85 89 95 104 112 134 125 116 125 125 144 148 161 209 202 207 201 207 182 132 156 149 141 133 124 132 138
229 237 187 145 77 88 92 104 79 89 74 82 86 94 98 97 108 102 95 98 105 117 113 117 118 136 147 162 175 189 202 211 172 169 158 146 139 157 132 133 128 134 130

GFSSE_con_3kmhel_096.txt.gz
Helicity
103 83 67 60 61 58 44 29 27 24 19 17 14 17 27 47 73 58 54 56 53 68 72 56 44 38 33 25 18 8 17 24 25 26 5 -1 -0 1 9 16 -5 -7 -4
134 95 77 56 48 43 35 32 28 24 18 11 15 15 24 33 52 60 54 52 53 48 42 36 31 25 22 18 8 -0 6 13 15 -1 -15 -4 -6 1 2 -6 -7 -3 1
119 90 74 57 44 38 42 35 29 21 9 9 8 15 19 24 26 28 27 29 32 34 32 29 27 22 18 14 9 -3 -14 -24 -20 -18 -66 -32 -11 5 -0 -5 4 14 14
115 71 57 55 43 36 28 34 12 8 4 6 9 12 17 17 18 14 18 25 27 27 26 23 20 15 8 2 -2 -5 -23 -24 -24 -11 1 -21 -3 21 30 39 51 30 25
72 51 49 46 26 28 26 16 -3 3 6 9 12 7 9 17 13 12 15 22 21 15 9 3 -1 -2 -6 -4 -2 -2 -15 -36 -37 -6 -0 9 -6 11 18 28 44 57 48
33 94 53 40 30 34 29 21 13 16 10 14 13 2 11 11 8 7 8 7 2 -2 -5 -7 -2 -8 -14 -12 -9 -8 -20 -29 -17 -8 -8 6 -2 19 24 32 40 43 43
60 88 39 36 36 32 19 10 9 14 16 19 14 10 16 11 8 3 7 4 -5 -10 -8 -1 -0 -1 -12 -17 -25 -35 -16 23 -1 7 3 -3 -1 21 24 29 38 43 45
118 65 37 31 20 12 7 5 -2 6 10 21 17 13 15 11 1 -2 -1 -11 -11 -5 -2 -11 -6 -6 -8 -14 -29 -41 -31 -22 14 21 8 6 20 30 31 34 39 42 46
82 69 36 7 -5 -1 -8 -7 -20 -16 -3 9 5 10 7 7 -8 -4 -7 -16 -13 -7 -12 -15 -14 -9 -8 -10 -18 -23 -14 -6 21 13 26 17 32 39 42 41 44 46 48
67 65 31 8 -18 -19 -30 -25 -13 -19 3 -1 -2 -8 -5 -17 -21 -18 -23 -31 -31 -27 -22 -20 -14 -7 2 4 3 -10 -19 -24 3 67 33 30 48 50 51 53 54 56 53
68 41 39 13 -21 -22 -18 -28 -20 -20 4 1 -24 -43 -51 -49 -57 -58 -44 -34 -23 -17 -7 -0 4 9 20 23 17 4 9 34 55 69 46 58 59 60 62 66 64 64 62
174 86 70 25 11 -14 -12 -23 -23 -27 -36 -46 -40 -60 -99 -54 -42 -37 -13 -9 7 14 18 17 15 17 27 33 22 23 31 21 61 79 56 74 70 69 74 71 69 68 65
142 155 89 71 50 40 18 -26 -23 -46 -51 -44 -9 -58 -90 4 18 36 11 14 17 38 28 28 22 5 36 36 33 46 32 57 54 93 85 92 69 75 79 77 72 68 67
191 148 117 84 99 67 23 16 -15 -11 -36 -3 -4 -20 25 30 22 30 35 28 43 33 42 43 35 8 46 33 25 29 43 49 50 84 82 95 82 71 83 81 73 71 71
191 147 128 109 104 49 55 57 2 4 34 24 38 38 40 36 15 9 64 37 46 31 37 20 26 70 52 46 47 41 40 39 43 73 86 93 90 85 80 85 80 76 77
181 154 124 113 125 98 73 78 35 71 61 46 66 70 68 63 49 66 72 63 41 73 57 49 75 63 58 46 46 64 52 41 44 61 88 76 88 86 88 78 84 87 85
130 168 159 133 126 139 131 93 70 92 82 100 60 72 90 98 107 126 116 129 116 114 98 99 95 96 72 62 62 46 58 46 65 66 63 87 86 79 92 83 75 83 108
113 120 153 192 151 152 114 102 115 88 112 120 82 91 89 111 121 131 122 127 113 125 110 115 93 78 64 70 69 50 75 69 52 54 71 91 107 106 95 85 83 81 87
95 106 112 111 129 134 162 149 125 120 123 117 88 99 84 108 112 119 117 119 113 131 119 97 78 84 82 75 75 72 76 77 72 64 74 94 103 131 140 108 98 82 80
72 75 89 91 100 129 154 160 146 144 118 112 122 123 131 99 111 116 115 109 106 125 104 90 82 85 95 90 79 94 85 76 81 90 97 96 96 150 142 156 134 106 86
72 108 110 121 128 151 206 213 189 172 163 145 185 211 165 127 121 125 104 94 104 103 71 75 90 97 99 98 120 99 91 80 84 100 97 98 100 202 197 183 152 131 107
85 117 119 130 149 154 140 169 198 209 163 150 185 184 159 143 130 105 103 81 82 92 69 75 104 123 111 116 126 134 128 113 91 95 108 138 240 273 255 221 203 185 194
111 109 143 115 133 171 158 159 214 236 218 192 162 161 114 146 152 127 109 85 82 81 91 85 100 131 141 108 139 174 161 111 154 169 207 237 274 279 258 224 197 205 225
169 156 147 168 162 167 198 201 196 185 194 167 140 120 116 101 93 97 102 101 93 82 91 89 106 139 169 147 186 202 184 218 197 198 236 246 276 268 235 222 218 190 197
235 246 254 240 277 252 219 263 276 265 191 131 118 101 114 115 121 100 73 57 62 78 91 85 67 100 150 195 224 233 188 199 225 235 219 246 259 230 217 199 189 183 178
269 239 330 285 262 255 217 206 244 226 291 213 244 132 106 122 136 135 107 86 76 79 103 124 89 111 156 188 196 222 266 239 236 235 223 185 210 225 209 190 182 172 189

GFSSE_con_3kmhel_099.txt.gz
Helicity
51 62 62 66 71 67 55 37 31 25 27 29 39 65 79 52 50 64 66 63 59 59 62 54 49 37 33 33 39 39 40 34 30 25 -5 -3 -1 1 3 0 -2 1 7
93 75 67 86 84 65 49 42 30 21 22 22 34 63 88 87 71 66 63 58 56 49 42 33 31 24 18 19 20 17 14 16 -9 6 -10 -15 -15 -7 1 6 6 7 12
126 85 81 93 81 54 48 33 32 17 14 22 31 51 73 68 59 55 47 40 40 32 28 24 22 21 22 16 1 -7 -1 -13 -27 -18 -17 -15 -2 31 29 17 20 21 20
129 93 83 84 73 63 43 34 20 11 15 23 30 38 45 42 34 34 27 29 27 25 25 21 16 18 12 2 -8 -5 4 12 36 8 -5 8 3 28 55 50 40 32 34
114 90 74 79 72 45 37 12 6 8 15 21 25 25 27 27 23 26 24 19 16 15 11 4 0 1 -1 -3 -1 11 18 19 14 6 -4 -5 -5 13 31 38 37 39 44
113 84 78 73 45 35 16 14 9 10 11 10 19 23 20 21 19 19 13 -1 -3 -3 -8 -7 -10 -6 -5 4 6 14 21 18 -7 -10 -11 -7 -8 19 25 33 38 38 37
104 78 54 46 38 36 36 22 16 10 15 4 21 23 20 15 11 7 2 -7 -1 -3 -3 -7 -9 -15 -16 -16 -5 14 -3 -1 -12 -8 -7 -5 0 25 30 35 37 42 45
99 79 54 58 58 47 29 19 18 17 18 -2 9 21 20 12 5 0 -4 -11 1 0 -7 -13 -12 -21 -28 -33 -27 -15 -5 16 0 -6 -1 5 22 36 39 42 46 47 52
109 87 64 55 45 29 15 11 7 10 25 18 0 12 10 2 -5 -4 -8 -10 -1 -13 -21 -21 -21 -24 -28 -35 -26 -18 2 11 9 -8 13 9 31 46 50 51 51 54 56
102 101 74 53 31 9 -8 -12 -12 -3 22 18 20 2 -2 -8 -14 -16 -32 -23 -27 -32 -24 -19 -13 -13 -12 -19 -28 -16 -11 38 31 17 13 18 45 52 57 57 58 59 59
108 108 81 56 26 10 4 -8 -12 28 11 11 1 -6 -16 -46 -55 -54 -58 -31 -28 -29 -15 -3 4 9 6 2 -5 2 8 27 38 30 19 49 56 62 62 59 59 57 58
120 84 85 52 36 19 6 12 8 4 -13 -33 -40 -44 -49 -67 -70 -60 -49 -23 -10 -5 -1 8 14 20 24 8 -3 9 22 35 38 46 29 63 67 69 68 64 60 58 57
121 87 79 65 66 44 19 20 12 -24 -42 -48 -57 -72 -67 -61 -51 -33 -24 -16 -5 13 1 15 12 11 21 22 11 19 27 45 60 48 53 69 72 77 77 74 68 65 60
122 115 100 94 85 58 22 1 -27 -44 -46 -45 -62 -61 -47 -28 -8 8 6 14 12 14 20 24 17 11 18 24 30 21 30 45 54 63 55 74 69 79 83 80 79 76 66
168 129 145 164 90 71 2 -4 -36 -28 -42 -29 -44 -11 -4 17 33 39 20 29 23 27 37 37 35 22 5 31 33 42 46 47 60 61 56 75 69 76 80 86 82 84 80
191 154 174 155 122 92 37 36 -12 -10 1 7 3 21 24 36 38 45 44 29 24 26 8 28 44 38 30 45 35 41 47 42 49 72 65 63 74 73 74 77 88 89 90
167 208 183 145 129 126 78 64 43 15 33 68 44 60 64 52 51 72 70 56 49 40 35 31 45 78 72 57 55 57 44 39 40 57 75 74 75 70 75 71 77 86 109
158 170 196 146 129 121 104 108 96 71 107 75 69 89 95 106 106 116 133 85 89 91 105 107 105 79 60 58 50 44 49 61 63 59 54 81 96 92 86 76 76 68 79
92 139 167 190 184 155 154 114 116 98 115 108 106 91 110 123 138 143 156 149 135 135 129 118 89 82 71 57 54 53 60 57 52 59 63 80 104 115 111 89 96 76 68
107 111 134 165 180 221 198 184 199 167 132 163 151 108 94 119 139 148 143 143 141 155 138 120 88 70 76 69 63 54 55 63 65 67 67 80 87 123 130 123 123 101 82
97 111 104 119 146 173 211 229 199 174 193 225 184 171 146 115 122 135 134 123 141 149 126 107 88 78 71 91 98 75 65 59 64 65 85 91 98 137 182 182 177 149 106
97 88 108 84 116 146 184 220 231 195 174 176 186 180 204 170 142 116 91 100 108 132 113 90 88 98 82 83 97 102 77 85 77 53 89 108 155 224 275 257 256 237 189
116 116 87 91 101 116 165 238 218 215 197 180 194 191 170 139 152 139 103 85 84 97 104 95 95 124 129 97 102 109 92 55 85 118 166 218 262 283 299 286 279 247 229
120 127 120 118 130 144 174 193 203 168 181 180 188 184 122 97 97 90 134 201 236 206 190 97 100 114 151 133 106 84 120 133 130 130 204 250 264 289 279 263 255 247 210
163 173 162 154 155 176 187 176 187 218 228 226 213 207 214 104 110 126 128 127 120 134 201 174 72 86 110 150 129 125 121 174 167 190 174 229 277 262 250 235 228 206 185
241 251 249 227 215 212 221 206 252 291 327 325 332 293 283 239 146 106 180 134 168 133 162 155 141 114 120 112 193 138 125 124 198 234 210 199 207 241 238 246 234 183 154

GFSSE_con_3kmhel_102.txt.gz
Helicity
47 42 55 73 78 78 52 48 42 40 44 59 68 65 53 61 68 75 69 65 49 65 70 52 45 47 48 40 37 40 25 26 18 9 -0 -11 -4 5 4 4 14 7 15
90 65 81 80 83 71 55 46 43 34 41 63 85 74 60 66 72 75 64 52 64 57 43 37 34 37 38 30 22 -4 2 12 6 4 -9 -12 -19 11 14 11 17 23 34
126 75 81 93 90 79 56 45 43 32 35 58 89 105 107 89 79 66 57 54 43 33 32 35 41 35 19 5 -1 -7 -9 -3 -5 -4 -13 -11 -3 17 19 18 19 31 40
135 92 95 93 75 65 64 44 34 31 35 46 74 94 77 65 60 48 40 35 31 28 34 35 29 5 -12 -3 -3 8 22 9 7 7 -0 -5 3 30 33 34 32 38 47
138 104 108 82 71 57 58 39 36 35 40 36 47 51 58 45 40 32 30 28 30 17 20 18 5 -6 -2 18 5 19 19 14 11 -0 -15 -12 -16 2 16 17 19 26 30
149 123 94 87 65 55 38 36 34 36 37 28 22 25 34 37 30 23 19 13 -0 -4 4 3 -3 -11 8 17 -3 8 8 8 -4 -20 -25 -18 -20 9 16 17 16 22 25
150 112 97 67 50 50 34 32 33 23 24 24 17 17 18 23 19 14 8 -7 -14 -7 2 -3 -20 -21 -9 1 4 2 -3 -2 -22 -24 -23 -18 -11 19 24 25 28 30 34
148 108 82 33 59 56 31 24 25 10 13 22 12 13 13 12 12 9 1 6 -4 -7 -10 -24 -42 -41 -34 -15 1 13 2 -1 -13 -17 -15 -14 16 31 33 33 36 37 39
149 115 79 57 85 60 38 24 24 9 8 24 16 13 9 4 1 -0 -8 -13 -18 -24 -29 -44 -50 -48 -31 -7 21 19 14 9 -6 -17 -7 -9 27 37 40 39 39 41 46
157 128 115 99 89 56 32 20 23 26 10 24 15 11 -1 -10 -12 -16 -27 -35 -44 -38 -29 -35 -38 -30 -22 -0 16 14 30 24 9 1 -1 1 37 40 43 41 40 44 45
142 119 110 111 71 45 19 -3 7 31 26 25 -2 -2 -7 -32 -38 -50 -58 -49 -48 -39 -22 -17 -18 -11 -7 -7 -0 12 23 21 16 5 4 34 42 45 48 46 44 45 45
56 87 96 91 60 43 31 28 23 29 3 2 -16 -25 -46 -60 -71 -71 -68 -46 -36 -13 -10 1 1 2 5 -6 -1 10 13 32 17 13 13 46 52 54 57 51 49 48 45
82 105 82 82 57 61 28 19 18 9 -7 -33 -32 -39 -56 -72 -70 -62 -51 -43 -31 -8 2 4 8 5 6 3 2 7 16 43 30 21 27 50 57 59 62 60 56 54 50
96 155 94 76 73 49 21 21 11 -9 -32 -42 -69 -62 -52 -57 -52 -45 -39 -26 -15 -3 11 19 14 9 -0 -11 -6 8 25 38 38 35 33 52 56 63 64 64 62 61 57
123 144 115 86 87 64 37 11 -0 -24 -46 -49 -54 -66 -48 -36 -25 -17 -19 -4 -9 9 24 28 23 17 9 -0 3 18 36 50 47 44 40 45 50 50 65 67 68 67 68
111 128 130 105 90 69 34 1 -10 -14 -54 -38 -45 -36 -17 -14 -3 14 20 20 21 31 32 38 26 21 10 24 20 25 25 38 49 51 45 38 50 47 48 63 74 77 73
124 118 137 126 114 58 11 -15 25 -3 -4 -30 -33 -16 -0 20 38 39 40 40 24 23 38 49 37 32 41 37 31 27 26 25 36 48 49 50 50 50 52 49 50 79 84
209 149 120 142 143 70 17 24 61 45 27 -3 10 35 21 21 51 67 71 68 53 53 62 65 63 80 69 59 52 37 34 32 28 44 59 59 62 64 54 53 48 53 66
159 177 131 131 124 85 57 50 90 84 74 37 74 91 95 92 98 115 97 77 84 87 99 103 99 102 86 64 44 42 41 44 44 50 45 57 71 85 78 66 60 61 61
149 149 152 162 165 172 144 149 142 177 129 127 133 93 122 132 133 145 141 131 136 135 131 131 130 116 94 75 65 52 45 42 46 56 58 60 76 82 94 94 83 77 68
150 191 162 152 127 160 157 157 186 186 183 228 205 106 109 116 145 149 163 165 167 156 127 128 142 129 99 88 103 79 56 47 46 59 64 74 83 84 135 150 133 130 127
114 128 168 155 142 140 186 195 227 196 215 190 214 168 165 141 136 135 140 127 145 129 108 106 123 136 112 102 121 125 110 91 75 66 76 99 110 173 229 258 242 211 190
102 90 111 100 134 159 162 252 266 238 207 190 237 208 237 223 178 181 146 129 131 99 107 117 107 89 82 111 101 102 107 87 85 79 111 174 202 266 303 275 269 239 201
66 79 74 86 102 131 190 197 178 199 209 178 204 239 227 195 199 170 146 109 131 150 224 229 177 179 214 211 151 105 114 109 196 90 85 155 224 279 255 227 251 217 192
99 105 109 105 122 130 141 149 170 177 153 145 225 222 195 194 217 176 193 196 132 142 112 126 177 180 190 229 294 297 234 128 147 219 91 149 219 226 239 217 220 197 196
149 149 142 136 134 139 161 146 155 170 198 236 273 310 300 241 187 141 180 152 229 187 235 223 136 211 194 225 212 181 178 116 152 125 146 135 161 200 223 225 211 208 199

GFSSE_con_3kmhel_105.txt.gz
Helicity
59 51 53 80 87 70 56 62 56 65 64 49 66 72 63 78 73 75 67 69 43 65 54 44 46 43 30 31 24 18 15 8 -5 -11 -15 -11 -6 -0 9 13 7 1 39
107 78 72 90 91 61 48 62 55 67 80 53 58 58 66 76 80 64 56 53 59 51 40 33 40 37 23 7 7 8 2 6 6 3 -14 -25 -8 9 10 14 19 26 36
138 98 95 91 84 67 51 50 54 74 85 62 56 55 63 75 72 59 54 62 50 37 35 36 27 18 3 -9 -10 -2 -2 2 6 14 7 -43 -31 12 13 12 19 33 39
150 129 113 95 93 71 46 47 52 69 100 95 72 72 89 80 66 60 53 41 35 35 31 19 8 -2 -2 -2 -0 3 1 4 9 11 5 -7 -14 12 18 22 26 28 26
159 147 112 103 84 57 50 41 46 64 96 107 100 97 60 54 49 41 33 31 28 20 14 4 1 8 -7 -2 1 2 2 4 7 -5 -15 -22 -32 -9 1 10 13 12 10
165 141 104 90 87 61 48 46 50 56 65 94 85 60 42 33 27 28 27 20 7 8 -2 -2 11 4 -11 -5 -3 3 -0 -1 -9 -25 -31 -24 -27 3 7 8 6 8 14
158 135 111 86 85 64 47 46 51 44 36 44 50 41 32 21 20 15 9 -0 -2 -5 -8 -2 -4 -11 -12 -13 -12 -7 -6 -7 -26 -24 -28 -27 -19 12 16 17 18 20 21
167 145 107 88 84 50 53 36 34 36 23 22 20 23 19 12 11 5 -5 -15 -16 -16 -21 -21 -24 -25 -26 -17 -8 -0 -0 -7 -18 -19 -22 -23 7 21 24 23 24 28 28
167 145 117 86 74 45 50 29 25 32 19 16 16 15 11 3 -1 -4 -12 -16 -29 -38 -45 -43 -36 -21 -13 4 3 7 6 5 -8 -23 -17 -20 13 27 28 26 26 31 33
171 139 127 107 89 59 40 24 15 33 22 19 15 10 4 -11 -16 -18 -26 -38 -51 -52 -52 -48 -40 -18 -5 9 15 17 16 8 -3 -7 -11 -10 22 28 30 31 31 36 37
156 136 143 144 106 71 52 25 21 34 24 25 11 -0 -5 -30 -34 -44 -63 -58 -55 -50 -37 -23 -15 -11 16 18 6 14 19 -4 -5 -10 -11 17 24 27 27 28 33 36 36
123 102 132 139 101 67 43 40 31 19 10 -0 -16 -26 -32 -41 -57 -67 -76 -62 -53 -42 -32 -21 -2 5 10 15 2 6 -6 9 -3 -9 -11 21 31 32 29 29 34 35 37
92 141 136 135 98 69 53 52 26 20 3 -20 -23 -32 -44 -62 -78 -78 -70 -56 -40 -23 -18 -13 -0 -0 12 16 15 2 5 13 9 -1 -5 21 32 35 34 33 39 40 44
112 121 138 117 91 77 61 26 -2 -4 -9 -24 -45 -41 -54 -67 -70 -64 -50 -35 -22 -14 -5 1 2 8 8 8 2 10 12 22 22 18 6 19 25 36 38 40 43 49 54
143 119 151 116 71 67 37 7 -11 -16 -38 -51 -53 -70 -56 -53 -52 -43 -36 -22 -14 7 15 18 20 17 10 9 15 14 22 28 34 29 22 16 18 33 41 43 46 50 58
153 146 111 129 102 55 28 -7 -15 -23 -41 -43 -49 -58 -48 -31 -22 -15 -9 -0 7 18 30 37 36 36 29 19 12 22 28 33 32 39 34 26 20 23 32 43 52 47 55
188 142 106 73 122 41 23 -1 -5 -24 -23 -29 -40 -37 -29 -11 2 16 23 21 25 38 40 41 40 43 35 39 23 23 29 38 38 40 43 43 36 26 25 20 27 44 64
210 153 145 90 68 46 17 24 12 -3 1 -11 -9 -5 -5 5 37 59 59 40 47 65 74 69 60 51 52 61 54 45 39 36 36 39 47 53 51 52 42 26 7 21 40
155 167 138 105 68 77 57 47 32 23 22 28 29 32 26 42 62 71 61 51 73 77 79 90 88 92 96 80 69 57 49 40 35 47 48 50 53 60 60 51 36 28 23
144 135 127 130 120 126 102 101 83 63 64 73 61 50 62 72 79 77 82 82 103 112 99 110 116 118 104 98 94 81 62 56 51 44 44 54 57 64 74 72 68 64 61
152 131 137 136 146 176 153 113 108 92 107 110 93 88 90 94 120 132 120 121 133 131 116 122 133 120 107 112 120 106 94 71 75 58 56 58 63 68 79 95 108 137 126
101 106 150 147 165 167 161 130 137 150 152 156 111 70 121 103 158 168 161 158 147 161 139 128 138 133 105 101 131 112 129 134 124 120 90 105 117 125 141 150 188 170 164
103 132 139 126 125 157 222 254 248 256 249 171 150 163 135 121 145 155 160 149 153 163 176 200 151 123 235 186 164 131 120 134 140 103 117 104 142 161 156 192 220 214 151
87 128 121 139 137 162 169 200 198 163 153 180 181 177 183 194 177 177 163 177 162 156 125 185 141 167 261 196 140 137 193 210 194 244 146 154 125 127 150 191 133 203 179
79 78 95 127 148 172 161 160 150 179 171 163 189 218 201 234 219 201 181 162 152 169 168 164 116 233 205 171 158 185 177 198 216 250 200 125 131 155 136 177 137 188 161
93 92 104 98 115 115 121 108 112 117 127 157 168 211 233 247 240 188 152 158 133 162 197 253 196 227 210 255 164 158 153 164 231 234 190 253 240 100 186 200 184 201 191

GFSSE_con_3kmhel_111.txt.gz
Helicity
158 123 96 92 71 62 50 51 66 82 103 97 82 50 50 47 59 58 57 55 60 60 46 36 25 22 13 3 -1 -1 0 -5 -5 1 3 11 17 27 24 13 22 26 33
274 148 110 91 85 77 63 51 49 67 97 102 78 58 50 52 51 66 57 50 49 27 23 34 25 10 4 5 9 7 5 1 -1 -3 -6 -4 -8 18 21 19 20 22 29
256 166 121 99 89 85 83 68 43 47 81 98 67 56 42 50 57 35 38 39 34 15 32 15 16 5 -2 3 8 10 0 -11 -14 -19 -19 -7 -2 16 23 17 26 22 19
249 188 108 103 98 89 85 68 43 42 58 61 53 42 69 63 45 31 43 18 29 25 14 9 3 5 -2 -2 -2 -7 -7 -6 15 -1 -29 -25 -16 6 6 6 13 15 22
222 160 112 108 93 80 79 72 66 32 41 32 39 60 79 50 32 41 16 19 25 18 4 3 6 3 -8 -12 -18 -21 -14 1 2 -19 -22 -20 -18 -5 4 10 14 19 22
192 141 124 105 89 75 78 86 77 57 50 45 60 66 69 39 37 22 16 7 15 10 0 -3 3 -7 -13 -17 -21 -21 -13 -7 -16 -17 -13 -5 -2 4 16 19 22 23 26
206 132 118 108 84 74 86 98 94 80 71 69 86 95 37 26 16 21 -1 -12 10 9 -4 -7 -10 -18 -16 -14 -12 -9 -9 -8 -14 -13 -10 -4 2 11 16 21 26 28 29
211 151 112 96 77 75 95 111 99 88 83 79 94 49 15 7 10 3 -15 -9 6 -4 -18 -20 -17 -15 -8 -6 -5 -3 -5 -13 -10 -6 -8 -6 0 12 17 20 25 27 28
207 158 124 87 72 76 91 113 116 104 74 79 67 20 11 5 -1 -4 -16 2 -11 -28 -29 -27 -21 -11 -5 -2 -1 1 -1 -9 -6 -13 -11 -14 -5 9 12 21 25 25 27
216 168 131 101 81 76 75 103 105 105 86 81 53 26 15 -10 -10 -15 -21 -15 -33 -32 -31 -33 -27 -13 -5 -1 0 1 2 -9 -5 -8 -12 -12 3 11 17 22 24 27 30
215 190 131 108 91 82 76 75 83 78 84 82 53 30 -2 -25 -25 -28 -52 -39 -34 -37 -34 -21 -6 -1 3 -4 -3 -2 -14 -16 -12 -14 -13 -6 7 14 20 24 28 34 36
205 151 145 115 89 88 92 76 63 64 31 12 -6 -12 -18 -24 -35 -45 -47 -34 -27 -35 -24 -12 5 12 -8 -18 -21 -17 -19 -9 -10 -9 -9 -5 11 18 25 27 29 30 26
187 169 119 124 97 97 97 99 80 57 40 27 -2 -6 -4 -8 -33 -50 -65 -70 -48 -32 -26 -13 -12 -18 -11 -12 -9 -9 -10 -8 -4 -5 -4 -17 11 20 24 29 30 34 33
159 144 126 102 106 93 108 89 59 45 35 26 3 -7 -9 -19 -48 -63 -67 -61 -40 -36 -13 -8 -9 -3 -2 -3 -1 6 6 3 3 2 4 -15 0 19 23 25 27 31 33
159 124 111 113 96 91 80 101 66 43 28 19 6 -15 -31 -38 -55 -58 -50 -39 -25 -11 -6 2 6 7 6 4 5 7 16 22 22 18 14 3 -3 10 24 25 29 31 32
104 91 61 93 92 96 99 86 85 59 42 26 1 -23 -47 -51 -45 -38 -27 -21 -7 -1 8 15 15 18 18 17 20 20 24 29 32 33 31 29 15 8 11 22 28 35 38
56 118 73 94 106 95 88 95 96 73 52 28 0 -29 -46 -46 -36 -22 -13 -7 4 17 33 39 43 38 30 29 28 35 34 37 40 42 40 38 38 22 10 0 15 32 35
36 90 125 122 135 115 96 119 92 70 48 30 7 -7 -24 -23 -17 -5 2 10 26 36 43 52 54 50 44 42 49 50 48 53 54 54 52 47 45 42 33 12 5 14 26
118 77 87 124 157 150 122 134 113 69 45 35 30 14 -6 -6 0 11 14 25 42 51 51 59 65 62 62 57 57 54 54 54 61 67 59 59 54 51 51 41 26 28 37
116 96 34 110 181 199 183 139 121 94 58 51 39 23 7 14 17 23 30 45 59 67 68 68 78 79 85 98 100 85 64 45 45 60 86 74 67 58 48 48 51 59 65
98 55 94 182 189 244 191 144 117 80 92 72 50 38 21 27 26 24 43 57 72 65 70 96 106 100 112 117 111 114 123 65 67 92 89 78 67 72 72 79 98 89 92
67 110 141 151 174 193 173 148 144 116 99 99 98 80 68 60 45 43 45 62 77 92 101 98 101 115 112 85 78 87 91 75 111 122 111 87 96 88 109 114 106 102 112
119 115 52 111 118 173 176 197 197 162 132 109 117 111 90 66 52 46 44 69 88 100 98 91 99 96 77 39 80 110 129 53 58 123 98 144 154 162 166 166 129 132 173
116 101 115 148 63 167 150 201 192 152 150 123 130 127 111 80 59 43 64 64 114 133 100 73 66 40 73 137 83 88 128 134 107 67 96 114 170 214 193 161 195 193 206
201 207 146 119 97 68 171 144 236 204 195 198 153 114 105 81 84 88 86 115 154 102 39 74 89 167 114 99 118 123 115 106 105 107 115 75 80 84 97 124 99 100 147
206 288 286 105 35 71 145 205 162 152 186 137 130 132 160 83 152 92 140 145 123 112 136 119 107 67 76 90 104 114 110 99 89 118 94 62 60 109 90 118 115 112 145

GFSSE_con_3kmhel_114.txt.gz
Helicity
113 129 119 84 66 55 47 73 69 52 67 56 39 35 64 54 52 53 45 61 59 41 29 26 26 11 9 3 5 2 -1 6 18 30 24 26 30 33 25 27 27 26 21
151 196 116 109 72 65 55 79 81 83 78 72 54 42 64 63 65 60 46 61 49 40 37 25 19 7 3 5 14 13 8 13 11 -3 0 10 17 35 41 39 18 15 18
137 207 140 114 69 64 53 74 87 90 92 73 73 66 58 63 58 56 43 43 22 34 32 14 5 6 9 14 18 15 5 3 1 -17 -3 -1 9 14 17 23 17 19 22
121 179 137 113 69 67 59 57 75 93 92 74 69 61 62 66 67 31 34 19 23 23 21 14 1 6 5 13 13 12 5 1 1 -24 -15 -7 -1 13 9 14 19 22 27
116 141 155 125 84 66 60 47 59 76 73 60 51 39 61 68 40 37 32 15 37 20 14 10 7 -1 -5 2 4 0 7 0 -30 -10 -8 -12 -6 8 14 13 22 25 33
153 120 162 133 90 63 60 40 40 53 60 51 41 58 69 58 31 20 25 52 29 19 16 12 -1 -7 -8 -8 -5 -2 -3 -27 -24 -1 2 3 11 13 19 22 27 29 35
157 173 118 125 96 73 67 54 42 51 49 43 65 72 80 41 33 16 40 44 18 10 9 7 -3 -8 -6 -1 1 -1 -13 -42 -5 0 3 7 11 17 21 24 25 27 32
157 175 119 124 96 90 80 70 64 64 64 75 71 84 64 41 23 27 40 24 15 9 1 -3 -7 -5 0 5 3 -1 -15 -31 -7 -1 2 2 2 11 17 20 23 24 29
151 139 135 107 95 108 103 89 85 77 75 77 96 83 40 30 15 11 28 17 5 -4 -7 -9 0 1 6 10 4 -1 -15 -25 -4 -12 -8 -6 -3 11 16 20 23 31 33
180 115 131 115 93 81 94 121 99 90 86 92 103 56 40 28 3 -9 21 9 2 -1 -5 -6 2 3 4 4 1 -4 -17 -49 -4 -8 -5 -3 4 9 12 16 21 29 28
187 131 132 125 101 74 80 118 143 137 134 122 114 75 34 4 -14 -5 -7 -2 1 -2 -10 -11 -1 4 3 -3 -6 -18 -41 -16 -9 -7 -1 -2 9 11 13 16 20 21 24
204 153 134 128 112 92 84 95 94 100 55 58 52 11 2 5 -18 -26 -22 -4 -7 -13 -7 -1 5 4 -30 -18 -20 -31 -16 -9 -3 1 13 5 17 18 19 21 22 24 25
194 199 125 120 113 97 91 77 106 100 76 33 8 4 11 7 -15 -32 -22 -29 -39 -43 -26 -18 -13 -23 -13 -12 -14 -15 -10 -1 3 7 26 2 22 26 27 26 26 24 23
163 187 149 125 107 97 119 99 66 73 47 24 8 10 22 15 -28 -36 -44 -61 -58 -54 -33 -28 -30 -17 -9 -4 2 1 -4 4 8 11 35 8 14 28 31 32 30 27 22
206 285 165 125 93 98 92 99 85 70 50 33 22 13 17 4 -30 -55 -70 -66 -55 -38 -32 -23 -17 -9 -5 1 5 7 12 12 14 20 27 35 13 20 33 35 32 34 29
367 238 160 108 77 82 96 93 99 89 74 57 40 16 -13 -28 -40 -53 -48 -42 -31 -25 -13 -10 -4 1 5 3 11 18 26 31 29 31 32 48 33 21 18 24 30 34 31
358 155 110 81 72 70 113 102 125 107 93 73 51 18 -4 -30 -36 -24 -18 -13 -5 2 9 13 14 11 13 17 17 22 28 36 42 43 47 45 64 39 19 5 23 28 32
432 415 72 106 79 68 105 131 115 111 93 82 65 34 6 -2 3 8 10 13 21 24 24 23 24 23 23 23 29 32 34 41 39 48 54 60 60 58 61 26 19 18 16
341 372 145 86 73 53 86 138 111 101 98 83 65 50 29 30 27 32 34 32 32 35 38 42 40 37 44 45 48 47 49 53 55 56 52 59 64 64 58 84 49 33 34
98 15 67 174 76 46 101 151 137 102 96 80 70 59 44 51 41 45 47 40 44 45 52 55 60 68 70 71 60 46 49 48 40 43 56 75 87 68 60 51 66 72 69
66 -17 130 169 126 127 143 189 159 103 112 79 78 74 62 64 53 58 63 59 62 60 65 77 90 84 75 56 44 47 47 52 56 83 92 97 88 69 73 62 76 90 124
75 -38 40 120 188 164 177 175 174 143 103 90 90 80 64 59 62 65 74 66 59 73 75 77 80 88 60 31 44 49 79 58 89 89 85 79 53 112 104 117 111 120 95
63 51 41 126 182 194 179 204 174 158 125 135 108 104 91 81 82 86 81 84 86 89 88 80 67 63 62 90 82 80 22 19 70 93 95 98 67 48 90 139 153 169 158
72 64 137 177 139 115 89 176 179 171 117 122 133 130 125 109 102 98 98 79 74 76 81 80 81 69 54 113 104 54 54 64 79 60 78 75 79 79 77 83 97 121 138
182 127 195 125 112 107 133 174 204 116 115 155 172 153 151 137 104 87 82 76 77 78 79 102 15 115 105 75 47 87 68 69 82 96 94 96 59 38 57 63 98 112 99
224 202 110 100 218 147 165 185 159 181 181 205 178 177 179 158 158 112 102 87 113 75 81 43 72 38 62 35 50 63 103 125 106 106 126 114 94 67 76 59 72 100 126

GFSSE_con_3kmhel_117.txt.gz
Helicity
102 135 104 110 76 60 73 63 63 62 55 33 33 46 45 35 41 30 27 33 15 3 19 16 14 12 13 9 14 29 40 45 39 47 50 46 43 60 53 48 21 27 32
99 134 110 103 93 74 77 71 71 64 67 44 46 54 47 45 51 43 41 51 29 21 24 11 -1 4 25 28 31 38 42 33 25 11 15 26 31 36 33 34 17 19 31
85 103 131 113 99 89 79 84 82 79 81 69 54 60 54 58 50 43 42 44 29 34 25 13 21 29 33 37 43 41 32 27 -16 -33 -14 -0 3 13 22 17 18 27 29
78 111 133 128 110 89 79 88 83 77 88 91 69 61 63 56 52 37 30 36 37 33 27 31 32 41 33 25 29 24 21 37 21 17 -9 3 5 14 16 17 21 26 33
123 112 128 127 112 95 82 84 85 74 81 93 86 59 60 55 64 41 37 47 52 53 39 31 30 26 16 11 15 9 -1 -11 -7 4 -0 -1 -0 10 19 24 29 31 34
172 117 145 122 108 94 81 79 72 75 71 83 86 61 59 72 62 45 41 66 57 42 35 26 10 1 6 -0 2 -0 -20 -42 -25 5 6 18 13 19 25 24 26 28 35
89 175 106 114 119 102 78 69 58 68 67 73 72 50 61 88 60 63 68 62 54 46 35 21 -1 -4 3 4 6 -11 -15 13 -5 5 8 9 7 18 18 17 21 23 29
80 179 110 122 125 102 76 64 48 54 66 59 61 63 85 71 67 82 70 52 40 37 26 13 -3 1 10 7 -0 -19 -23 -6 -3 6 3 -0 1 14 15 17 20 25 29
67 108 115 92 109 108 77 59 52 75 70 63 76 85 88 69 73 81 67 44 28 26 15 5 5 6 7 4 -3 -21 -11 6 -6 -15 -3 -6 -0 14 14 12 18 20 24
59 90 119 107 99 89 72 91 84 91 84 88 109 118 101 75 71 74 69 35 30 25 11 6 4 10 7 7 -3 -27 -54 -55 -3 1 -0 -5 10 14 13 9 10 14 22
187 119 129 131 106 90 75 84 100 105 125 152 160 151 79 28 33 38 48 49 33 15 10 3 2 11 6 -0 -20 -38 -44 -14 -2 1 1 1 14 17 17 14 15 17 22
198 108 103 147 115 98 109 79 76 111 150 155 132 84 24 40 21 42 61 48 38 20 1 -2 -3 -11 -34 -16 -27 -41 -30 -7 -1 10 12 8 23 25 25 22 19 19 20
232 125 114 150 126 114 125 97 132 160 165 136 93 39 34 38 53 71 54 11 -2 -18 -18 -18 -20 -27 -29 -18 -19 -15 -10 -0 3 14 27 17 30 33 31 25 24 22 19
134 -70 85 185 184 144 141 115 153 173 183 135 89 34 64 60 71 71 28 -4 -25 -37 -18 -13 -25 -15 -14 -10 -8 -7 -5 6 13 20 36 29 31 37 35 32 29 27 21
141 17 18 237 248 156 147 127 157 198 156 74 56 58 69 74 56 59 24 -7 -20 -27 -21 -18 -14 -8 -10 -4 4 7 6 11 22 28 60 56 40 37 38 34 34 34 30
174 62 141 85 171 159 146 117 112 152 130 108 96 128 116 103 80 3 1 -29 -8 -4 -5 -2 1 3 3 3 6 11 14 22 24 37 59 65 64 47 38 38 38 37 34
126 189 230 202 211 166 125 161 161 145 122 111 108 33 94 95 51 13 -14 -2 2 13 9 12 16 13 10 13 10 16 22 28 38 45 53 75 71 63 45 29 34 40 33
-6 82 246 102 191 167 141 154 171 143 143 125 128 95 68 68 50 46 32 12 20 30 28 25 21 18 15 19 18 23 25 37 36 42 62 60 77 72 64 50 32 32 28
-72 121 309 232 156 144 160 179 143 127 154 155 159 149 112 64 39 50 41 34 37 42 36 32 28 25 28 32 27 27 36 44 39 40 48 53 60 62 60 93 63 49 50
27 103 306 386 128 130 198 187 171 152 160 166 164 142 129 83 49 66 66 56 56 52 44 43 34 48 47 37 32 36 39 49 58 61 47 64 94 88 71 67 76 73 79
-7 118 122 142 94 224 182 183 149 140 162 153 151 117 91 79 73 81 88 68 65 52 44 46 52 44 52 42 45 56 51 75 60 51 79 89 91 106 92 69 33 106 89
6 41 225 193 68 213 191 164 141 147 144 160 159 127 107 88 90 108 83 80 75 73 65 52 60 66 59 59 79 99 102 71 79 85 98 83 88 103 112 123 78 87 139
118 177 133 159 91 172 154 169 169 173 184 177 144 135 129 116 101 112 102 95 82 81 77 77 77 59 63 94 131 158 108 33 89 94 91 83 92 90 89 84 95 119 137
7 142 -3 -9 59 173 157 161 157 206 192 179 191 172 160 131 130 144 130 113 120 136 105 80 63 56 61 111 105 118 83 70 79 86 63 86 81 61 73 87 68 108 108
90 78 41 67 34 230 165 171 166 158 167 169 164 145 155 160 144 161 160 142 133 124 99 77 104 81 12 84 36 99 37 53 46 71 79 79 87 69 62 68 70 95 83
46 155 144 73 20 154 142 118 127 146 150 169 146 152 175 211 211 182 172 163 160 138 119 107 98 97 23 25 37 27 28 50 64 89 88 67 72 88 76 71 83 78 83

GFSSE_con_3kmhel_120.txt.gz
Helicity
176 140 117 149 166 114 93 77 70 62 57 43 55 47 45 34 23 28 15 12 5 12 21 25 24 18 18 32 42 58 63 56 59 68 72 71 49 41 46 37 25 22 39
197 132 161 129 147 141 103 82 75 60 57 41 52 49 40 34 28 23 28 9 12 30 23 11 26 30 30 37 43 57 58 37 16 12 20 25 34 33 38 29 18 24 34
163 109 157 143 146 135 111 100 82 70 69 47 57 57 46 40 34 37 34 14 37 35 20 32 51 38 45 45 45 44 34 2 -28 -38 -16 -14 -1 21 24 21 18 32 32
169 117 152 133 133 136 118 109 100 83 78 51 45 62 51 48 38 41 39 46 47 51 45 56 63 54 39 40 31 41 43 35 -7 25 -4 -8 1 18 23 24 25 31 29
188 128 150 130 115 127 127 111 107 98 85 63 46 64 61 55 43 42 55 53 67 55 58 61 59 39 26 18 20 27 63 86 58 46 8 3 -5 12 28 27 24 27 25
214 130 174 138 115 109 116 104 107 102 89 79 63 60 61 55 49 68 72 88 80 61 55 76 52 30 10 4 -0 7 28 27 -4 6 15 7 -17 21 27 25 23 25 31
147 202 166 151 111 91 94 98 98 102 100 90 75 54 48 80 83 97 87 94 71 57 43 40 22 12 -1 -5 -17 11 46 4 13 7 -0 -14 -14 18 23 27 25 31 36
206 145 107 152 119 82 85 90 100 104 105 92 74 46 63 98 102 101 90 88 66 46 35 25 13 10 9 -4 -11 25 50 33 20 11 -4 -19 -0 13 14 19 17 23 28
229 94 104 167 127 106 91 84 86 92 101 90 66 63 98 110 104 94 83 74 58 44 28 20 17 19 16 -2 -11 11 27 -11 -28 -37 -15 -29 -2 8 12 12 12 17 25
169 88 87 181 152 140 123 92 91 100 108 93 90 126 152 131 109 96 65 63 62 43 28 20 23 19 14 -3 -24 -24 -8 -4 9 24 -6 -21 6 11 10 12 13 16 23
194 127 114 168 176 142 135 115 116 135 119 118 152 159 165 133 121 88 66 66 61 36 26 22 22 15 6 -11 -34 -35 -30 -30 13 -0 -9 1 12 15 14 14 14 16 19
150 183 119 144 204 161 159 156 155 150 170 177 177 145 149 125 109 104 84 66 59 33 25 17 8 -6 -13 -32 -40 -41 -32 -2 19 12 -1 11 18 23 24 22 20 17 19
95 190 191 168 216 169 197 209 202 191 215 195 157 154 118 111 134 126 120 99 62 32 23 7 -20 -57 -56 -37 -22 -27 -29 2 24 13 12 22 28 31 31 30 28 21 23
216 187 144 206 344 204 254 211 220 202 225 219 159 107 127 125 151 143 118 83 46 3 -0 -7 -43 -27 -17 -13 -19 -12 3 10 45 35 30 35 33 36 37 35 32 29 28
-9 215 146 108 126 66 231 268 221 234 231 199 152 97 132 153 155 136 92 52 12 -19 -16 -16 -37 -13 -10 -14 5 14 22 17 45 40 35 54 44 42 43 40 36 34 32
-266 27 227 106 20 41 128 261 263 266 237 210 143 142 90 159 158 140 84 41 9 -17 -22 1 2 3 -7 4 3 11 8 31 40 71 63 50 65 51 43 40 41 41 37
-140 -212 217 170 172 107 -13 315 287 269 226 167 157 248 164 196 159 131 87 39 14 43 26 27 18 19 8 8 12 12 15 28 35 48 84 62 64 59 48 35 36 40 35
-149 -114 6 100 150 173 141 244 269 236 184 199 281 260 224 220 148 113 49 13 49 64 41 41 36 21 18 13 1 17 32 41 44 44 60 90 79 59 53 48 32 38 33
-21 -111 -230 50 175 81 185 234 225 186 249 281 252 201 161 217 128 57 50 123 87 85 68 49 36 24 21 21 18 33 35 43 50 57 64 55 80 97 83 75 63 50 36
-52 -259 -102 -58 363 383 161 290 367 302 270 291 213 123 145 160 175 195 179 131 106 89 65 49 38 29 23 23 31 34 41 52 61 62 53 46 84 101 81 97 89 72 65
-60 -138 -153 28 255 343 430 273 365 361 301 243 227 131 171 220 200 193 166 129 110 89 64 50 52 44 57 58 63 47 51 44 75 59 87 95 130 130 140 100 116 116 122
-68 -93 -103 47 138 156 376 358 352 329 289 243 240 195 258 236 196 178 158 135 112 81 63 63 68 61 51 52 64 79 86 93 96 102 92 84 79 99 107 84 79 122 121
-2 -45 19 83 99 250 236 313 296 242 235 237 216 207 218 186 182 176 158 133 101 102 100 75 83 78 70 116 108 96 100 72 55 62 86 65 72 80 81 82 102 120 104
73 6 35 45 58 236 211 229 200 222 213 199 209 197 199 193 170 175 152 140 138 144 115 122 112 95 109 107 114 104 121 76 38 48 73 45 74 76 70 76 72 64 66
117 27 1 107 136 330 224 165 177 224 198 196 220 196 203 204 158 193 193 202 205 200 166 151 173 169 144 100 81 53 85 81 63 77 57 51 62 61 58 60 59 55 58
105 78 31 158 65 45 55 149 197 212 234 292 260 301 277 268 260 254 252 232 207 201 190 167 141 107 109 107 56 48 43 37 54 76 63 -10 19 44 59 60 60 65 78

GFSSE_con_3kmhel_123.txt.gz
Helicity
71 86 79 147 122 131 145 117 97 67 61 69 77 64 75 70 55 44 46 39 28 37 44 46 46 45 53 48 49 56 56 55 68 69 64 45 38 38 39 33 25 18 31
94 95 98 133 138 114 120 116 96 66 64 58 65 44 51 50 38 31 32 31 33 44 42 45 50 48 53 62 62 55 41 41 44 34 32 22 28 34 32 29 17 22 32
86 109 141 132 159 120 111 103 92 68 65 50 57 44 36 43 35 29 28 36 32 26 34 45 55 56 58 58 65 59 29 23 16 -4 1 -23 -14 24 25 23 24 30 29
110 125 172 187 173 140 105 99 83 75 63 51 63 52 44 41 51 37 61 55 57 56 62 52 60 62 58 58 66 65 16 -31 35 -3 -19 -21 -4 23 29 35 31 36 33
128 118 227 213 180 151 115 93 81 83 64 59 58 68 48 46 55 50 82 86 79 72 57 64 60 55 43 36 48 61 72 65 31 13 7 3 -13 12 25 30 23 34 31
142 157 162 250 197 142 132 110 93 82 71 60 55 73 62 49 59 76 104 108 91 81 48 50 54 37 22 17 42 65 46 26 21 4 -6 -13 -27 13 17 23 25 31 30
157 128 141 198 196 154 128 120 99 90 75 68 62 76 76 67 68 96 121 103 83 87 92 43 35 17 9 13 39 54 42 31 4 2 -8 -19 -21 12 16 22 25 26 26
180 116 103 168 219 175 132 114 104 91 83 76 71 79 75 105 104 105 110 87 74 63 56 27 12 6 4 8 37 56 19 22 3 -2 -11 -21 -6 7 11 14 18 24 29
214 144 116 131 159 231 155 118 101 97 91 75 70 84 88 133 119 106 102 81 61 48 43 23 9 9 4 9 34 48 1 13 -6 -20 -25 -35 -5 6 8 10 17 19 25
178 166 101 124 150 181 223 152 119 116 113 92 77 121 125 129 129 125 102 78 64 47 43 26 14 13 3 9 22 41 38 23 -14 -10 -27 -31 1 7 9 11 14 17 20
172 163 171 141 181 196 283 217 149 138 135 115 132 164 153 150 155 144 108 93 71 49 38 29 22 14 5 -5 -6 8 16 -7 -3 -10 -26 -6 5 10 12 14 14 16 19
96 122 158 164 162 186 239 240 212 158 147 188 187 193 196 175 168 153 119 101 77 51 35 31 17 7 -4 -18 -22 -6 5 -6 -13 -6 -19 -2 12 16 16 17 16 17 20
201 180 203 140 162 194 245 269 301 237 247 247 203 201 196 209 194 172 141 120 95 61 42 23 1 -16 -25 -27 -28 -20 -14 6 -14 -1 -5 8 18 25 25 25 23 19 23
159 189 147 222 146 216 269 291 298 281 262 262 217 200 238 227 204 185 149 123 99 54 33 -0 -21 -22 -24 -24 -24 -27 -2 21 -3 -4 6 22 25 29 28 30 29 23 25
74 123 163 157 161 273 225 275 301 291 264 251 234 200 239 219 200 187 150 119 86 51 13 -15 -19 -17 -23 -42 -38 -7 20 27 22 9 9 36 36 32 34 35 33 30 29
27 73 84 163 101 238 305 295 331 286 263 267 250 216 202 211 205 183 161 122 67 30 -2 -21 -17 -18 -8 -2 10 15 27 39 28 31 27 23 45 47 45 43 41 40 42
77 -42 -27 36 203 116 69 136 175 214 271 269 261 206 188 201 197 188 153 100 35 5 -9 -5 -9 -4 9 11 7 11 14 23 54 42 40 35 38 50 53 49 50 46 54
142 11 -26 -18 114 235 127 99 136 215 254 256 261 203 209 202 201 177 157 87 38 19 9 6 15 21 13 18 22 12 24 31 40 56 45 55 49 43 40 45 41 46 61
211 97 12 -69 4 84 145 138 149 121 270 267 261 220 227 215 229 191 155 85 60 54 50 38 41 42 23 24 33 31 44 52 47 56 63 53 50 54 59 54 51 29 31
153 124 49 -11 29 92 211 189 139 19 250 305 292 282 291 238 219 192 138 108 107 96 77 65 59 56 40 28 39 51 43 40 45 53 59 66 66 76 61 50 55 39 32
145 140 47 30 30 -2 124 156 133 376 367 319 313 241 350 241 205 199 150 116 153 114 97 76 83 55 59 57 70 60 48 46 65 64 71 87 97 103 124 88 61 54 47
134 100 48 16 -43 -117 23 177 222 249 309 316 292 270 307 256 230 173 194 228 169 145 107 91 92 91 96 73 72 80 70 87 94 87 73 64 49 62 87 65 60 71 81
132 116 68 -10 24 36 42 216 336 315 352 412 327 346 299 276 283 240 253 229 170 153 113 108 100 94 109 96 80 84 104 87 99 58 57 48 57 41 42 58 71 73 85
70 71 65 12 -7 123 38 337 411 466 354 366 387 357 319 304 307 281 239 199 158 165 136 119 112 102 127 121 117 125 144 144 100 56 56 57 37 19 43 44 53 66 72
56 56 55 43 48 50 87 217 355 334 326 373 388 306 294 302 288 237 198 169 162 158 155 158 151 145 148 132 128 135 116 127 104 77 66 63 10 -1 36 34 48 43 54
78 57 72 58 38 95 101 311 363 288 342 358 317 320 333 265 251 228 211 188 194 191 201 201 199 166 157 150 133 121 124 98 94 62 66 43 22 -11 25 57 63 50 46

GFSSE_con_3kmhel_126.txt.gz
Helicity
21 69 97 91 101 110 120 128 108 102 93 97 101 105 109 86 86 87 88 74 70 52 54 54 55 65 61 51 59 74 63 52 51 48 36 30 30 34 39 36 24 17 34
99 70 91 118 124 127 120 120 96 83 85 89 91 90 96 81 60 70 71 65 61 57 63 57 51 73 75 72 69 68 60 45 45 37 22 18 17 32 35 31 20 29 33
96 64 71 104 164 159 141 118 92 87 65 76 80 73 75 76 40 49 64 61 59 50 58 63 66 62 78 73 53 50 48 33 31 19 1 -16 -11 27 28 30 32 31 31
117 81 80 107 133 168 159 140 102 92 63 64 62 47 56 60 51 49 72 51 44 56 66 65 61 65 78 67 31 18 34 25 21 13 1 -9 -0 25 24 35 31 35 40
124 112 112 161 158 145 152 138 120 95 68 72 49 54 50 56 63 55 69 83 85 69 74 64 63 63 66 68 63 29 33 27 29 16 8 -0 -6 14 23 31 25 34 38
105 106 149 176 160 155 134 128 124 99 81 80 61 55 55 64 73 97 96 107 92 83 65 61 60 48 55 46 43 42 38 30 27 7 -7 -14 -23 14 15 26 29 34 39
112 124 164 178 163 148 150 128 123 117 81 77 63 66 65 69 95 116 116 121 80 75 62 57 50 38 43 36 25 29 24 28 10 -5 -18 -25 -20 6 13 19 24 30 31
152 107 127 165 185 149 139 141 114 120 93 82 71 70 77 84 112 114 139 120 107 83 68 49 40 35 39 41 37 29 17 15 4 -3 -15 -29 -12 -0 10 13 19 21 26
154 124 113 126 170 180 148 151 130 103 101 91 79 76 97 106 128 109 147 116 93 68 58 39 27 29 35 34 19 13 15 20 3 -19 -29 -41 -13 -1 5 7 10 14 14
132 154 121 149 148 179 201 169 154 135 107 111 101 118 131 132 139 131 134 122 86 64 52 28 22 25 29 42 37 5 10 10 -8 -16 -34 -38 -8 -0 2 4 5 12 13
90 124 148 166 159 155 194 189 177 168 155 139 143 151 164 160 166 167 120 119 99 70 55 35 24 15 22 33 40 23 11 -14 -9 -21 -36 -17 -3 3 5 6 8 11 10
116 69 105 160 174 172 184 204 210 181 198 209 184 187 209 182 182 168 131 105 104 75 60 38 22 9 5 5 13 14 -6 -13 -9 -16 -27 -6 5 11 14 12 12 13 13
219 103 94 159 177 138 170 221 242 267 249 296 237 233 233 223 217 182 163 132 114 94 78 53 34 1 -10 -8 3 3 -3 -16 -16 -16 -14 -0 13 20 24 20 17 19 20
216 156 86 105 135 157 157 201 210 259 244 289 315 262 269 252 211 180 170 155 128 96 75 48 23 -2 -15 -6 -4 -7 -4 -22 -23 -10 -7 12 20 29 29 27 28 28 32
190 156 91 77 103 159 169 174 213 222 241 272 319 326 262 255 218 187 160 147 137 101 64 46 24 -6 -14 -16 -6 -3 8 -18 -7 -8 -3 19 28 32 35 38 39 34 33
167 150 109 101 93 100 193 144 232 222 252 291 301 354 278 261 246 206 191 150 127 84 62 36 10 -6 -17 -9 -8 -4 7 4 11 6 7 10 32 35 39 41 43 43 38
181 149 109 99 87 122 140 225 219 248 286 274 288 281 302 279 254 216 206 164 118 77 56 35 19 29 23 13 2 12 23 12 20 16 22 25 20 25 31 35 41 41 37
186 216 116 79 83 124 146 145 305 240 259 284 251 264 294 281 273 235 219 168 124 86 59 39 29 26 17 27 28 32 36 35 21 20 28 34 33 21 20 24 29 35 38
142 203 232 124 115 109 93 75 63 87 166 229 284 252 243 281 278 252 209 175 135 103 69 49 47 47 47 53 52 46 43 45 43 41 38 37 29 26 34 15 17 9 2
128 208 238 237 118 150 122 36 89 169 186 163 256 269 243 264 259 222 216 185 150 122 85 72 73 72 67 52 66 62 44 44 53 59 56 39 35 31 23 19 18 19 17
182 194 242 255 174 132 231 170 153 175 155 162 265 286 284 274 243 217 214 212 165 126 67 70 121 98 100 82 107 89 80 74 65 73 69 74 74 60 73 67 45 35 51
198 229 218 202 155 120 168 185 194 115 180 173 281 170 224 265 239 220 200 201 173 147 119 126 145 146 119 77 105 120 87 84 82 93 86 81 80 64 72 61 53 65 66
182 195 227 199 188 133 84 184 137 216 137 209 235 334 233 217 253 223 207 209 191 154 146 136 146 144 150 101 97 114 120 78 118 102 92 84 74 73 61 43 48 63 73
176 192 210 197 201 164 141 163 113 180 124 167 261 201 395 280 294 263 236 226 222 191 186 150 152 147 171 143 159 130 124 105 123 117 82 86 88 61 48 45 50 60 63
149 219 190 155 164 143 159 127 145 163 176 171 317 425 338 304 254 298 271 255 237 234 186 181 154 135 160 168 182 191 167 159 156 131 120 82 86 56 32 41 60 65 68
135 138 153 132 121 105 151 111 96 99 180 417 457 506 352 342 329 281 253 223 258 226 200 181 162 155 155 172 179 168 164 153 105 124 141 98 70 81 71 83 65 60 65

GFSSE_con_3kmhel_129.txt.gz
Helicity
37 74 72 91 105 109 115 147 151 139 132 129 114 97 85 75 87 89 79 61 61 71 69 64 39 50 43 59 64 61 46 42 50 45 37 34 32 33 41 35 20 15 37
99 87 70 70 90 130 131 131 144 134 129 120 115 102 88 86 94 106 96 69 62 75 66 67 52 51 57 61 65 55 52 54 55 44 22 29 29 33 33 38 28 25 36
104 97 93 78 73 101 132 137 147 134 122 120 101 96 91 82 77 97 86 60 57 69 77 75 80 64 52 53 65 57 49 49 42 23 7 -2 17 28 31 30 26 32 29
97 70 89 83 90 89 104 109 133 133 117 105 91 80 83 72 64 70 84 66 67 80 76 91 82 74 48 36 51 43 32 29 24 8 -13 -21 6 21 24 33 35 41 37
87 80 90 106 103 96 99 97 107 111 110 95 87 71 73 61 61 65 75 70 81 82 95 94 82 64 48 13 42 34 26 27 28 13 9 8 -6 15 18 26 25 35 27
70 81 92 106 127 119 107 98 94 92 101 87 68 70 72 54 69 75 87 104 104 101 85 80 78 60 64 51 32 24 24 30 25 -0 -14 -15 -14 10 11 12 15 29 24
96 93 86 105 104 148 137 96 92 86 86 85 72 75 71 74 113 117 120 123 118 100 79 79 64 52 36 28 25 25 28 30 8 -11 -25 -28 -21 3 6 10 21 20 23
89 116 95 91 102 143 124 110 96 79 89 77 90 80 83 94 115 121 123 113 125 100 81 74 55 46 25 30 25 19 23 18 -0 -13 -18 -25 -6 3 5 7 12 12 17
65 68 106 93 103 110 132 117 111 111 99 86 72 79 96 102 123 118 131 108 107 109 93 69 56 43 30 29 22 13 13 9 -6 -18 -17 -25 -5 9 5 8 13 11 18
72 59 72 118 113 122 115 126 130 129 115 108 99 110 129 134 129 124 135 117 97 109 106 73 54 48 32 18 18 7 8 10 -5 -9 -21 -26 1 6 7 7 12 12 15
173 74 80 85 89 129 113 101 125 128 140 136 150 164 161 166 161 142 120 111 103 84 90 74 60 54 46 28 15 7 5 -6 -7 -10 -22 -8 2 7 7 7 8 11 15
327 209 77 72 95 127 129 112 146 145 165 189 192 229 219 180 175 152 122 116 99 80 71 71 71 65 60 28 1 9 -3 -8 -5 -12 -24 -6 7 11 12 11 13 15 18
263 253 154 92 74 103 123 143 164 153 204 233 230 239 253 228 217 201 164 140 119 93 100 82 75 61 43 26 6 2 -1 -10 -10 -14 -15 -1 10 16 19 21 22 23 24
273 257 196 128 87 78 128 139 211 208 194 230 247 256 257 269 258 214 185 146 139 97 99 77 59 60 44 29 17 6 -1 -9 -16 -11 -12 5 13 23 27 30 32 32 31
186 240 220 175 99 81 97 143 181 206 220 205 251 264 269 256 261 253 182 160 144 114 88 85 72 57 52 35 22 4 -3 -9 -15 -9 -7 7 18 26 30 33 37 33 31
124 192 219 215 170 112 74 123 165 223 216 250 246 256 264 279 262 244 201 161 143 122 88 77 73 63 46 24 11 5 -0 3 -6 -3 2 6 19 24 30 31 32 32 33
125 123 173 191 173 143 140 98 175 205 270 230 273 255 266 252 260 215 214 183 143 138 111 100 89 83 57 38 19 12 13 15 10 8 15 19 17 17 17 18 27 29 31
42 153 155 159 173 166 155 143 140 202 228 259 299 310 255 261 251 239 222 194 168 163 142 115 108 86 62 50 42 26 14 26 15 18 26 24 27 22 13 8 7 21 20
115 80 185 169 187 183 185 157 168 213 200 277 264 324 267 253 226 244 216 209 200 196 155 128 122 99 93 64 47 39 29 27 22 35 27 26 26 28 33 22 9 -3 -7
160 123 159 239 206 192 207 219 170 179 159 213 303 286 261 253 207 240 227 196 228 223 179 153 143 114 92 64 80 74 64 55 50 45 33 36 30 36 35 19 31 30 22
185 167 141 212 265 247 282 220 201 77 86 183 187 267 260 215 216 237 272 210 216 229 177 145 163 139 126 121 152 125 102 84 72 71 72 68 72 70 71 66 56 52 63
175 191 200 186 229 280 247 245 260 192 140 118 139 199 255 242 205 239 294 240 236 236 223 190 193 203 158 129 155 168 101 89 92 97 99 87 92 88 88 76 66 79 83
192 169 174 191 195 256 236 241 240 204 250 219 246 218 248 277 213 256 257 264 231 203 236 202 176 181 203 151 142 141 120 85 126 111 108 98 85 93 89 85 87 87 83
161 169 147 152 164 193 235 216 161 170 203 184 213 237 296 264 233 279 250 264 262 204 220 205 180 176 231 173 185 154 126 100 122 124 126 103 90 89 84 103 101 83 75
74 148 157 124 87 117 198 226 187 167 193 195 190 214 263 354 352 376 356 243 265 221 211 200 204 208 198 214 210 200 161 151 144 142 123 112 110 100 94 112 70 74 91
127 121 148 147 97 112 174 182 199 164 181 206 205 239 316 296 294 334 247 241 181 166 239 218 199 204 219 209 222 201 203 192 158 149 146 141 145 145 140 123 91 84 105